[[{"header":{"parameterUnit":"m.s-1","parameterCategory":1,"la1":30.6,"la2":29.2853,"lo1":-89.7004,"lo2":-87.6739,"dy":0.0162,"dx":0.0183,"nx":112,"ny":82,"refTime":"2023-05-07T00:00:00:Z","depth":0,"parameterNumber":2,"parameterNumberName":"U-component_of_WINDS"},"data":[0.0,0.0,0.0,0.0,0.0,0.0,0.0,0.0,0.0,0.0,0.0,0.0,0.0,0.0,0.0,0.0,0.0,0.0,0.0,0.0,0.0,0.0,0.0,0.0,0.0,0.0,0.0,0.0,0.0,0.0,0.0,0.0,0.0,0.0,0.0,0.0,0.0,0.0,0.0,0.0,0.0,0.0,0.0,0.0,0.0,0.0,0.0,0.0,0.0,0.0,0.0,0.0,0.0,0.0,0.0,0.0,0.0,0.0,0.0,0.0,0.0,0.0,0.0,0.0,0.0,0.0,0.0,0.0,0.0,0.0,0.0,0.0,0.0,0.0,0.0,0.0,0.0,0.0,0.0,0.0,0.0,0.0,0.0,0.0,0.0,0.0,0.0,0.0,0.0,0.0,0.0,-0.3754,-0.316,-0.1601,0.105,0.1953,0.3615,0.6483,0.0,0.0,0.0,0.0,0.0,0.0,0.0,0.0,0.0,0.0,0.0,0.0,0.0,0.0,0.0,0.0,0.0,0.0,0.0,0.0,0.0,0.0,0.0,0.0,0.0,0.0,0.0,0.0,0.0,0.0,0.0,0.0,0.0,0.0,0.0,0.0,0.0,0.0,0.0,0.0,0.0,0.0,0.0,0.0,0.0,0.0,0.0,0.0,0.0,0.0,0.0,0.0,0.0,0.0,0.0,0.0,0.0,0.0,0.0,0.0,0.0,0.0,0.0,0.0,0.0,0.0,0.0,0.0,0.0,0.0,0.0,0.0,0.0,0.0,0.0,0.0,0.0,0.0,0.0,0.0,0.0,0.0,0.0,0.0,0.0,0.0,0.0,0.0,0.0,0.0,0.0,0.0,0.0,0.0,0.0,0.0,0.0,0.0,0.0,0.0,0.0,0.0,0.0,0.0,-0.1052,-0.5257,-0.5128,-0.4227,-0.3001,-0.0541,0.1879,0.418,0.0,0.0,0.0,0.0,0.0,0.0,0.0,0.0,0.0,0.0,0.0,0.0,0.0,0.0,0.0,0.0,0.0,0.0,0.0,0.0,0.0,0.0,0.0,0.0,0.0,0.0,0.0,0.0,0.0,0.0,0.0,0.0,0.0,0.0,0.0,0.0,0.0,0.0,0.0,0.0,0.0,0.0,0.0,0.0,0.0,0.0,0.0,0.0,0.0,0.0,0.0,0.0,0.0,0.0,0.0,0.0,0.0,0.0,0.0,0.0,0.0,0.0,0.0,0.0,0.0,0.0,0.0,0.0,0.0,0.0,0.0,0.0,0.0,0.0,0.0,0.0,0.0,0.0,0.0,0.0,0.0,0.0,0.0,0.0,0.0,0.0,0.0,0.0,0.0,0.0,0.0,0.0,0.0,0.0,0.0,0.0,0.0,0.0,0.0,0.0,0.0,0.0,0.0,-0.0221,-0.2198,-0.6457,-0.6621,-0.5841,-0.4362,-0.1997,0.0388,0.268,0.3528,0.0,0.0,0.0,0.0,0.0,0.0,0.0,0.0,0.0,0.0,0.0,0.0,0.0,0.0,0.0,0.0,0.0,0.0,0.0,0.0,0.0,0.0,0.0,0.0,0.0,0.0,0.0,0.0,0.0,0.0,0.0,0.0,0.0,0.0,0.0,0.0,0.0,0.0,0.0,0.0,0.0,0.0,0.0,0.0,0.0,0.0,0.0,0.0,0.0,0.0,0.0,0.0,0.0,0.0,0.0,0.0,0.0,0.0,0.0,0.0,0.0,0.0,0.0,0.0,0.0,0.0,0.0,0.0,0.0,0.0,0.0,0.0,0.0,0.0,0.0,0.0,0.0,0.0,0.0,0.0,0.0,0.0,0.0,0.0,0.0,0.0,0.0,0.0,0.0,0.0,0.0,0.0,0.0,0.0,0.0,0.0,0.0,0.0,0.0,0.0,0.0,0.0,-0.1936,-0.3831,-0.71,-0.7507,-0.6862,-0.5135,-0.2968,-0.0732,0.1598,0.3088,0.0,0.0,0.0,0.0,0.0,0.0,0.0,0.0,0.0,0.0,0.0,0.0,0.0,0.0,0.0,0.0,0.0,0.0,0.0,0.0,0.0,0.0,0.0,0.0,0.0,0.0,0.0,0.0,0.0,0.0,0.0,0.0,0.0,0.0,0.0,0.0,0.0,0.0,0.0,0.0,0.0,0.0,0.0,0.0,0.0,0.0,0.0,0.0,0.0,0.0,0.0,0.0,0.0,0.0,0.0,0.0,0.0,0.0,0.0,0.0,0.0,0.0,0.0,0.0,0.0,0.0,0.0,0.0,0.0,0.0,0.0,0.0,0.0,0.0,0.0,0.0,0.0,0.0,0.0,0.0,0.0,0.0,0.0,0.0,0.0,0.0,0.0,0.0,0.0,0.0,0.0,0.0,0.0,0.0,0.0,0.0,0.0,0.0,0.0,0.0,0.0,0.0,-0.1758,-0.494,-0.6826,-0.748,-0.7301,-0.6179,-0.3613,-0.1196,0.0843,0.2755,0.0,0.0,0.0,0.0,0.0,0.0,0.0,0.0,0.0,0.0,0.0,0.0,0.0,0.0,0.0,0.0,0.0,0.0,0.0,0.0,0.0,0.0,0.0,0.0,0.0,0.0,0.0,0.0,0.0,0.0,0.0,0.0,0.0,0.0,0.0,0.0,0.0,0.0,0.0,0.0,0.0,0.0,0.0,0.0,0.0,0.0,0.0,0.0,0.0,0.0,0.0,0.0,0.0,0.0,0.0,0.0,0.0,0.0,0.0,0.0,0.0,0.0,0.0,0.0,0.0,0.0,0.0,0.0,0.0,0.0,0.0,0.0,0.0,0.0,0.0,0.0,0.0,0.0,0.0,0.0,0.0,0.0,0.0,0.0,0.0,0.0,0.0,0.0,0.0,0.0,0.0,0.0,0.0,0.0,0.0,0.0,0.0,0.0,0.0,0.0,0.0,0.0,-0.1357,-0.4198,0.0,-0.7989,-0.7656,-0.6197,-0.4485,-0.2365,0.0235,0.0,0.0,0.0,0.0,0.0,0.0,0.0,0.0,0.0,0.0,0.0,0.0,0.0,0.0,0.0,0.0,0.0,0.0,0.0,0.0,0.0,0.0,0.0,0.0,0.0,0.0,0.0,0.0,0.0,0.0,0.0,0.0,0.0,0.0,0.0,0.0,0.0,0.0,0.0,0.0,0.0,0.0,0.0,0.0,0.0,0.0,0.0,0.0,0.0,0.0,0.0,0.0,0.0,0.0,0.0,0.0,0.0,0.0,0.0,0.0,0.0,0.0,0.0,0.0,0.0,0.0,0.0,0.0,0.0,0.0,0.0,0.0,0.0,0.0,0.0,0.0,0.0,0.0,0.0,0.0,0.0,0.0,0.0,0.0,0.0,0.0,0.0,0.0,0.0,0.0,0.0,0.0,0.0,0.0,0.0,0.0,0.0,0.0,0.0,0.0,0.0,0.0,0.0939,-0.1557,-0.4296,0.0,-0.8471,-0.8168,-0.6917,-0.5333,-0.3451,-0.1252,0.0,0.0,0.0,0.0,0.0,0.0,0.0,0.0,0.0,0.0,0.0,0.0,0.0,0.0,0.0,0.0,0.0,0.0,0.0,0.0,0.0,0.0,0.0,0.0,0.0,0.0,0.0,0.0,0.0,0.0,0.0,0.0,0.0,0.0,0.0,0.0,0.0,0.0,0.0,0.0,0.0,0.0,0.0,0.0,0.0,0.0,0.0,0.0,0.0,0.0,0.0,0.0,0.0,0.0,0.0,0.0,0.0,0.0,0.0,0.0,0.0,0.0,0.0,0.0,0.0,0.0,0.0,0.0,0.0,0.0,0.0,0.0,0.0,0.0,0.0,0.0,0.0,0.0,0.0,0.0,0.0,0.0,0.0,0.0,0.0,0.0,0.0,0.0,0.0,0.0,0.0,0.0,0.0,0.0,0.0,0.0,0.0,0.0,0.0,0.0,0.0,0.0,0.0738,-0.2522,-0.5573,-0.8388,-0.8876,-0.8888,-0.8606,-0.6166,-0.4359,0.0,0.0,0.0,0.0,0.0,0.0,0.0,0.0,0.0,0.0,0.0,0.0,0.0,0.0,0.0,0.0,0.0,0.0,0.0,0.0,0.0,0.0,0.0,0.0,0.0,0.0,0.0,0.0,0.0,0.0,0.0,0.0,0.0,0.0,0.0,0.0,0.0,0.0,0.0,0.0,0.0,0.0,0.0,0.0,0.0,0.0,0.0,0.0,0.0,0.0,0.0,0.0,0.0,0.0,0.0,0.0,0.0,0.0,0.0,0.0,0.0,0.0,0.0,0.0,0.0,0.0,0.0,0.0,0.0,0.0,0.0,0.0,0.0,0.0,0.0,0.0,0.0,0.0,0.0,0.0,0.0,0.0,0.0,0.0,0.0,0.0,0.0,0.0,0.0,0.0,0.0,0.0,0.0,0.0,0.0,0.0,0.0,0.0,0.0,0.0,0.0,0.0,0.0,0.0204,-0.2675,-0.546,-0.8577,-0.9147,-0.8955,-0.811,-0.7242,-0.5749,-0.3481,0.0,0.0,0.0,0.0,0.0,0.0,0.0,0.0,0.0,0.0,0.0,0.0,0.0,0.0,0.0,0.0,0.0,0.0,0.0,0.0,0.0,0.0,0.0,0.0,0.0,0.0,0.0,0.0,0.0,0.0,0.0,0.0,0.0,0.0,0.0,0.0,0.0,0.0,0.0,0.0,0.0,0.0,0.0,0.0,0.0,0.0,0.0,0.0,0.0,0.0,0.0,0.0,0.0,0.0,0.0,0.0,0.0,0.0,0.0,0.0,0.0,0.0,0.0,0.0,0.0,0.0,0.0,0.0,0.0,0.0,0.0,0.0,0.0,0.0,0.0,0.0,0.0,0.0,0.0,0.0,0.0,0.0,0.0,0.0,0.0,0.0,0.0,0.0,0.0,0.0,0.0,0.0,0.0,0.0,0.0,0.0,0.0,0.0,0.0,0.0,0.0,0.0,0.0361,-0.225,-0.4974,-0.8407,-0.898,-0.8969,-0.8662,-0.7957,-0.7008,-0.5736,0.0,0.0,0.0,0.0,0.0,0.0,0.0,0.0,0.0,0.0,0.0,0.0,0.0,0.0,0.0,0.0,0.0,0.0,0.0,0.0,0.0,0.0,0.0,0.0,0.0,0.0,0.0,0.0,0.0,0.0,0.0,0.0,0.0,0.0,0.0,0.0,0.0,0.0,0.0,0.0,0.0,0.0,0.0,0.0,0.0,0.0,0.0,0.0,0.0,0.0,0.0,0.0,0.0,0.0,0.0,0.0,0.0,0.0,0.0,0.0,0.0,0.0,0.0,0.0,0.0,0.0,0.0,0.0,0.0,0.0,0.0,0.0,0.0,0.0,0.0,0.0,0.0,0.0,0.0,0.0,0.0,0.0,0.0,0.0,0.0,0.0,0.0,0.0,0.0,0.0,0.0,0.0,0.0,0.0,0.0,0.0,0.0,0.0,0.0,0.0,0.0,0.0,0.117,-0.1246,-0.3909,-0.767,-0.8312,-0.8796,-0.9572,-0.8339,-0.8027,-0.9216,0.0,0.0,0.0,0.0,0.0,0.0,0.0,0.0,0.0,0.0,0.0,0.0,0.0,0.0,0.0,0.0,0.0,0.0,0.0,0.0,0.0,0.0,0.0,0.0,0.0,0.0,0.0,0.0,0.0,0.0,0.0,0.0,0.0,0.0,0.0,0.0,0.0,0.0,0.0,0.0,0.0,0.0,0.0,0.0,0.0,0.0,0.0,0.0,0.0,0.0,0.0,0.0,0.0,0.0,0.0,0.0,0.0,0.0,0.0,0.0,0.5761,0.0,0.0,0.0,0.0,0.0,0.0,0.0,0.0,0.0,0.0,0.0,0.0,0.0,0.0,0.0,0.0,0.0,0.0,0.0,0.0,0.0,0.0,0.0,0.0,0.0,0.0,0.0,0.0,0.0,0.0,0.0,0.0,0.0,0.0,0.0,0.0,0.0,0.0,0.0,0.0,0.0,0.291,0.0827,-0.1559,-0.5103,-0.6371,-0.7188,-0.7714,-0.8023,-0.8262,-0.8445,0.0,0.0,0.0,0.0,0.0,0.0,0.0,0.0,0.0,0.0,0.0,0.0,0.0,0.0,0.0,0.0,0.0,0.0,0.0,0.0,0.0,0.0,0.0,0.0,0.0,0.0,0.0,0.0,0.0,0.0,0.0,0.0,0.0,0.0,0.0,0.0,0.0,0.0,0.0,0.0,0.0,0.0,0.0,0.0,0.0,0.0,0.0,0.0,0.0,0.0,0.0,0.0,0.0,0.0,0.0,0.0,0.0,0.0,0.0,0.0,0.0,0.8305,0.0,0.0,0.0,0.0,0.0,0.0,0.0,0.0,0.0,0.0,0.0,0.0,0.0,0.0,0.0,0.0,0.0,0.0,0.0,0.0,0.0,0.0,0.0,0.0,0.0,0.0,0.0,0.0,0.0,0.0,0.0,0.0,0.0,0.0,0.0,0.0,0.0,0.0,0.0,0.0,0.4559,0.2808,0.069,-0.2574,-0.4161,-0.538,-0.6419,-0.7132,-0.7712,-0.8214,-0.7332,0.0,0.0,0.0,0.0,0.0,0.0,0.0,0.0,0.0,0.0,0.0,0.0,0.0,0.0,0.0,0.0,0.0,0.0,0.0,0.0,0.0,0.0,0.0,0.0,0.0,0.0,0.0,0.0,0.0,0.0,0.0,0.0,0.0,0.0,0.0,0.0,0.0,0.0,0.0,0.0,0.0,0.0,0.0,0.0,0.0,0.0,0.0,0.0,0.0,0.0,0.0,0.0,0.0,0.0,0.0,0.3401,0.4638,0.6301,0.8196,0.8397,0.9573,1.1431,0.0,0.0,0.0,0.0,0.0,0.0,0.0,0.0,0.0,0.0,0.0,0.0,0.0,0.0,0.0,0.0,0.0,0.0,0.0,0.0,0.0,0.0,0.0,0.0,0.0,1.5284,1.5201,0.0,0.0,0.0,0.0,0.0,0.0,0.0,0.0,0.0,0.0,0.0,0.0,0.6496,0.4922,0.2983,0.0066,-0.1693,-0.3379,-0.5196,-0.5925,-0.6818,-0.8035,-0.7395,-0.7031,0.0,0.0,0.0,0.0,0.0,0.0,0.0,0.0,0.0,0.0,0.0,0.0,0.0,0.0,0.0,0.0,0.0,0.0,0.0,0.0,0.0,0.0,0.0,0.0,0.0,0.0,0.0,0.0,0.0,0.0,0.0,0.0,1.7968,2.0004,0.0,0.0,0.0,0.0,0.0,0.0,0.0,0.0,0.0,0.0,0.0,0.0,0.0,0.0,0.7599,0.6584,0.5765,0.5303,0.5311,0.5546,0.5934,0.728,0.8812,1.0506,1.1691,0.0,1.3516,1.4522,0.0,0.0,0.0,0.0,0.0,0.0,0.0,0.0,0.0,0.0,0.0,0.0,0.0,0.0,0.0,0.0,0.0,0.0,0.0,0.0,0.0,0.0,1.5306,1.5323,1.5267,1.518,0.0,1.5041,1.4991,1.4775,0.0,0.0,0.0,0.0,0.0,0.0,0.0,0.0,0.9438,0.7701,0.5564,0.3008,0.1045,-0.1029,-0.3346,-0.4722,-0.6024,-0.7348,-0.7535,-0.7711,-0.7964,-0.6945,0.0,0.0,0.0,0.0,0.0,0.0,0.0,0.0,0.0,0.0,0.0,0.0,0.0,0.0,0.0,0.0,0.0,0.0,0.0,0.0,0.0,0.0,0.0,0.0,0.0,0.0,0.0,0.0,0.0,1.6293,1.7456,1.8811,1.9267,1.9733,0.0,0.0,0.0,0.0,0.0,0.0,0.0,0.0,0.0,0.8644,0.8695,0.8595,0.8243,0.8304,0.8259,0.8061,0.8704,0.9285,0.9929,1.0698,1.2197,1.4145,1.4451,1.5292,1.6483,1.6033,1.6598,1.7635,0.0,0.0,0.0,0.0,0.0,0.0,1.1203,0.0,0.0,0.0,0.0,0.0,0.0,0.0,0.0,0.0,0.0,0.0,0.0,0.0,0.0,1.5277,1.5143,1.4978,1.485,1.4336,1.4029,0.0,1.3968,1.3388,1.3052,0.0,0.0,0.0,0.0,0.0,0.9915,0.8716,0.7423,0.5814,0.3241,0.0734,-0.1487,-0.3445,-0.544,-0.7502,-0.7638,-0.783,-0.8249,-0.7776,-0.6339,0.0,0.0,0.0,0.0,0.0,0.0,0.0,0.0,0.0,0.0,0.0,0.0,0.0,0.0,0.0,0.0,0.0,0.0,0.0,0.0,0.0,0.0,0.0,0.0,0.0,0.0,0.0,0.0,1.5771,1.675,1.7743,1.8167,1.8797,0.0,0.0,0.0,0.0,0.0,0.0,1.1262,1.0395,0.9631,0.8991,0.9275,0.9493,0.9604,1.0494,1.1152,1.158,1.2741,1.37,1.4505,1.4961,1.6166,1.7877,1.7629,1.8137,1.9065,1.7259,1.7122,1.7831,1.6111,1.5346,0.0,1.2878,1.1836,1.1327,1.0643,0.9987,0.9402,0.9004,0.0,0.8998,0.8937,0.0,0.0,0.0,0.0,1.3756,1.4759,0.0,1.5051,1.4927,1.4854,1.4808,1.4616,1.3728,1.3232,0.0,1.3507,1.288,1.2943,0.0,0.0,0.0,0.0,1.1484,1.0388,0.9439,0.8509,0.7553,0.5113,0.2531,-0.006,-0.2249,-0.4649,-0.7429,-0.7864,-0.824,-0.8795,-0.8703,-0.7536,-0.5149,0.0,0.0,0.0,0.0,0.0,0.0,0.0,0.0,0.0,0.0,0.0,0.0,0.0,0.0,0.0,0.0,0.0,0.0,0.0,0.0,0.0,0.0,0.0,0.0,0.0,0.0,0.0,0.0,0.0,1.7768,1.7175,0.0,0.0,0.0,0.0,1.4693,1.3571,1.2413,1.1148,1.0436,1.0064,0.992,0.9893,1.0561,1.191,1.3097,1.4529,1.6094,1.7414,1.8582,1.9639,2.0295,2.0895,2.1384,2.1741,2.1529,2.0756,1.819,1.7364,1.7505,1.5529,1.4568,1.4156,1.2496,1.1752,1.1388,1.0628,0.9974,0.9248,0.8427,0.857,0.8955,0.8352,0.9933,0.0,0.0,1.2603,1.2736,1.3867,1.4175,1.4131,1.4089,1.4404,1.4643,1.4389,1.3413,1.2904,0.0,1.3338,1.2741,1.2806,0.0,0.0,1.2946,1.1737,1.1086,1.1885,1.0356,0.8691,0.7461,0.6651,0.4612,0.0682,-0.1158,-0.343,-0.6581,-0.8259,-0.9375,-1.0,-0.9897,-0.9427,-0.8659,-0.5828,0.0,0.0,0.0,0.0,0.0,0.0,0.0,0.0,0.0,0.0,0.0,0.0,0.0,0.0,0.0,0.0,0.0,0.0,0.0,0.0,0.0,0.0,0.0,0.0,0.0,0.0,0.0,0.0,1.645,1.5965,0.0,1.7692,1.6343,1.5255,1.485,1.368,1.2687,1.1936,1.1019,1.0554,1.0533,1.1129,1.2079,1.3279,1.585,1.7692,1.89,2.109,2.264,2.3454,2.3634,2.4317,2.5319,2.3962,2.3495,2.3472,2.0983,1.9568,1.8745,1.705,1.61,1.5521,1.3997,1.2952,1.2215,1.1709,1.0767,0.9542,0.8148,0.815,0.8679,0.8825,1.0325,1.2106,1.2568,1.2657,1.2684,1.3081,1.3192,1.3309,1.3713,1.3795,1.3831,1.3905,1.2763,1.1843,1.24,1.244,1.2264,1.185,1.252,1.286,1.206,1.1423,1.0945,1.0757,0.9595,0.8509,0.7895,0.6334,0.4507,0.2308,-0.0248,-0.2726,-0.5004,-0.6394,-0.7563,-0.8461,-0.8579,-0.8329,-0.7749,-0.6302,-0.4521,0.0,0.0,0.0,0.0,0.0,0.0,0.0,0.0,0.0,0.0,0.0,0.0,0.0,0.0,0.0,0.0,0.0,0.0,0.0,0.0,0.0,0.0,0.0,0.0,0.0,0.0,1.5287,1.5963,1.5348,1.5467,1.6933,1.5792,1.4957,1.4912,1.401,1.3241,1.2694,1.1874,1.1478,1.1708,1.2529,1.3678,1.5088,1.821,2.0366,2.1615,2.4255,2.5873,2.6663,2.6907,2.7546,2.823,2.6553,2.5652,2.5211,2.3521,2.1884,2.025,1.8498,1.7413,1.6625,1.5377,1.4109,1.2826,1.1766,1.0423,0.8964,0.7539,0.7652,0.836,0.8387,0.9817,1.1521,1.1902,1.1823,1.1678,1.202,1.2282,1.2576,1.3036,1.3328,1.356,1.3637,1.2614,1.1628,1.154,1.1614,1.1649,1.1458,1.2421,1.279,1.1704,1.1352,1.0896,1.0102,0.9278,0.8562,0.8061,0.6677,0.51,0.3347,0.1023,-0.1165,-0.3054,-0.4538,-0.5708,-0.6626,-0.7202,-0.7448,-0.7303,-0.6589,-0.5365,-0.3593,0.0,0.0,0.0,0.0,0.0,0.0,0.0,0.0,0.0,0.0,0.0,0.0,0.0,0.0,0.0,0.0,0.0,0.0,0.0,0.0,0.0,0.0,0.0,1.6281,1.5787,1.5664,1.6492,1.5383,1.5205,1.6785,1.5618,1.4712,1.4646,1.4447,1.4097,1.3492,1.2861,1.2838,1.3521,1.3914,1.5202,1.7415,2.0101,2.2484,2.4385,2.6795,2.8413,2.9345,3.0281,3.0486,3.0041,2.9517,2.803,2.5972,2.5547,2.4096,2.1944,1.9843,1.8368,1.7282,1.6491,1.5061,1.3226,1.0741,0.8989,0.7612,0.6621,0.7231,0.8144,0.7003,0.8396,1.0371,1.0595,1.0118,0.9736,1.0603,1.1376,1.1946,1.1961,1.2966,1.3852,1.3628,1.3059,1.2313,1.1455,1.099,1.0944,1.1761,1.2342,1.2533,1.2075,1.1554,0.0,1.01,0.9576,0.8907,0.7914,0.7796,0.66,0.3735,0.2649,0.1247,-0.0802,-0.2845,-0.4198,-0.4746,-0.5976,-0.6988,-0.7681,-0.6849,-0.6033,-0.5267,0.0,0.0,0.0,0.0,0.0,0.0,0.0,0.0,0.0,0.0,0.0,0.0,0.0,0.0,0.0,0.0,0.0,0.0,0.0,0.0,0.0,0.0,1.6592,1.6539,1.6035,1.5671,1.5765,1.5386,1.5562,1.6433,1.6184,1.5948,1.5883,1.5651,1.5204,1.4479,1.3707,1.3546,1.4013,1.5028,1.6573,1.868,2.1905,2.4416,2.617,2.8681,3.0363,3.1277,3.1395,3.17,3.1986,2.9876,2.8557,2.7865,2.572,2.4552,2.3823,2.1939,2.0507,1.944,1.8552,1.6776,1.4573,1.2529,1.1014,0.9818,0.8625,0.8738,0.9203,0.8609,0.9581,1.0838,1.0344,1.0313,1.0308,0.9617,0.9906,1.0532,1.1373,1.186,1.2328,1.3023,1.2521,1.1743,1.1136,1.0902,1.0952,1.1317,1.1951,1.2309,1.205,0.0,0.0,1.0131,0.9266,0.8443,0.7733,0.7389,0.6706,0.5384,0.3678,0.2069,0.0,-0.1733,-0.3434,-0.4272,-0.5232,-0.631,-0.7444,-0.6917,-0.6736,0.0,0.0,0.0,0.0,0.0,0.0,0.0,0.0,0.0,0.0,0.0,0.0,0.0,0.0,0.0,0.0,0.0,0.0,0.0,0.0,0.0,0.0,1.5831,1.5952,1.6348,1.6192,1.5965,1.5927,1.5896,1.6225,1.695,1.6996,1.7022,1.7071,1.6707,1.6213,1.5749,1.5099,1.5016,1.5475,1.6939,1.8549,2.0329,2.3856,2.6365,2.7939,3.0493,3.2136,3.2909,3.2773,3.2907,0.0,3.0539,2.9121,2.8371,2.6012,2.4695,0.0,0.0,0.0,0.0,0.0,1.6706,1.4768,1.3295,1.1987,1.0791,0.9738,0.9419,0.9343,0.8861,0.935,0.9956,0.9521,0.9527,0.9546,0.8986,0.9441,1.0272,1.1164,1.1843,1.2402,1.3009,1.2618,1.1986,1.1512,0.0,0.0,1.1168,1.1572,1.1806,1.1484,1.1072,1.0534,0.0,0.9331,0.8675,0.797,0.7637,0.7153,0.6368,0.4838,0.0,0.0,0.0,-0.223,-0.4386,-0.5562,0.0,0.0,0.0,-0.8885,0.0,0.0,0.0,0.0,-0.6233,-0.618,0.0,0.0,0.0,0.0,0.0,0.0,0.0,0.0,0.0,0.0,0.0,0.0,0.0,0.0,0.0,0.0,1.3903,1.4951,1.5493,1.5729,1.6112,1.6427,1.6588,1.7044,1.7933,1.7919,1.7962,1.8143,1.7659,1.7368,1.7213,0.0,0.0,0.0,0.0,2.0832,2.2396,2.5941,2.8477,2.9931,3.2152,3.3665,3.4296,3.4357,3.3993,3.3277,3.1325,2.9686,2.8161,2.6322,2.4668,2.3221,2.2459,2.1629,2.0471,1.7568,1.5674,0.0,0.0,0.0,0.0,1.0382,0.9743,0.9136,0.8546,0.8447,0.8544,0.8542,0.8386,0.8303,0.8706,0.9604,1.0588,1.1211,1.2289,1.3209,1.3278,1.2983,1.2581,1.2178,1.1751,1.1392,1.1094,1.1215,1.1197,1.0766,1.0615,0.0,0.9569,0.9591,0.9351,0.8569,0.0,0.0,0.6894,0.5961,0.5011,0.4063,0.1621,-0.1367,-0.4981,-0.6491,-0.8068,-0.9836,-1.0706,-1.1447,-1.2085,-1.158,-1.1009,-1.0312,-0.7569,-0.628,0.0,0.0,0.0,0.0,0.0,0.0,0.0,0.0,0.0,0.0,0.0,0.0,0.0,0.0,0.0,1.1576,1.1728,1.2193,1.3416,1.3667,1.4244,1.5737,1.6669,1.7316,1.7599,1.8658,1.9239,1.9051,1.9283,1.9422,1.928,1.9,0.0,2.0248,2.1734,2.3372,2.5165,2.7857,3.0373,3.2663,0.0,0.0,3.6108,3.5826,3.5162,3.3979,3.1889,3.0265,2.9036,2.6696,2.4386,2.2201,2.1187,2.0353,1.9534,1.7434,1.6133,1.5251,1.4289,1.33,1.2373,1.1747,1.0966,1.0062,0.9554,0.9096,0.0,0.8744,0.8834,0.892,0.8891,0.9409,1.0126,1.0951,1.1615,1.2221,1.297,1.2944,1.2633,1.2128,1.1644,1.1205,1.0835,1.0855,1.087,1.0717,1.0538,1.0296,0.9943,1.0005,0.9935,0.9557,0.9544,0.9011,0.7613,0.6689,0.5212,0.2898,-0.0621,-0.3553,-0.5727,-0.6903,-0.8233,-0.9714,-1.0468,-1.1234,-1.2022,-1.218,-1.2204,-1.204,-0.8823,-0.6954,0.0,0.0,0.0,0.0,0.0,0.0,0.0,0.0,0.0,0.0,0.0,0.5319,0.0,0.0,0.6524,0.773,0.8563,0.969,1.1241,1.1697,1.2688,1.4987,1.6008,1.6857,1.7606,1.8434,1.909,1.9372,1.972,2.003,2.0469,2.0631,2.1163,2.2281,2.4072,2.5839,2.7627,3.011,3.2425,3.4318,3.5454,3.6376,3.7115,3.6488,3.5558,3.4382,3.2422,3.0741,2.9075,2.6139,2.355,2.144,2.0188,1.9264,1.8442,1.7111,1.586,1.4746,1.4249,1.3438,1.2584,1.2609,1.1864,1.0929,1.0468,0.9899,0.9295,0.9068,0.8837,0.8682,0.8735,0.903,0.9592,1.0555,1.1309,1.2007,1.2866,1.3016,1.282,1.2229,1.1527,1.0922,1.057,1.0173,1.0113,1.056,1.0523,1.0391,1.0274,1.022,1.0164,0.9979,0.9853,0.9232,0.7894,0.5516,0.3042,0.0615,-0.2254,-0.4709,-0.6621,-0.7922,-0.9336,-1.0878,-1.1759,-1.2741,-1.3866,-1.3301,-1.3538,-1.4426,-1.1077,-0.9021,0.0,0.0,0.0,0.0,0.0,0.0,0.0,0.0,0.4559,0.3449,0.2746,0.1932,0.0915,0.1993,0.3227,0.3844,0.5409,0.7252,0.9061,0.9847,1.1141,1.3389,1.4715,1.5906,1.7176,1.7782,1.8427,1.9331,1.9758,2.0382,2.1478,2.2213,2.3119,2.4399,2.6503,2.8369,2.9812,3.2308,3.4179,3.5705,3.6464,3.7189,3.7767,3.6846,3.5774,3.4719,3.266,3.054,2.8373,2.518,2.2822,2.095,1.9597,1.8364,1.7262,1.6578,1.54,1.4116,1.4028,1.3374,1.2539,1.2967,1.2456,1.1519,1.1032,1.041,0.9766,0.9315,0.8775,0.8383,0.8641,0.8792,0.9172,1.0326,1.1206,1.1991,1.2849,1.3052,1.2911,1.2187,1.1292,1.0511,1.0046,0.9454,0.9362,1.0249,1.0347,1.0325,1.0325,1.0276,1.0223,1.0265,0.9893,0.9004,0.7382,0.3738,0.0563,-0.1754,-0.3656,-0.5658,-0.7781,-0.934,-1.0922,-1.254,-1.3565,-1.4688,-1.5968,-1.486,-1.5147,-1.659,-1.3725,-1.1688,0.588,0.6642,0.7085,0.655,0.6455,0.5813,0.0,0.0,0.2159,0.0276,-0.0575,-0.1002,-0.12,-0.0555,0.0561,0.2083,0.34,0.4779,0.6654,0.7874,0.8967,1.0071,1.2516,1.4546,1.5433,1.6652,1.8007,1.9136,2.0298,2.1487,2.2866,2.3989,2.5439,2.7246,2.8795,3.0445,3.219,3.3487,3.5144,3.7012,3.7084,3.7521,3.8314,3.7167,3.6333,3.5252,3.1632,2.8858,2.6665,2.4453,2.2562,2.0941,1.963,1.791,1.6159,1.5832,1.5241,1.4471,1.4134,1.349,1.2843,1.2835,1.2272,1.1487,1.0749,1.0113,0.956,0.928,0.8928,0.8734,0.9071,0.8965,0.9158,1.0524,1.1081,1.1607,1.2831,1.2959,1.2594,1.1737,1.0777,0.9818,0.9031,0.8849,0.9013,0.9537,0.9604,0.9667,0.9765,1.0148,1.0446,1.0698,1.0212,0.8502,0.5159,0.2344,-0.0434,-0.3205,-0.5062,-0.7149,-0.9539,-1.1222,-1.2773,-1.4195,-1.5219,-1.61,-1.6854,-1.7018,-1.7248,-1.7518,-1.649,-1.4342,0.618,0.6379,0.6384,0.6324,0.5693,0.4757,0.3304,0.2177,0.0966,-0.0667,-0.19,-0.2724,-0.2662,-0.2408,-0.1755,0.0,0.0937,0.2551,0.4658,0.6088,0.7504,0.9092,1.0798,1.2446,1.3784,1.5338,1.6758,1.7879,1.9515,2.1067,2.2526,2.4311,2.5895,2.7383,2.9331,3.1003,3.2484,3.3702,3.4865,3.6262,3.6262,3.6284,3.6494,3.6069,3.5086,3.3363,3.0348,2.7753,2.5612,2.3438,2.1391,1.9508,1.8414,1.6881,1.5377,1.5512,1.4711,1.3553,1.3514,1.2899,1.2182,1.2108,1.1735,1.1182,1.0494,0.9933,0.9512,0.9219,0.882,0.8502,0.8693,0.8695,0.8923,1.0035,1.0649,1.1254,1.2293,1.2736,1.2561,1.1446,1.0626,0.9724,0.8546,0.8068,0.7983,0.8297,0.9037,0.9597,0.9744,0.9938,0.983,0.9186,0.7929,0.5997,0.3189,0.0486,-0.2033,-0.4345,-0.6179,-0.8089,-1.015,-1.1702,-1.3318,-1.5097,-1.6069,-1.7276,-1.8791,-1.8217,-1.8545,-1.9735,-1.808,-1.6547,0.6381,0.6499,0.6296,0.6332,0.5503,0.4348,0.3353,0.1925,0.0367,-0.1171,-0.2581,-0.3583,-0.3836,-0.3771,-0.3389,-0.2161,-0.0848,0.0725,0.2934,0.4819,0.6462,0.8129,0.9401,1.0678,1.188,1.3854,1.5544,1.6703,1.8546,2.0281,2.1785,2.3873,2.5678,2.6988,2.9126,3.0833,3.2038,3.3157,3.4031,3.4758,3.4651,3.4683,3.4612,3.4356,3.3093,3.1117,2.8892,2.6732,2.4639,2.2329,2.0119,1.7953,1.6911,1.5568,1.4212,1.4439,1.3791,1.2814,1.2835,1.2352,1.1719,1.15,1.1312,1.1032,1.0119,0.9676,0.9372,0.9005,0.8621,0.8369,0.8305,0.8408,0.875,0.9616,1.0172,1.0831,1.2,1.2342,1.2208,1.1244,1.0301,0.9266,0.8016,0.7297,0.6907,0.7072,0.7972,0.8881,0.9512,0.9471,0.8849,0.7433,0.5644,0.3585,0.109,-0.1278,-0.3567,-0.5704,-0.7269,-0.8998,-1.0837,-1.2562,-1.4275,-1.6048,-1.7255,-1.8673,-2.0372,-1.9611,-1.9922,-2.1213,-1.9627,-1.8625,0.6545,0.717,0.7409,0.6503,0.6172,0.5544,0.3445,0.188,0.0281,-0.1494,-0.2737,-0.3769,-0.4541,-0.4463,-0.4083,-0.3137,-0.1888,-0.0501,0.1478,0.3998,0.5765,0.6244,0.8389,0.968,0.0,1.196,1.4371,1.6042,1.7708,1.9356,2.076,2.291,2.4828,2.6353,2.8688,3.0187,3.1011,3.1996,3.2657,3.2728,3.2534,3.2728,3.3197,3.2229,3.0759,2.9021,2.74,2.555,2.3335,2.1203,1.8995,1.6798,1.5433,1.3823,1.2338,1.2178,1.2388,1.2773,1.2327,1.2063,1.1736,1.1191,1.1133,1.1059,0.9743,0.9215,0.9021,0.8461,0.8398,0.8414,0.8105,0.832,0.8778,0.9456,0.9678,1.0259,1.2159,1.1838,1.1155,1.1186,0.9671,0.807,0.719,0.6468,0.6053,0.6049,0.6211,0.6966,0.8776,0.8621,0.7669,0.5968,0.41,0.1773,-0.1141,-0.2898,-0.4941,-0.7439,-0.8442,-0.9906,-1.1988,-1.4346,-1.6155,-1.733,-1.9211,-2.0476,-2.1059,-2.1541,-2.1606,-2.1206,-2.141,-2.0622,0.6179,0.6854,0.7432,0.7102,0.6763,0.6014,0.4393,0.2921,0.1435,-0.0101,-0.1379,-0.2431,-0.3334,-0.3837,-0.4074,-0.3722,-0.3007,-0.1762,0.025,0.2113,0.3951,0.6107,0.7103,0.0,0.0,0.0,0.0,1.4052,1.6376,1.8264,1.943,2.1816,2.3654,2.4828,2.6689,2.7856,2.8258,2.893,2.9411,2.9474,2.9015,2.8816,2.8859,2.8164,2.714,2.5799,2.4294,2.2482,2.0465,1.8394,1.6308,1.4326,1.2866,1.1258,0.982,0.93,0.9052,0.9258,1.0802,1.1087,1.0698,1.0214,1.0179,1.0222,0.9387,0.8897,0.8539,0.8171,0.7889,0.7833,0.8061,0.8231,0.86,0.9624,1.0003,1.0326,1.1163,1.1389,1.1027,0.9682,0.836,0.6956,0.5311,0.4256,0.3803,0.4189,0.5328,0.6376,0.6979,0.6288,0.5061,0.3409,0.1185,-0.1139,-0.3409,-0.5135,-0.6893,-0.8866,-0.9718,-1.116,-1.3259,-1.4908,-1.6637,-1.8439,-1.9279,-2.0313,-2.1497,-2.1061,-2.0951,-2.1138,-2.0815,-2.0416,0.6244,0.726,0.8211,0.8276,0.8029,0.7446,0.6071,0.4674,0.3209,0.1637,0.0425,-0.0771,-0.1939,-0.2614,-0.3305,-0.394,-0.3247,-0.2273,-0.1014,0.0761,0.2658,0.4791,0.5635,0.6554,0.0,0.0,0.0,1.2871,1.4901,1.6608,1.7958,2.0115,2.1701,2.2513,2.4236,2.5213,2.5388,2.5949,2.6046,2.5784,2.5356,2.5006,2.4637,2.4003,2.3362,2.2455,2.0928,1.9301,1.7594,1.549,1.3539,1.1714,1.0272,0.8684,0.7226,0.6678,0.6208,0.6161,0.8827,0.9608,0.9515,0.9319,0.9343,0.9407,0.8934,0.8515,0.811,0.7846,0.7594,0.7531,0.7912,0.8035,0.8335,0.9471,0.9634,0.9738,1.0421,1.0067,0.9247,0.7861,0.6264,0.458,0.2946,0.196,0.154,0.1809,0.2838,0.3938,0.493,0.3912,0.2455,0.072,-0.1604,-0.3818,-0.5736,-0.7144,-0.852,-0.9935,-1.0705,-1.1902,-1.3703,-1.498,-1.6494,-1.8197,-1.8772,-1.9737,-2.1063,-2.0693,-2.0625,-2.0937,-2.068,-2.0497,0.6776,0.836,0.9735,1.0018,1.0083,0.9677,0.8281,0.6911,0.5513,0.3786,0.2441,0.1208,0.0,0.0,-0.181,-0.3554,-0.2989,-0.2277,-0.2184,-0.0129,0.1551,0.0,0.0,0.0,0.0,0.0,0.0,1.2122,0.0,1.4288,1.6161,1.7769,1.8902,1.9612,2.1459,2.2324,2.2215,2.2938,2.2708,2.1778,2.145,2.1036,2.0499,1.9837,1.9384,1.904,1.7275,1.5841,1.4774,1.2557,1.0689,0.9043,0.7573,0.615,0.4784,0.4333,0.3835,0.3728,0.6331,0.7569,0.8089,0.8381,0.8512,0.855,0.8446,0.802,0.7621,0.7437,0.7384,0.7436,0.7539,0.7616,0.793,0.8916,0.862,0.8471,0.9764,0.7878,0.5883,0.5676,0.3206,0.0876,0.0084,-0.0432,-0.0834,-0.1044,-0.1079,-0.0165,0.2528,0.1592,-0.0103,-0.2063,-0.42,-0.6169,-0.7922,-0.8838,-0.9752,-1.0763,-1.142,-1.2234,-1.3328,-1.4698,-1.5847,-1.6895,-1.7883,-1.8833,-1.9715,-2.0289,-2.0517,-2.0392,-2.0794,-2.0692,0.7148,0.8893,1.0474,1.1594,1.1748,1.1263,1.0059,0.8997,0.7758,0.6225,0.5139,0.4276,0.3871,0.0,0.0,-0.13,-0.2913,0.0,-0.3337,-0.2446,0.0,0.0776,0.0,0.2242,0.383,0.401,0.0,0.0,1.0393,1.2483,1.3076,1.4813,1.6092,1.663,1.7914,1.8668,1.8617,1.8441,1.7934,1.7015,1.6583,1.5935,1.5239,1.4971,1.4457,1.3671,1.2736,1.1807,1.0855,0.875,0.7222,0.6054,0.4232,0.2999,0.2041,0.1431,0.1112,0.1144,0.2101,0.388,0.5817,0.645,0.6806,0.7006,0.6949,0.675,0.6511,0.6278,0.6117,0.5997,0.6048,0.601,0.6169,0.713,0.7038,0.6686,0.6589,0.5118,0.3241,0.1374,-0.1548,-0.3898,-0.4447,-0.4385,-0.4178,-0.3874,-0.3821,-0.2961,-0.0603,-0.1592,-0.2951,-0.4335,-0.6336,-0.8029,-0.9018,-0.9931,-1.0798,-1.159,-1.2153,-1.301,-1.4295,-1.4851,-1.5723,-1.6867,-1.6841,-1.6965,-1.7293,-1.7446,-1.7482,-1.7417,-1.7864,-1.8119,0.7728,0.9759,1.1468,1.3203,1.3481,1.3101,1.2491,1.1405,1.034,0.9469,0.8314,0.7509,0.7521,0.4289,0.1365,0.0,0.0,0.0,-0.4226,-0.3865,-0.2712,0.0,-0.0396,0.0,0.2022,0.1907,0.2389,0.0,0.716,0.9573,1.0412,1.2142,1.3327,1.3678,1.4787,1.522,1.4886,1.4367,1.3659,1.2566,1.1954,1.126,1.0483,1.0095,0.9661,0.9068,0.0,0.767,0.6679,0.4758,0.3519,0.2626,0.0905,-0.022,-0.0921,-0.1447,-0.181,-0.1952,-0.145,-0.0307,0.1268,0.3635,0.4519,0.4734,0.4867,0.4794,0.4606,0.4494,0.4355,0.4357,0.4582,0.4357,0.4268,0.5324,0.4742,0.3897,0.3541,0.1614,-0.0961,-0.4052,-0.6236,-0.7727,-0.8012,-0.7733,-0.7325,-0.6879,-0.6829,-0.635,-0.5069,-0.4984,-0.5423,-0.6566,-0.8088,-0.9271,-0.9969,-1.0746,-1.1389,-1.1968,-1.2502,-1.3181,-1.3978,-1.4235,-1.4783,-1.5548,-1.5037,-1.5036,-1.558,-1.5526,-1.5617,-1.5936,-1.6431,-1.6914,0.8641,1.0791,1.254,1.4746,1.5006,1.4772,1.4753,1.3899,1.3021,1.2863,1.1661,1.0638,1.0568,0.7499,0.4262,0.2012,0.0,-0.312,-0.4855,-0.4503,-0.362,-0.2496,-0.1709,-0.0779,0.0126,0.0124,0.0366,0.0716,0.3372,0.5753,0.7817,0.9401,1.0455,1.0937,1.1687,1.172,1.1125,1.063,0.9721,0.8421,0.7582,0.6766,0.6069,0.5477,0.5139,0.4838,0.0,0.0,0.2435,0.0898,-0.0078,-0.0843,-0.231,-0.3224,-0.3827,-0.413,-0.4656,-0.5123,-0.4429,-0.4397,-0.4056,0.0237,0.1709,0.1834,0.217,0.2132,0.2022,0.2124,0.2209,0.2379,0.2838,0.2525,0.2264,0.3184,0.2063,0.0626,0.0312,-0.2627,-0.6271,-0.9786,-1.0766,-1.1059,-1.1077,-1.0707,-1.0255,-0.985,-0.9757,-0.9656,-0.9604,-0.8226,-0.7641,-0.8633,-0.9496,-1.0233,-1.0761,-1.1318,-1.1769,-1.2135,-1.2686,-1.3084,-1.3177,-1.3343,-1.3539,-1.3766,-1.3213,-1.3304,-1.4097,-1.4038,-1.4347,-1.4986,-1.5545,-1.6125,0.994,1.1941,1.3556,1.5524,1.583,1.5447,1.5158,1.4859,1.4767,1.4624,1.4194,1.3769,1.3803,1.0194,0.648,0.3743,0.0342,-0.2876,-0.5238,-0.4591,-0.3965,0.0,-0.3,-0.2303,-0.2236,-0.2347,0.0,0.0,0.0,0.0,0.4017,0.566,0.6974,0.8043,0.8024,0.783,0.7352,0.6298,0.5477,0.4618,0.3622,0.2808,0.2088,0.1486,0.1003,0.0627,0.0,0.0,-0.1137,-0.2394,-0.335,-0.4056,-0.4739,-0.5286,-0.5657,-0.6006,-0.6388,-0.6701,-0.6709,-0.7072,-0.7019,-0.3406,-0.2141,-0.1971,-0.1588,-0.1365,-0.1143,-0.087,-0.0374,0.0,-0.0207,-0.01,0.0049,-0.0096,-0.0905,-0.2196,-0.3976,-0.8141,-1.2104,-1.4113,-1.4721,-1.4805,-1.4399,-1.3671,-1.286,-1.2079,-1.1519,-1.1161,-1.1048,-1.0171,-0.9649,-1.0028,-1.0643,-1.1116,-1.1318,-1.1868,-1.2234,-1.2431,-1.288,-1.3321,-1.3658,-1.3303,-1.3098,-1.308,-1.2704,-1.2303,-1.1937,-1.2241,-1.2492,-1.2661,-1.3133,-1.369,1.08,1.237,1.3561,1.5681,1.6056,1.5986,1.6746,1.6826,1.7144,1.8209,1.7538,1.7106,1.8001,1.3981,0.9782,0.7916,0.464,0.0903,-0.3069,-0.258,-0.2349,-0.3976,-0.3687,-0.3238,-0.314,-0.3559,0.0,0.0,0.0,0.0,0.1541,0.3384,0.4529,0.4974,0.4822,0.4364,0.36,0.2551,0.1603,0.0779,-0.0193,-0.1045,-0.1768,-0.2547,-0.3025,-0.3309,0.0,0.0,-0.4846,-0.5802,-0.6518,-0.7112,-0.8115,-0.8516,-0.8569,-0.8967,-0.9175,-0.9329,-0.9415,-0.9864,-1.0132,-0.8772,-0.7234,-0.5911,-0.5754,-0.5343,-0.4892,-0.4535,-0.3813,-0.3213,-0.3425,-0.3235,-0.3142,-0.3617,-0.5005,-0.6812,-0.9091,-1.195,-1.4491,-1.5987,-1.6654,-1.6851,-1.6505,-1.5975,-1.5268,-1.4176,-1.3755,-1.3361,-1.2782,-1.2546,-1.2072,-1.1167,-1.1267,-1.1519,-1.1769,-1.2116,-1.2412,-1.2735,-1.317,-1.3449,-1.3567,-1.3324,-1.308,-1.2835,-1.2247,-1.1733,-1.1321,-1.1347,-1.1383,-1.1432,-1.2084,-1.2767,1.1969,1.3006,1.3744,1.5856,1.6357,1.6738,1.854,1.9228,1.9959,2.1751,2.1246,2.0798,2.1735,1.8078,1.4268,1.1993,0.9078,0.5128,-0.0469,-0.0592,-0.1197,-0.3978,-0.42,0.0,-0.3875,-0.4559,0.0,0.0,0.0,0.0,0.0,0.116,0.2001,0.1885,0.155,0.1026,0.0103,-0.0806,-0.1682,-0.252,-0.3518,-0.4378,-0.5103,-0.5963,-0.6529,-0.6803,0.0,0.0,0.0,-0.8877,-0.9468,-0.9958,-1.1132,-1.152,-1.1503,-1.1896,-1.2163,-1.2286,-1.2246,-1.2734,-1.3437,-1.374,-1.1987,-0.9742,-0.9726,-0.9248,-0.8554,-0.8177,-0.72,-0.6319,-0.6471,-0.6266,-0.6277,-0.7085,-0.9069,-1.135,-1.3489,-1.5058,-1.6317,-1.7467,-1.8166,-1.8485,-1.8264,-1.7963,-1.7247,-1.606,-1.5761,-1.533,-1.443,-1.4598,-1.4282,-1.277,-1.2282,-1.2195,-1.2544,-1.2693,-1.29,-1.3218,-1.3655,-1.3794,-1.3579,-1.343,-1.3161,-1.278,-1.1895,-1.1364,-1.1094,-1.0825,-1.0793,-1.0945,-1.1792,-1.2574,1.3926,1.4539,1.507,1.6822,1.7312,1.791,1.9975,2.161,2.308,2.4295,2.4946,2.4833,2.3746,2.2723,2.0124,1.4294,1.1541,0.7768,0.1032,-0.0935,-0.2367,-0.4466,0.0,0.0,-0.5541,-0.5881,0.0,0.0,0.0,0.0,0.0,-0.1967,-0.1439,-0.1214,-0.1915,-0.2517,-0.2821,-0.3755,-0.4458,-0.4935,-0.5768,-0.6647,-0.7474,-0.8341,-0.8923,-0.9217,0.0,0.0,0.0,-1.1158,-1.1731,-1.2326,-1.2599,-1.3067,-1.3643,-1.3907,-1.4707,-1.5549,-1.4855,-1.5563,-1.6821,-1.6685,-1.5031,-1.3144,-1.3057,-1.2477,-1.1688,-1.1232,-0.987,-0.8641,-0.8972,-0.8624,-0.866,-1.0352,-1.243,-1.4443,-1.5757,-1.775,-1.9401,-1.9927,-2.0282,-2.0422,-2.0016,-1.9379,-1.8596,-1.7575,-1.6903,-1.635,-1.5636,-1.5574,-1.5562,-1.5553,-1.452,-1.3922,-1.4171,-1.427,-1.4181,-1.3905,-1.443,-1.4666,-1.449,-1.3693,-1.304,-1.2703,-1.1776,-1.1166,-1.0853,-1.051,-1.0699,-1.1347,-1.21,-1.2893,1.5205,1.5381,1.5583,1.7057,1.7779,1.8859,2.118,2.3291,2.5239,2.6758,2.7378,2.7636,2.7115,2.6165,2.3949,1.9083,1.7927,1.475,0.6653,0.4801,0.2498,-0.2395,-0.4107,0.0,0.0,0.0,0.0,0.0,0.0,0.0,0.0,-0.4564,-0.3742,-0.451,-0.461,-0.5304,-0.6597,-0.6967,-0.7406,-0.8009,-0.8595,-0.9224,-0.9894,-1.0868,-1.1537,-1.1897,0.0,0.0,0.0,-1.3172,-1.3723,-1.4478,-1.5216,-1.5675,-1.602,-1.6638,-1.7166,-1.7597,-1.7586,-1.787,-1.828,-1.8535,-1.7922,-1.6995,-1.6405,-1.5819,-1.5364,-1.4881,-1.3799,-1.2773,-1.2979,-1.2756,-1.2938,-1.4639,-1.567,-1.6616,-1.8041,-1.9345,-2.0466,-2.1197,-2.1768,-2.2115,-2.206,-2.1668,-2.0856,-1.9546,-1.9206,-1.8691,-1.7522,-1.7623,-1.781,-1.7955,-1.6306,-1.5365,-1.5737,-1.5836,-1.571,-1.5404,-1.5633,-1.5589,-1.5176,-1.4572,-1.3988,-1.3437,-1.2643,-1.1883,-1.1153,-1.1072,-1.1223,-1.1601,-1.2423,-1.3232,1.7007,1.6759,1.6683,1.7827,1.8769,2.0134,2.2841,2.5294,2.7517,2.9102,2.9914,3.026,3.0173,2.9425,2.7622,2.3811,2.2302,1.8675,1.0396,0.755,0.4041,-0.1704,0.0,0.0,0.0,0.0,0.0,0.0,0.0,0.0,0.0,0.0,-0.6608,-0.7105,-0.7198,-0.797,-0.9299,-0.9602,-0.9979,-1.0606,-1.1028,-1.163,-1.2225,-1.3041,-1.3653,0.0,0.0,0.0,0.0,-1.5161,-1.5743,-1.653,-1.7335,-1.7878,-1.8304,-1.9003,-1.9561,-1.9935,-2.0073,-2.0203,-2.0234,-2.0578,-2.061,-2.0508,-1.9982,-1.9038,-1.8039,-1.7636,-1.691,-1.6284,-1.6346,-1.6393,-1.6711,-1.7832,-1.8253,-1.8792,-1.9925,-2.0758,-2.1527,-2.2112,-2.2747,-2.3258,-2.3255,-2.3095,-2.2591,-2.1243,-2.1056,-2.0645,-1.9469,-1.9506,-1.9626,-1.9849,-1.833,-1.731,-1.7258,-1.7449,-1.7286,-1.6764,-1.6788,-1.6574,-1.5909,-1.5342,-1.482,-1.4298,-1.35,-1.2727,-1.1943,-1.1792,-1.1808,-1.1928,-1.3065,-1.4277,1.9751,1.9071,1.8566,1.9434,2.0465,2.2005,2.5133,2.7665,2.9828,3.1525,3.2485,3.2965,3.2661,3.2649,3.1428,2.7852,2.3102,1.7568,1.0839,0.4814,-0.0195,0.0,0.0,0.0,0.0,0.0,0.0,0.0,0.0,0.0,0.0,0.0,-1.0378,-0.8803,-0.9797,-1.0484,-1.0649,-1.1477,-1.2057,-1.251,-1.3053,-1.3691,-1.4337,-1.4692,0.0,0.0,0.0,0.0,0.0,-1.7176,-1.7687,-1.8431,-1.8649,-1.9379,-2.0338,-2.0965,-2.1988,-2.295,-2.2154,-2.2469,-2.3235,-2.2933,-2.3109,-2.342,-2.3884,-2.1858,-1.9342,-1.9021,-1.8767,-1.8579,-1.8549,-1.8914,-1.9251,-1.9278,-2.0104,-2.1003,-2.1152,-2.2163,-2.3009,-2.2719,-2.3296,-2.3689,-2.3283,-2.3332,-2.3253,-2.2457,-2.2159,-2.1776,-2.1331,-2.0802,-2.0677,-2.1225,-2.0911,-2.0082,-1.8709,-1.9128,-1.8929,-1.7775,-1.7992,-1.77,-1.6735,-1.5909,-1.5342,-1.5073,-1.4093,-1.346,-1.3156,-1.2587,-1.2327,-1.2418,-1.4176,-1.6289,2.081,2.0476,2.0254,2.0932,2.2074,2.3627,2.5744,2.7869,2.9706,3.1187,3.2356,3.3071,3.292,3.2898,3.0679,2.395,2.1118,1.6691,0.0,0.0,0.0,-0.4147,-0.8733,0.0,0.0,0.0,0.0,0.0,0.0,0.0,0.0,0.0,-1.3476,-1.2318,-1.2791,-1.353,-1.4482,-1.4913,-1.5348,-1.5864,-1.5851,-1.6283,-1.7068,-1.6813,0.0,0.0,0.0,0.0,0.0,-1.9208,-1.9796,-2.0594,-2.1535,-2.2393,-2.3266,-2.4019,-2.494,-2.5757,-2.5733,-2.5844,-2.5961,-2.5957,-2.5913,-2.588,-2.6075,-2.4726,-2.3106,-2.3323,-2.3022,-2.2791,-2.3214,-2.304,-2.2762,-2.2926,-2.3282,-2.3524,-2.3386,-2.3901,-2.4339,-2.4032,-2.4269,-2.4498,-2.4531,-2.4614,-2.4477,-2.3879,-2.3821,-2.3593,-2.2726,-2.2574,-2.2519,-2.2475,-2.2347,-2.1882,-2.0955,-2.1056,-2.0648,-1.956,-1.9383,-1.861,-1.6852,-1.645,-1.5811,-1.4844,-1.4552,-1.4181,-1.3682,-1.3673,-1.4175,-1.5168,-1.6272,-1.7606,2.1695,2.1535,2.138,2.1868,2.3225,2.4789,2.6242,2.7975,2.9682,3.0867,3.1988,3.2856,3.275,3.2411,3.0173,2.4245,2.0718,1.595,0.0,0.0,0.0,-0.7636,0.0,0.0,0.0,0.0,0.0,0.0,0.0,0.0,0.0,0.0,-1.6781,-1.6658,-1.5886,-1.6071,-1.7146,-1.7632,-1.8159,-1.8803,-1.8763,-1.8982,-1.9543,0.0,0.0,0.0,0.0,0.0,0.0,-2.115,-2.175,-2.272,-2.3513,-2.434,-2.5165,-2.6061,-2.6851,-2.751,-2.7833,-2.7964,-2.8003,-2.8147,-2.8218,-2.8293,-2.8421,-2.7217,-2.5937,-2.647,-2.6219,-2.5997,-2.676,-2.6467,-2.6042,-2.6199,-2.6238,-2.6075,-2.5558,-2.5427,-2.5335,-2.502,-2.501,-2.5075,-2.5131,-2.5272,-2.5329,-2.4942,-2.4997,-2.4799,-2.4115,-2.3874,-2.3681,-2.3581,-2.3341,-2.3072,-2.2691,-2.2429,-2.1703,-2.0552,-2.0137,-1.9128,-1.7316,-1.6836,-1.6197,-1.5304,-1.5072,-1.4806,-1.4387,-1.4612,-1.5542,-1.7171,-1.8067,-1.8997,0.0,2.2432,2.2364,2.2658,2.4104,2.5789,2.6984,2.8449,0.0,3.0817,3.1744,3.2364,3.1849,3.101,2.9303,2.6314,2.0548,0.0,0.0,0.1646,0.0,0.0,0.0,0.0,0.0,0.0,0.0,0.0,0.0,0.0,0.0,0.0,0.0,-2.1327,-1.9309,-1.8407,-1.8919,-1.9869,-2.0643,-2.1301,-2.1695,-2.1888,-2.1888,0.0,0.0,0.0,0.0,0.0,0.0,-2.3119,-2.3681,-2.4688,-2.4819,-2.539,-2.632,-2.7243,-2.7908,-2.8456,-2.8867,-2.9236,-2.9558,-2.9764,-3.0226,-3.0725,-3.0987,-2.955,-2.7967,-2.8701,-2.8591,-2.8454,-2.9388,-2.9351,-2.9092,-2.902,-2.8836,-2.8453,-2.7619,-2.6879,-2.6287,-2.5679,-2.5567,-2.5466,-2.5131,-2.5495,-2.5853,-2.5715,-2.5578,-2.5522,-2.5467,-2.4696,-2.4285,-2.4513,-2.3944,-2.3638,-2.3897,-2.3283,-2.226,-2.0844,-2.0311,-1.9443,-1.8021,-1.7124,-1.6515,-1.6173,-1.5659,-1.5345,-1.5404,-1.5529,-1.6633,-1.8584,-1.9545,-2.0429,2.2757,0.0,2.4864,2.6,2.758,2.9083,0.0,3.0902,3.1681,3.2652,3.3043,3.1673,2.6615,2.6676,2.3839,1.2673,0.0,0.0,-0.2666,0.0,0.0,0.0,0.0,0.0,0.0,0.0,0.0,0.0,0.0,0.0,0.0,0.0,0.0,-2.3171,-2.3306,-2.2969,-2.2044,-2.2804,-2.3515,-2.4232,-2.435,-2.4679,-2.5194,0.0,0.0,0.0,0.0,0.0,0.0,-2.5768,-2.6153,-2.6603,-2.7185,-2.775,-2.8326,-2.897,-2.9741,-3.0566,-3.1568,-3.1842,-3.1913,-3.2876,-3.3248,-3.3548,-3.4413,-3.2889,-3.1011,-3.1765,-3.2047,-3.2264,-3.2754,-3.2378,-3.1679,-3.0943,-3.0639,-3.0153,-2.8931,-2.857,-2.8078,-2.6719,-2.644,-2.619,-2.5633,-2.566,-2.577,-2.6016,-2.5907,-2.5798,-2.577,-2.5521,-2.5218,-2.5048,-2.4573,-2.4204,-2.4073,-2.3559,-2.2647,-2.1231,-2.0709,-1.961,-1.7763,-1.7496,-1.6885,-1.5889,-1.5978,-1.6367,-1.7193,-1.7639,-1.8576,-2.0033,-2.0853,-2.146,2.4824,2.4889,2.4189,2.4884,2.6747,2.8421,2.8576,3.0738,3.2609,3.2425,3.2122,3.0241,2.4759,2.282,1.8867,0.9011,0.4157,0.0,0.0,0.0,-2.0082,0.0,0.0,0.0,0.0,0.0,0.0,0.0,0.0,0.0,0.0,0.0,0.0,0.0,-2.6216,-2.576,-2.4326,-2.5135,-2.6006,-2.6966,-2.686,-2.716,-2.7789,0.0,0.0,0.0,0.0,0.0,-2.7318,-2.7555,-2.794,-2.8454,-2.9124,-2.9682,-3.0211,-3.0542,-3.1341,-3.2298,-3.2835,-3.3424,-3.4074,-3.4852,-3.5151,-3.5321,-3.5944,-3.5593,-3.4903,-3.4491,-3.4354,-3.4482,-3.4898,-3.4461,-3.3829,-3.3367,-3.2918,-3.2217,-3.1083,-3.0453,-2.9601,-2.8051,-2.7481,-2.6971,-2.6181,-2.6096,-2.6204,-2.6394,-2.6258,-2.615,-2.6016,-2.5907,-2.5605,-2.5216,-2.4878,-2.4478,-2.4131,-2.3543,-2.2655,-2.1436,-2.0923,-1.9982,-1.846,-1.7924,-1.7266,-1.6476,-1.6968,-1.7651,-1.8498,-1.9044,-1.9991,-2.1212,-2.1605,-2.209,2.6108,2.4492,2.2306,2.379,2.5009,2.5937,2.5996,2.9086,3.1435,2.9926,2.8967,2.6935,2.2069,1.7862,1.3224,0.0,0.0,0.0,-1.6523,-2.1051,0.0,0.0,0.0,0.0,0.0,0.0,0.0,0.0,0.0,0.0,0.0,0.0,0.0,0.0,-2.8657,-2.7917,-2.6828,-2.7336,-2.8197,-2.9301,-2.9365,-2.9539,-2.9907,-2.9706,0.0,0.0,0.0,0.0,-2.8919,-2.9059,-2.95,-3.0061,-3.0608,-3.1155,-3.1677,-3.1836,-3.2614,-3.3624,-3.3549,-3.4516,-3.586,-3.623,-3.6413,-3.6536,-3.6768,-3.7735,-3.8426,-3.6967,-3.6395,-3.6317,-3.647,-3.6176,-3.5804,-3.5736,-3.5136,-3.4267,-3.3272,-3.2175,-3.0922,-2.9366,-2.8586,-2.7865,-2.6875,-2.6788,-2.6841,-2.6922,-2.6736,-2.6472,-2.6204,-2.5988,-2.5715,-2.5216,-2.4878,-2.4536,-2.4073,-2.3381,-2.2531,-2.162,-2.0993,-2.028,-1.9363,-1.8363,-1.7756,-1.7507,-1.8157,-1.8832,-1.953,-2.0152,-2.1026,-2.2192,-2.2214,-2.2549,2.1684,2.0465,2.2136,3.0458,2.8023,2.4515,2.8292,2.6745,2.4213,2.3242,2.1801,1.8259,1.0151,0.8048,0.391,0.0,0.0,0.0,0.0,0.0,0.0,0.0,0.0,0.0,0.0,0.0,0.0,0.0,0.0,0.0,0.0,0.0,0.0,0.0,0.0,-3.1356,-3.165,-3.0448,-3.0194,-3.0849,-3.1547,-3.1837,-3.1806,-3.1601,-3.1397,0.0,0.0,0.0,-3.1238,-3.1102,-3.102,-3.1029,-3.1581,-3.1865,-3.2085,-3.2531,-3.3288,-3.412,-3.4836,-3.578,-3.6789,-3.7221,-3.7432,-3.7664,-3.8442,-3.8785,-3.9061,-3.9409,-3.9822,-3.9786,-3.8212,-3.8079,-3.8033,-3.6811,-3.6104,-3.5338,-3.3968,-3.3175,-3.2111,-3.0074,-2.9265,-2.8667,-2.773,-2.7437,-2.7335,-2.7488,-2.7152,-2.6788,-2.6472,-2.6042,-2.5605,-2.5216,-2.4708,-2.4221,-2.3872,-2.3429,-2.2862,-2.2256,-2.1121,-1.9975,-1.9,-1.8626,-1.8448,-1.8586,-1.8738,-1.9409,-2.0562,-2.1175,-2.2018,-2.3113,-2.2979,-2.2971,2.9264,2.7245,2.604,3.0513,2.436,1.7789,1.9817,1.9308,1.79,1.5824,1.3531,0.9927,0.3457,-0.0269,-0.6133,-1.7356,0.0,0.0,0.0,0.0,0.0,0.0,0.0,0.0,0.0,0.0,0.0,0.0,0.0,0.0,0.0,0.0,0.0,0.0,0.0,0.0,-3.3837,-3.3507,-3.3144,-3.2804,-3.3223,-3.3373,-3.3284,-3.3331,-3.296,0.0,0.0,-3.275,-3.2855,-3.3178,-3.3172,-3.302,-3.3446,-3.3562,-3.3623,-3.432,-3.4809,-3.5279,-3.6292,-3.7136,-3.7785,-3.8214,-3.8442,-3.8654,-3.916,-3.9608,-3.9974,-4.0374,-4.0459,-4.0267,-3.9305,-3.9143,-3.8939,-3.7648,-3.7099,-3.6466,-3.4981,-3.4269,-3.3306,-3.1083,-3.0258,-2.9626,-2.8683,-2.8204,-2.7959,-2.791,-2.756,-2.71,-2.6443,-2.5906,-2.5384,-2.4991,-2.4713,-2.4268,-2.3662,-2.3591,-2.3311,-2.2585,-2.1652,-2.0917,-2.0437,-1.9932,-1.974,-1.9886,-2.0077,-2.059,-2.1425,-2.2067,-2.2527,-2.2859,-2.2657,-2.2499,3.327,3.0635,2.6784,2.5108,1.8695,1.2423,1.0941,1.0692,0.9715,0.6272,0.3375,0.0213,-0.3539,-0.9455,0.0,-2.5546,0.0,0.0,0.0,0.0,0.0,0.0,0.0,0.0,0.0,0.0,0.0,0.0,0.0,0.0,0.0,0.0,0.0,0.0,0.0,0.0,-3.5769,-3.608,-3.569,-3.4551,-3.4849,-3.4775,-3.4527,-3.4764,-3.4352,-3.3446,-3.4184,-3.4361,-3.4182,-3.4794,-3.4984,-3.4888,-3.513,-3.5119,-3.5118,-3.5854,-3.6151,-3.6315,-3.729,-3.7966,-3.8428,-3.8884,-3.9165,-3.935,-3.9502,-3.9965,-4.0514,-4.0888,-4.0607,-4.0141,-4.005,-3.9895,-3.9479,-3.838,-3.7783,-3.7147,-3.5754,-3.499,-3.4002,-3.1907,-3.1077,-3.0376,-2.9489,-2.8982,-2.8606,-2.8319,-2.7978,-2.7429,-2.6549,-2.5877,-2.53,-2.4821,-2.4655,-2.431,-2.3641,-2.3774,-2.3641,-2.3098,-2.2206,-2.1763,-2.1737,-2.1235,-2.0927,-2.0907,-2.1244,-2.1594,-2.203,-2.2443,-2.2571,-2.2414,-2.2013,-2.1837,2.3518,2.1443,1.9434,1.2612,1.2521,1.2751,0.7459,0.2422,-0.2473,-0.6965,-1.0046,-1.2419,-1.4213,-2.1149,-2.7899,-3.19,0.0,0.0,0.0,0.0,0.0,0.0,0.0,0.0,0.0,0.0,0.0,0.0,0.0,0.0,0.0,0.0,0.0,0.0,0.0,0.0,-3.8206,-3.7842,-3.6966,-3.5697,-3.6529,-3.642,-3.5317,-3.5842,-3.5613,-3.4787,-3.4808,-3.5156,-3.5577,-3.5528,-3.5742,-3.5969,-3.5941,-3.5894,-3.5932,-3.6156,-3.6492,-3.6821,-3.7358,-3.7826,-3.8296,-3.8913,-3.9219,-3.9427,-3.9626,-3.9626,-3.9915,-4.1454,-4.1274,-4.0551,-4.0458,-4.0317,-3.9912,-3.8884,-3.7967,-3.702,-3.5897,-3.4781,-3.356,-3.2161,-3.1321,-3.0683,-3.014,-2.9629,-2.9225,-2.8889,-2.8511,-2.7898,-2.699,-2.6226,-2.555,-2.4878,-2.4476,-2.419,-2.4154,-2.3677,-2.3651,-2.4062,-2.2731,-2.1892,-2.1886,-2.1801,-2.1574,-2.1275,-2.1769,-2.2051,-2.217,-2.1969,-2.2033,-2.2287,-2.1452,-2.1222,2.611,2.2668,1.8215,1.0805,0.703,0.3742,-0.1098,-0.6633,-1.1864,-1.5732,-1.8506,-2.0988,-2.3213,0.0,-3.1811,0.0,0.0,0.0,0.0,0.0,0.0,0.0,0.0,0.0,0.0,0.0,0.0,0.0,0.0,0.0,0.0,0.0,0.0,0.0,0.0,0.0,0.0,-4.0704,-4.0334,-3.9832,-3.89,-3.8018,-3.7126,-3.7903,-3.7594,-3.655,-3.7435,-3.7684,-3.761,-3.7854,-3.7978,-3.7978,-3.7485,-3.7206,-3.7042,-3.7646,-3.7485,-3.7119,-3.7927,-3.8222,-3.83,-3.8796,-3.9192,-3.9502,-3.9661,-3.9708,-3.9934,-4.1054,-4.0704,-4.0253,-4.1135,-4.0914,-4.0207,-3.924,-3.8368,-3.7535,-3.649,-3.541,-3.4273,-3.3024,-3.2194,-3.1554,-3.106,-3.036,-2.975,-2.9393,-2.8842,-2.8094,-2.7246,-2.6385,-2.5605,-2.4991,-2.415,-2.3953,-2.4612,-2.3815,-2.3507,-2.4154,-2.3121,-2.2694,-2.303,-2.2287,-2.1888,-2.1792,-2.2008,-2.2106,-2.2077,-2.1733,-2.1614,-2.1657,-2.0941,-2.0624,2.3975,1.9807,1.4283,0.7879,0.1519,-0.4458,-0.9616,-1.3873,-1.783,-2.185,-2.4426,-2.6772,-2.9236,0.0,0.0,0.0,0.0,0.0,0.0,0.0,0.0,0.0,0.0,0.0,0.0,0.0,0.0,0.0,0.0,0.0,0.0,0.0,0.0,0.0,0.0,0.0,0.0,-4.2869,-4.2838,-4.2736,-4.1564,-4.0292,-3.9083,-3.9689,-3.9339,-3.8404,-3.9406,-3.971,-3.9527,-3.9592,-3.9479,-3.9209,-3.8792,-3.8367,-3.8096,-3.8642,-3.837,-3.7866,-3.8422,-3.8618,-3.8627,-3.881,-3.9192,-3.9526,-3.967,-3.9739,-3.9974,-4.0797,-4.0373,-3.9986,-4.1318,-4.0978,-4.005,-3.9175,-3.834,-3.7517,-3.6572,-3.5615,-3.4622,-3.3726,-3.3003,-3.2329,-3.1845,-3.1055,-3.0351,-2.9793,-2.9212,-2.8511,-2.758,-2.6701,-2.5964,-2.5275,-2.4264,-2.4025,-2.4897,-2.3999,-2.3618,-2.4177,-2.3653,-2.3435,-2.367,-2.3009,-2.2455,-2.2127,-2.23,-2.2224,-2.1888,-2.131,-2.1169,-2.1391,-2.0665,-2.0414,1.4461,1.062,0.6368,0.1971,-0.3924,-1.0455,-1.7166,-1.856,-1.9998,-2.5398,-2.8047,-2.9961,-3.1873,-3.357,0.0,0.0,0.0,0.0,0.0,0.0,0.0,0.0,0.0,0.0,0.0,0.0,0.0,0.0,0.0,0.0,0.0,0.0,0.0,0.0,0.0,0.0,0.0,-4.4154,-4.4154,-4.3743,-4.4458,-4.3488,-4.1158,-4.0895,-4.0638,-4.0361,-4.0333,-4.0658,-4.1139,-4.0446,-3.9826,-3.9405,-3.9606,-3.943,-3.8981,-3.8894,-3.9033,-3.9188,-3.8616,-3.8832,-3.9319,-3.901,-3.9144,-3.9551,-3.9717,-3.9785,-3.9974,-4.0844,-4.0419,-3.992,-4.0844,-4.0335,-3.9373,-3.862,-3.7755,-3.6889,-3.6098,-3.5184,-3.445,-3.4189,-3.3633,-3.2997,-3.2396,-3.17,-3.0937,-3.014,-2.9738,-2.9106,-2.794,-2.7378,-2.6766,-2.5827,-2.4732,-2.4323,-2.4921,-2.4322,-2.3982,-2.42,-2.4284,-2.411,-2.3694,-2.3811,-2.3356,-2.2153,-2.2724,-2.2555,-2.163,-2.074,-2.0768,-2.1598,-2.0628,-2.0607,0.8947,0.4219,-0.1145,-0.5652,-1.1289,-1.6572,-2.0341,-2.1665,-2.3383,-2.7714,-2.9372,-3.0298,-3.1273,0.0,0.0,0.0,0.0,0.0,0.0,0.0,0.0,0.0,0.0,0.0,0.0,0.0,0.0,0.0,0.0,0.0,0.0,0.0,0.0,0.0,0.0,0.0,0.0,0.0,-4.7095,-4.73,-4.6716,-4.5536,-4.388,-4.3739,-4.3323,-4.2808,-4.2924,-4.2832,-4.2445,-4.2112,-4.2108,-4.2168,-4.1359,-4.1025,-4.0981,-4.0815,-3.9841,-3.8677,-3.9235,-3.9012,-3.8561,-3.881,-3.9137,-3.9452,-3.9647,-3.9845,-3.997,-4.0148,-3.964,-3.9267,-4.0041,-3.9646,-3.9098,-3.9413,-3.885,-3.8229,-3.8001,-3.7298,-3.6402,-3.5528,-3.4922,-3.4174,-3.2983,-3.2092,-3.1325,-3.0649,-3.0011,-2.9074,-2.763,-2.7348,-2.6947,-2.6153,-2.5358,-2.5012,-2.5368,-2.4754,-2.4345,-2.4418,-2.4422,-2.4378,-2.4246,-2.4137,-2.3796,-2.3141,-2.2957,-2.264,-2.2232,-2.1213,-2.1119,-2.1787,-2.0966,-2.0843,0.2386,-0.2471,-0.7422,-1.1589,-1.5443,-1.9004,-2.2262,-2.3988,-2.5704,-2.8571,-2.9633,-3.0405,-3.1495,-3.3608,0.0,0.0,0.0,0.0,0.0,0.0,0.0,0.0,0.0,0.0,0.0,0.0,0.0,0.0,0.0,0.0,0.0,0.0,0.0,0.0,0.0,0.0,0.0,0.0,0.0,-4.9094,-4.8349,-4.7575,-4.6915,-4.6126,-4.5538,-4.5274,-4.5196,-4.4742,-4.3905,-4.3683,-4.3652,-4.3652,-4.2652,-4.2326,-4.2334,-4.1929,-4.0771,-3.9438,-3.9779,-3.9337,-3.8634,-3.8817,-3.9082,-3.9401,-3.9647,-3.9845,-3.9954,-3.9911,-3.9347,-3.8915,-3.933,-3.8935,-3.8537,-3.9335,-3.9204,-3.8822,-3.8497,-3.7753,-3.7051,-3.6671,-3.5957,-3.5057,-3.3988,-3.3119,-3.2263,-3.1201,-3.0149,-2.9169,-2.8362,-2.7883,-2.7484,-2.7182,-2.6364,-2.583,-2.5787,-2.5182,-2.4778,-2.4634,-2.4778,-2.4897,-2.5075,-2.4847,-2.443,-2.3688,-2.3533,-2.3259,-2.2862,-2.1876,-2.1749,-2.2611,-2.196,-2.1917,-0.4206,-0.8474,-1.2181,-1.5707,-1.7378,-1.9226,-2.339,-2.5585,-2.7115,-2.8333,0.0,-3.0211,-3.2106,0.0,0.0,0.0,0.0,0.0,0.0,0.0,0.0,0.0,0.0,0.0,0.0,0.0,0.0,0.0,0.0,0.0,0.0,0.0,0.0,0.0,0.0,0.0,0.0,0.0,0.0,0.0,-4.9548,-4.9624,-4.9896,-4.8049,-4.7364,-4.7596,-4.7049,-4.6377,-4.5598,-4.5137,-4.4741,-4.4359,-4.3721,-4.3487,-4.338,-4.2596,-4.17,-4.0811,-4.0182,-3.9661,-3.9213,-3.8817,-3.8906,-3.9238,-3.9505,-3.964,-3.9683,-3.9747,-3.9201,-3.8594,-3.867,-3.8137,-3.7829,-3.8703,-3.8967,-3.881,-3.8169,-3.7332,-3.696,-3.7677,-3.6861,-3.5874,-3.5214,-3.46,-3.3557,-3.1792,-3.0333,-2.9561,-2.9685,-2.8858,-2.8353,-2.8584,-2.7623,-2.6739,-2.6202,-2.5819,-2.5373,-2.492,-2.5183,-2.5538,-2.5984,-2.5759,-2.5102,-2.3986,-2.4326,-2.4171,-2.3571,-2.2665,-2.2771,-2.3807,-2.3368,-2.3593,-0.5576,-0.8677,-1.2109,-1.6759,-2.0264,-2.3015,-2.4866,-2.6005,-2.695,-2.7919,-2.9026,-3.0127,0.0,0.0,0.0,0.0,0.0,0.0,0.0,0.0,0.0,0.0,0.0,0.0,0.0,0.0,0.0,0.0,0.0,0.0,0.0,0.0,0.0,0.0,0.0,0.0,-5.2741,-5.2066,-5.162,0.0,-5.0978,-5.0645,-5.0439,-4.9463,-4.889,-4.8639,-4.8448,-4.792,-4.7245,-4.6613,-4.6514,-4.6629,-4.5312,-4.4818,-4.475,-4.384,-4.2174,-4.0339,-4.0309,-3.9516,-3.8482,-3.7948,-3.8007,-3.8189,-3.7868,-3.7877,-3.8021,-3.8099,-3.7566,-3.7142,-3.7773,-3.7385,-3.7064,-3.8016,-3.8201,-3.8323,-3.8892,-3.8823,-3.8629,-3.8716,-3.8366,-3.7662,-3.6408,-3.5797,-3.4738,-3.2513,-3.1441,-3.0623,-2.9942,-2.9592,-2.9267,-2.9026,-2.8498,-2.7801,-2.7002,-2.7147,-2.6822,-2.5901,-2.5949,-2.6166,-2.6549,-2.6095,-2.5716,-2.5397,-2.4807,-2.4442,-2.4309,-2.3872,-2.3964,-2.4617,-2.4644,-2.5051,-0.7842,-1.0662,-1.3657,-1.8438,-2.1313,-2.3343,-2.4798,-2.5944,-2.7023,-2.8163,-2.9178,0.0,0.0,0.0,0.0,0.0,0.0,0.0,0.0,0.0,0.0,0.0,0.0,0.0,0.0,0.0,0.0,0.0,0.0,0.0,0.0,0.0,0.0,0.0,0.0,0.0,-5.2499,-5.1753,-5.1464,-5.1546,-5.0966,-5.078,-5.1017,-5.0682,-5.0362,-5.0125,-4.938,-4.8826,-4.8413,-4.7461,-4.7276,-4.7482,-4.6005,-4.543,-4.5326,-4.4048,-4.223,-4.042,-4.0564,-3.9361,-3.7812,-3.7698,-3.7607,-3.743,-3.7288,-3.7065,-3.7015,-3.749,-3.6514,-3.5496,-3.6332,-3.5959,-3.5469,-3.6045,-3.7084,-3.8223,-3.9133,-3.8975,-3.8823,-3.9583,-3.922,-3.8474,-3.7563,-3.615,-3.4771,-3.3624,-3.2456,-3.1682,-3.1628,-3.113,-3.063,-3.0221,-2.952,-2.8848,-2.8091,-2.7652,-2.7251,-2.6822,-2.6554,-2.6675,-2.7309,-2.7328,-2.6966,-2.6306,-2.6134,-2.586,-2.5495,-2.5596,-2.5707,-2.5929,-2.6474,-2.695,-0.9206,-1.2382,-1.5396,-1.9866,-2.1599,-2.2723,-2.4502,-2.5975,-2.7325,-2.8651,-2.9511,0.0,0.0,0.0,0.0,0.0,0.0,0.0,0.0,0.0,0.0,0.0,0.0,0.0,0.0,0.0,0.0,0.0,0.0,0.0,0.0,0.0,0.0,0.0,0.0,-5.1146,-5.1537,-5.0924,-5.083,-5.1139,-5.0667,-5.0784,-5.1505,-5.1556,-5.1607,-5.1536,-5.0365,-4.9663,-4.9352,-4.8254,-4.7766,-4.7587,-4.6391,-4.581,-4.5443,-4.3905,-4.2262,-4.0735,-4.0693,-3.9223,-3.7404,-3.7609,-3.7117,-3.6517,-3.6637,-3.6159,-3.5741,-3.6608,-3.5376,-3.4006,-3.4702,-3.4486,-3.4079,-3.4173,-3.5945,-3.7822,-3.8762,-3.8323,-3.8253,-3.9915,-3.9582,-3.8933,-3.8622,-3.6491,-3.4846,-3.4907,-3.3567,-3.2799,-3.3479,-3.2737,-3.2004,-3.1655,-3.0797,-2.9987,-2.9147,-2.8186,-2.7627,-2.7656,-2.7213,-2.7335,-2.8222,-2.8558,-2.8334,-2.7393,-2.7695,-2.7516,-2.6775,-2.7258,-2.7443,-2.743,-2.8383,-2.8846,-0.6407,-1.0759,-1.533,-1.9357,-2.1797,-2.3755,-2.5876,-2.6919,-2.7816,0.0,0.0,0.0,0.0,0.0,0.0,0.0,0.0,0.0,0.0,0.0,0.0,0.0,0.0,0.0,0.0,0.0,0.0,0.0,0.0,0.0,0.0,0.0,-4.9493,-4.9756,-4.995,0.0,-5.1663,-5.1747,-5.1675,-5.1454,-5.1279,-5.1298,-5.1505,-5.1858,-5.2005,-5.2054,-5.1934,-5.1164,-5.0001,-4.988,-4.8831,-4.7353,-4.7277,-4.6422,-4.5152,-4.4289,-4.2854,-4.1176,-4.0449,-3.9113,-3.7599,-3.6933,-3.5901,-3.4814,-3.4242,-3.3615,-3.315,-3.3393,-3.3313,-3.3159,-3.3301,-3.38,-3.426,-3.4284,-3.5106,-3.6137,-3.6974,-3.6983,-3.7333,-3.8903,-3.9371,-3.9435,-3.9227,-3.7858,-3.6681,-3.6255,-3.4896,-3.387,-3.3784,-3.3371,-3.2904,-3.2521,-3.2402,-3.1752,-3.0092,-3.0073,-2.9578,-2.8297,-2.8147,-2.8299,-2.875,-2.8933,-2.9073,-2.9395,-2.881,-2.8181,-2.7563,-2.8054,-2.8504,-2.8996,-2.9409,-3.0262,-0.8294,-1.1751,-1.5247,-1.938,-2.1616,-2.3389,-2.5618,-2.7195,-2.8562,0.0,0.0,0.0,0.0,0.0,0.0,0.0,0.0,0.0,0.0,0.0,0.0,0.0,0.0,0.0,0.0,0.0,0.0,0.0,0.0,0.0,0.0,-4.76,-4.8319,-4.8601,-4.9227,0.0,-5.0669,-5.0763,-5.0679,-5.0369,-5.1017,-5.1102,-5.0728,-5.1129,-5.1371,-5.1383,-5.1138,-5.0145,-4.8627,-4.8411,-4.756,-4.647,-4.6274,-4.5547,-4.4556,-4.3826,-4.2155,-4.0235,-3.9779,-3.8319,-3.6497,-3.5701,-3.4802,-3.3903,-3.322,-3.2553,-3.2091,-3.275,-3.2297,-3.1686,-3.2154,-3.2563,-3.296,-3.345,-3.421,-3.5033,-3.5815,-3.6378,-3.6995,-3.7982,-3.9026,-3.9519,-3.8689,-3.7877,-3.7301,-3.7181,-3.5929,-3.5123,-3.5442,-3.4759,-3.4111,-3.3771,-3.3051,-3.2075,-3.0937,-3.0209,-2.9751,-2.9571,-2.9347,-2.9399,-3.0009,-3.029,-3.0372,-3.0317,-3.0011,-2.9665,-2.9156,-3.0111,-3.0597,-3.0719,-3.1569,-3.2254,-0.9251,-1.1592,-1.3849,-1.8264,-2.069,-2.2686,-2.504,0.0,-2.8897,0.0,0.0,0.0,0.0,0.0,0.0,0.0,0.0,0.0,0.0,0.0,0.0,0.0,0.0,0.0,0.0,0.0,0.0,0.0,0.0,0.0,-4.6205,-4.7049,-4.7726,-4.8293,-4.8984,-4.959,-5.0057,-5.0171,-5.0119,-4.9923,-5.0699,-5.0712,-5.0161,-5.0378,-5.039,-5.0268,-5.0101,-4.9141,-4.7585,-4.7332,-4.6469,-4.5329,-4.5074,-4.4326,-4.3249,-4.2527,-4.0966,-3.9139,-3.8902,-3.7352,-3.5453,-3.4814,-3.394,-3.2952,-3.221,-3.1517,-3.1032,-3.157,-3.0849,-3.0095,-3.0898,-3.1264,-3.163,-3.2497,-3.3504,-3.4456,-3.5206,-3.6021,-3.6671,-3.7091,-3.8433,-3.9142,-3.8126,-3.784,-3.779,-3.7825,-3.6927,-3.64,-3.6729,-3.6174,-3.5466,-3.4829,-3.366,-3.2539,-3.165,-3.0466,-3.0005,-3.0403,-3.0173,-3.0303,-3.0943,-3.1419,-3.155,-3.1309,-3.1548,-3.1363,-3.0573,-3.1711,-3.2222,-3.2159,-3.3245,-3.3758,-0.6872,-0.8339,-1.0271,-1.4812,-1.8592,-2.1914,0.0,0.0,0.0,0.0,0.0,0.0,0.0,0.0,0.0,0.0,0.0,0.0,0.0,0.0,0.0,0.0,0.0,0.0,0.0,0.0,0.0,0.0,0.0,0.0,-4.7429,-4.753,-4.8146,-4.9402,-4.9555,-4.9884,-5.0341,-5.0819,-5.1034,-5.0999,-5.0535,-5.0332,-5.0261,-4.9901,-4.9333,-4.865,-4.9505,-4.9148,-4.7988,-4.8151,-4.6507,-4.3948,-4.4319,-4.2969,-4.0813,-4.0198,-3.9407,-3.8521,-3.77,-3.6346,-3.502,-3.4832,-3.3329,-3.1436,-3.0584,-2.9902,-2.9253,-2.8489,-2.8223,-2.8405,-2.9292,-3.0071,-3.0884,-3.1757,-3.314,-3.448,-3.5147,-3.5772,-3.6236,-3.6254,-3.743,-3.8265,-3.7873,-3.8235,-3.8392,-3.7933,-3.7998,-3.7749,-3.6911,-3.727,-3.7025,-3.5396,-3.4827,-3.3819,-3.2164,-3.1642,-3.093,-2.9998,-3.0409,-3.0869,-3.1034,-3.1686,-3.2277,-3.2856,-3.3603,-3.3128,-3.1321,-3.2134,-3.2708,-3.3117,-3.3516,-3.406,-0.8058,-0.9233,-1.0984,-1.4699,-1.776,-2.0553,-2.3268,-2.6302,0.0,0.0,0.0,0.0,0.0,0.0,0.0,0.0,0.0,0.0,0.0,0.0,0.0,0.0,0.0,0.0,0.0,0.0,0.0,0.0,0.0,0.0,-4.6692,-4.7203,-4.8049,-4.9353,-4.9872,-5.0397,-5.091,-5.1263,-5.1256,-5.0723,-5.1123,-5.1044,-5.0557,-4.9959,-4.964,-4.945,-4.8229,-4.7197,-4.6345,-4.5404,-4.4161,-4.2816,-4.2114,-4.1044,-3.9852,-3.9293,-3.7943,-3.6312,-3.6008,-3.4826,-3.3424,-3.2825,-3.1752,-3.0585,-2.9809,-2.9098,-2.8476,-2.8196,-2.815,-2.8238,-2.8495,-2.92,-3.0172,-3.1458,-3.2979,-3.4183,-3.4296,-3.5321,-3.5989,-3.5237,-3.6339,-3.7268,-3.7007,-3.7353,-3.7931,-3.8509,-3.8274,-3.8285,-3.9016,-3.8479,-3.7769,-3.7062,-3.5657,-3.4269,-3.2717,-3.1959,-3.1417,-3.1174,-3.1506,-3.1772,-3.183,-3.2269,-3.2688,-3.2778,-3.3483,-3.3547,-3.303,-3.3659,-3.4245,-3.478,-3.5109,-3.5729,-0.8391,-0.9652,-1.1756,-1.4644,-1.6837,-1.9183,-2.2888,0.0,0.0,0.0,0.0,0.0,0.0,0.0,0.0,0.0,0.0,0.0,0.0,0.0,0.0,0.0,0.0,0.0,0.0,0.0,0.0,0.0,0.0,0.0,-4.756,-4.8271,-4.9179,-5.0328,-5.0997,-5.1352,-5.1485,-5.1722,-5.162,-5.1144,-5.1467,-5.1371,-5.0796,-4.9938,-4.9559,-4.9582,-4.728,-4.6015,-4.5474,-4.3944,-4.2805,-4.1899,-4.0502,-3.9298,-3.8211,-3.7633,-3.6083,-3.4306,-3.4372,-3.3287,-3.1878,-3.1289,-3.039,-2.9352,-2.8318,-2.784,-2.7597,-2.7069,-2.712,-2.7393,-2.7619,-2.8345,-2.9358,-3.0893,-3.2019,-3.2913,-3.3557,-3.4756,-3.5493,-3.4652,-3.544,-3.6281,-3.6278,-3.693,-3.7739,-3.8652,-3.8883,-3.9292,-4.0148,-3.964,-3.8824,-3.7934,-3.6313,-3.4668,-3.3043,-3.2279,-3.1818,-3.1769,-3.1967,-3.2152,-3.2262,-3.26,-3.2925,-3.3193,-3.3754,-3.4167,-3.4176,-3.4719,-3.5253,-3.5857,-3.6232,-3.6981,0.0,0.0,0.0,-1.4362,0.0,0.0,-2.3484,0.0,0.0,0.0,0.0,0.0,0.0,0.0,0.0,0.0,0.0,0.0,0.0,0.0,0.0,0.0,0.0,0.0,0.0,0.0,0.0,0.0,0.0,-4.8282,-5.024,-5.0925,-5.1652,-5.2624,-5.2952,-5.283,-5.2174,-5.2222,-5.2282,-5.248,-5.1592,-5.1184,-5.1148,-4.9742,-4.9059,-4.8829,-4.6718,-4.5772,-4.5663,-4.4086,-4.2573,-4.1108,-3.9677,-3.7766,-3.5672,-3.5097,-3.393,-3.2651,-3.276,-3.1775,-3.0441,-3.0443,-2.9287,-2.7621,-2.6087,-2.6147,-2.6444,-2.4844,-2.4961,-2.5781,-2.667,-2.7459,-2.8427,-2.9963,-3.0138,-3.0624,-3.2902,-3.4091,-3.4655,-3.4413,-3.4872,-3.5403,-3.5721,-3.6949,-3.7972,-3.8298,-3.9957,-4.0918,-4.0172,-4.0646,-4.0274,-3.7997,-3.6798,-3.5239,-3.3125,-3.2696,-3.224,-3.1589,-3.1869,-3.2162,-3.2425,-3.2661,-3.3154,-3.4089,-3.4756,-3.5063,-3.4896,-3.5264,-3.5695,-3.6373,-3.6758,-3.786,-1.0847,0.0,0.0,0.0,0.0,0.0,0.0,0.0,0.0,0.0,0.0,0.0,0.0,0.0,0.0,0.0,0.0,0.0,0.0,0.0,0.0,0.0,0.0,0.0,0.0,0.0,0.0,0.0,0.0,-5.0705,-5.1788,-5.3159,-5.394,-5.4008,-5.4388,-5.4506,-5.4194,-5.4288,-5.4371,-5.4428,-5.3581,-5.3172,-5.3044,-5.0962,-5.0022,-4.984,-4.709,-4.559,-4.4926,-4.272,-4.1309,-4.0281,-3.8265,-3.647,-3.4936,-3.432,-3.2775,-3.0996,-3.1133,-3.0114,-2.8767,-2.8776,-2.7646,-2.6197,-2.5722,-2.4883,-2.4118,-2.4274,-2.4471,-2.4994,-2.6503,-2.694,-2.7275,-2.8214,-2.9188,-2.999,-3.0355,-3.1905,-3.3375,-3.3919,-3.4458,-3.498,-3.5571,-3.6541,-3.7665,-3.8766,-3.9915,-4.0812,-4.1384,-4.1288,-4.0667,-3.9305,-3.7645,-3.5975,-3.4349,-3.3855,-3.331,-3.2808,-3.3325,-3.3359,-3.2723,-3.3206,-3.3532,-3.3581,-3.4789,-3.5618,-3.5871,-3.587,-3.6325,-3.7307,-3.909,-4.0263,-1.3914,-1.4536,-1.586,0.0,0.0,0.0,-2.01,-2.1397,0.0,0.0,0.0,0.0,0.0,0.0,0.0,0.0,0.0,0.0,0.0,0.0,0.0,0.0,0.0,0.0,0.0,0.0,0.0,0.0,-5.1553,-5.2968,-5.4298,-5.533,-5.5752,-5.5567,-5.5789,-5.5733,-5.535,-5.5268,-5.535,-5.544,-5.4546,-5.4054,-5.3927,-5.1615,-5.0519,-5.0336,-4.7352,-4.5585,-4.4626,-4.202,-4.0452,-3.9517,-3.7177,-3.5198,-3.3524,-3.2572,-3.0744,-2.8718,-2.8877,-2.786,-2.6508,-2.6518,-2.5613,-2.4448,-2.4061,-2.3478,-2.2926,-2.3047,-2.34,-2.404,-2.546,-2.5406,-2.5258,-2.6244,-2.7222,-2.811,-2.8824,-3.0355,-3.1983,-3.3323,-3.3966,-3.4699,-3.5829,-3.6943,-3.8077,-3.9306,-4.0656,-4.1673,-4.2022,-4.1847,-4.1119,-3.9765,-3.837,-3.6968,-3.5483,-3.4786,-3.4375,-3.402,-3.4164,-3.4123,-3.3465,-3.3956,-3.4224,-3.4183,-3.5271,-3.6114,-3.6818,-3.6849,-3.74,-3.8396,-3.9955,-4.0919,-1.7244,-1.802,-1.9729,0.0,0.0,0.0,-2.2591,-2.2636,-2.2736,0.0,0.0,0.0,0.0,0.0,0.0,0.0,0.0,0.0,0.0,0.0,0.0,0.0,0.0,0.0,0.0,0.0,0.0,-5.1839,-5.323,-5.5022,-5.7228,-5.7339,-5.7297,-5.7125,-5.7125,-5.6793,-5.6086,-5.5831,-5.5831,-5.6043,-5.4906,-5.4334,-5.4261,-5.1899,-5.0688,-5.0314,-4.7535,-4.5716,-4.4465,-4.1762,-3.9917,-3.8599,-3.6186,-3.3911,-3.1789,-3.0386,-2.8389,-2.6397,-2.6524,-2.5498,-2.4136,-2.4035,-2.3506,-2.2686,-2.174,-2.1912,-2.2323,-2.1597,-2.2094,-2.3082,-2.3945,-2.3469,-2.3079,-2.4357,-2.4965,-2.5784,-2.7815,-2.9298,-3.08,-3.2719,-3.3586,-3.4553,-3.6301,-3.7776,-3.8961,-3.9817,-4.1661,-4.2789,-4.2308,-4.2197,-4.1531,-3.9936,-3.9009,-3.7987,-3.6785,-3.5999,-3.5583,-3.5468,-3.5118,-3.4844,-3.4653,-3.4861,-3.5173,-3.5519,-3.6155,-3.6963,-3.7935,-3.8308,-3.8893,-3.9658,-4.0198,-4.0895,0.0,0.0,0.0,0.0,0.0,0.0,-2.1541,-2.163,-2.2375,0.0,0.0,0.0,0.0,0.0,0.0,0.0,0.0,0.0,0.0,0.0,0.0,0.0,0.0,0.0,0.0,0.0,-5.2322,-5.2433,-5.485,-5.7073,-5.8802,-5.8839,-5.8723,-5.8405,-5.8396,-5.8238,-5.7962,-5.7655,-5.7565,-5.77,-5.6095,-5.5265,-5.5066,-5.2201,-5.0478,-4.9669,-4.7488,-4.535,-4.3252,-4.1472,-3.9401,-3.7094,-3.466,-3.239,-3.0322,-2.9391,-2.7561,-2.5543,-2.5618,-2.4606,-2.3158,-2.2508,-2.2109,-2.1698,-2.0754,-2.0411,-2.0515,-2.1089,-2.2007,-2.2858,-2.3111,-2.2896,-2.2825,-2.3486,-2.4336,-2.5285,-2.6489,-2.8673,-3.0936,-3.253,-3.3842,-3.5152,-3.6498,-3.8111,-3.9425,-4.0221,-4.1271,-4.2076,-4.2388,-4.1885,-4.1466,-4.1443,-3.992,-3.8946,-3.881,-3.8456,-3.8103,-3.7764,-3.7877,-3.7464,-3.6081,-3.6647,-3.6726,-3.6134,-3.7926,-3.9371,-4.0404,-4.0134,-4.0237,-4.0745,-4.1678,-4.2676,0.0,0.0,0.0,-2.678,0.0,0.0,0.0,-2.4148,-2.4015,-2.4955,0.0,0.0,0.0,0.0,0.0,0.0,0.0,0.0,0.0,0.0,0.0,0.0,0.0,0.0,0.0,0.0,-5.3661,-5.5183,-5.6968,-5.8635,-6.0207,-6.0594,-6.0416,-5.9777,-5.9993,-5.9868,-5.9292,-5.8984,-5.885,-5.8858,-5.6654,-5.5574,-5.5375,-5.2316,-5.0446,-4.9564,-4.7107,-4.4655,-4.2305,-4.0428,-3.7928,-3.5141,-3.3423,-3.1336,-2.9156,-2.749,-2.5664,-2.3967,-2.3634,-2.243,-2.0975,-2.057,-2.0069,-1.9488,-1.8955,-1.8554,-1.8566,-1.9926,-2.0154,-2.0346,-2.1783,-2.1432,-2.1041,-2.23,-2.3309,-2.4324,-2.5616,-2.798,-3.0296,-3.1888,-3.382,-3.5695,-3.7336,-3.8459,-3.9691,-4.101,-4.1843,-4.2462,-4.2871,-4.2359,-4.1965,-4.2123,-4.0997,-4.0452,-4.0774,-4.0419,-3.997,-3.9801,-3.9675,-3.912,-3.8049,-3.8402,-3.8394,-3.7945,-3.9122,-4.0041,-4.0737,-4.1059,-4.1301,-4.1615,-4.2276,-4.291,0.0,0.0,0.0,0.0,0.0,-2.9228,0.0,0.0,0.0,-2.758,0.0,0.0,0.0,0.0,0.0,0.0,0.0,0.0,0.0,0.0,0.0,0.0,0.0,0.0,0.0,0.0,-5.4133,-5.7572,-5.7952,-5.8956,-6.1056,-6.1723,-6.1788,-6.1087,-6.1431,-6.1235,-6.0394,-5.9869,-5.9656,-5.962,-5.6927,-5.5544,-5.5331,-5.2136,-5.0228,-4.927,-4.6456,-4.3905,-4.1567,-3.9278,-3.6498,-3.358,-3.226,-3.0409,-2.8169,-2.5665,-2.3873,-2.2527,-2.1644,-2.0365,-1.9025,-1.8545,-1.7779,-1.7048,-1.7141,-1.6941,-1.7008,-1.8374,-1.798,-1.7742,-2.0235,-1.9803,-1.9252,-2.1266,-2.2386,-2.3441,-2.5203,-2.7491,-2.9827,-3.163,-3.3868,-3.602,-3.7994,-3.8937,-4.0034,-4.1852,-4.2544,-4.2937,-4.338,-4.2901,-4.2514,-4.2641,-4.2187,-4.2121,-4.2883,-4.2411,-4.2119,-4.2054,-4.1558,-4.0977,-4.0367,-4.0175,-4.0158,-4.0193,-4.0465,-4.0658,-4.0771,-4.1839,-4.2276,-4.2195,-4.244,-4.2767,0.0,0.0,0.0,0.0,-3.4955,0.0,0.0,0.0,-2.7618,-2.5626,0.0,0.0,0.0,0.0,0.0,0.0,0.0,0.0,0.0,0.0,0.0,0.0,0.0,0.0,0.0,0.0,0.0,-5.6936,-5.5864,-5.6673,-6.0482,-6.1305,-6.1835,-6.226,-6.2029,-6.1732,-6.1422,-6.0301,-5.9789,-5.9752,-5.7094,-5.5423,-5.4695,-5.1411,-4.9232,-4.7917,-4.5581,-4.3262,-4.0915,-3.8643,-3.6141,-3.3559,-3.1104,-2.9115,-2.7348,-2.4841,-2.3381,-2.2401,-2.0864,-1.979,-1.8743,-1.648,-1.5349,-1.5139,-1.6123,-1.6402,-1.6375,-1.6518,-1.6778,-1.7331,-1.86,-1.8788,-1.9134,-2.1138,-2.219,-2.3323,-2.5378,-2.7745,-3.0256,-3.3011,-3.4523,-3.6011,-3.7838,-3.9497,-4.0925,-4.2108,-4.2412,-4.2808,-4.3634,-4.306,-4.2934,-4.3745,-4.3705,-4.4037,-4.5072,-4.5217,-4.5317,-4.5677,-4.4719,-4.3781,-4.2944,-4.2436,-4.2244,-4.2303,-4.2982,-4.2982,-4.2303,-4.3189,-4.3229,-4.2367,-4.2554,-4.3204,0.0,0.0,0.0,0.0,0.0,0.0,-3.1637,0.0,-3.005,0.0,0.0,0.0,0.0,0.0,0.0,0.0,0.0,0.0,0.0,0.0,0.0,0.0,0.0,0.0,0.0,0.0,0.0,0.0,0.0,-5.7505,-6.0691,-6.2373,-6.3302,-6.3421,-6.3524,-6.3201,-6.2403,-6.1209,-6.0358,-5.9789,-5.71,-5.5212,-5.3883,-5.1155,-4.8859,-4.6908,-4.472,-4.2159,-3.9482,-3.7601,-3.5361,-3.2847,-3.0257,-2.8548,-2.7186,-2.417,-2.2875,-2.2314,-2.0227,-1.8667,-1.7112,-1.4362,-1.3211,-1.2993,-1.3074,-1.3125,-1.3225,-1.3798,-1.4255,-1.4935,-1.6633,-1.7457,-1.8275,-2.0218,-2.1454,-2.2946,-2.5575,-2.7901,-3.0323,-3.3108,-3.5369,-3.7314,-3.878,-3.9686,-4.0984,-4.3044,-4.3271,-4.3579,-4.4721,-4.4569,-4.459,-4.5167,-4.5493,-4.5892,-4.6819,-4.6735,-4.6709,-4.6707,-4.5565,-4.4775,-4.4566,-4.3748,-4.3291,-4.3402,-4.3512,-4.3409,-4.3069,-4.3092,-4.3158,-4.3256,-4.3074,-4.3341,-4.0554,0.0,0.0,0.0,0.0,0.0,0.0,0.0,0.0,0.0,0.0,0.0,0.0,0.0,0.0,0.0,0.0,0.0,0.0,0.0,0.0,0.0,0.0,0.0,0.0,0.0,0.0,0.0,-5.5372,0.0,-6.0965,-6.2836,-6.4026,-6.4527,-6.4742,-6.4289,-6.3163,-6.1983,-6.0799,-5.9547,-5.7159,-5.504,-5.3191,-5.0824,-4.841,-4.6115,-4.3652,-4.1079,-3.8466,-3.6445,-3.4314,-3.2003,-2.9483,-2.7832,-2.654,-2.36,-2.2228,-2.1578,-1.9381,-1.7219,-1.5034,-1.2802,-1.1755,-1.1234,-1.0787,-1.0519,-1.0483,-1.1217,-1.1728,-1.2592,-1.469,-1.6034,-1.7369,-1.9423,-2.0906,-2.2656,-2.547,-2.7719,-3.0099,-3.3035,-3.5878,-3.8292,-3.9765,-4.0412,-4.1549,-4.3789,-4.4138,-4.4466,-4.5454,-4.5957,-4.6166,-4.6279,-4.7079,-4.7738,-4.7825,-4.7981,-4.7817,-4.7281,-4.6203,-4.5496,-4.5483,-4.4743,-4.4203,-4.3953,-4.4067,-4.3834,-4.3441,-4.3205,-4.3152,-4.3335,-4.3051,-4.3067,0.0,0.0,0.0,-3.9157,0.0,0.0,0.0,0.0,-3.4063,0.0,0.0,0.0,0.0,0.0,0.0,-3.263,0.0,0.0,0.0,0.0,0.0,0.0,0.0,0.0,0.0,0.0,0.0,0.0,-5.2771,0.0,-6.0955,-6.1995,-6.3397,-6.5667,-6.5446,-6.4731,-6.36,-6.2445,-6.0905,-5.9022,-5.7183,-5.4983,-5.2568,-5.0043,-4.7727,-4.5439,-4.241,-4.0117,-3.8369,-3.5265,-3.2939,-3.1086,-2.8608,-2.6578,-2.4879,-2.3132,-2.1483,-1.9859,-1.8275,-1.5491,-1.2559,-1.2211,-1.1158,-1.0101,-1.0268,-0.9766,-0.9156,-0.92,-0.9715,-1.0749,-1.2831,-1.4656,-1.6592,-1.9123,-2.0776,-2.2439,-2.4883,-2.7035,-2.9575,-3.2976,-3.5722,-3.8222,-4.0554,-4.2077,-4.3129,-4.3812,-4.4862,-4.5548,-4.5548,-4.6778,-4.7276,-4.6483,-4.835,-4.9223,-4.7995,-4.9023,-4.9223,-4.8024,-4.7309,-4.649,-4.5324,-4.5595,-4.5238,-4.4157,-4.5074,-4.4837,-4.3407,-4.395,-4.3558,-4.2157,-4.215,-4.2583,0.0,0.0,-4.5954,-4.1542,0.0,0.0,0.0,0.0,0.0,0.0,0.0,0.0,0.0,0.0,0.0,-3.547,0.0,0.0,0.0,0.0,0.0,0.0,0.0,0.0,0.0,0.0,0.0,-5.3013,-5.4086,-5.6597,0.0,-6.3715,-6.5547,-6.6746,-6.6485,-6.6017,-6.5399,-6.3156,-6.1093,-5.9178,-5.7379,-5.4876,-5.1822,-4.9852,-4.7388,-4.452,-4.2032,-3.9754,-3.7595,-3.4944,-3.3173,-3.1841,-2.8798,-2.6553,-2.4753,-2.2582,-2.1051,-1.9619,-1.6352,-1.4057,-1.2287,-1.0854,-0.95,-0.8336,-0.7919,-0.7145,-0.6511,-0.6882,-0.7658,-0.8718,-1.0403,-1.2393,-1.4537,-1.6993,-1.89,-2.114,-2.4823,-2.7089,-2.9493,-3.3033,-3.61,-3.8867,-4.1056,-4.3055,-4.453,-4.5084,-4.5345,-4.5747,-4.6587,-4.7721,-4.8264,-4.7742,-4.878,-4.9246,-4.8618,-4.8324,-4.7999,-4.7995,-4.665,-4.5881,-4.6011,-4.572,-4.5331,-4.4824,-4.5103,-4.4859,-4.4002,-4.3604,-4.3213,-4.2721,-4.1879,-4.185,-4.5947,-4.6488,0.0,0.0,-4.1905,0.0,-3.6717,0.0,0.0,0.0,0.0,0.0,0.0,0.0,0.0,-3.7804,-3.7856,0.0,0.0,-3.8194,0.0,0.0,0.0,0.0,0.0,0.0,-5.0117,-5.2951,-5.4801,-5.7575,0.0,0.0,-6.6439,-6.7386,-6.7162,-6.6573,-6.5681,-6.3155,-6.0657,-5.8151,-5.6587,-5.4048,-5.0658,-4.928,-4.6887,-4.3726,-4.1443,-3.9278,-3.7141,-3.4471,-3.2889,-3.1825,-2.8774,-2.6338,-2.4321,-2.2168,-2.0116,-1.7884,-1.4656,-1.2889,-1.1757,-1.0039,-0.845,-0.7066,-0.6344,-0.5085,-0.4066,-0.4692,-0.5458,-0.6429,-0.7889,-1.0231,-1.292,-1.5576,-1.7759,-2.0299,-2.4447,-2.677,-2.9217,-3.2917,-3.6107,-3.8947,-4.1063,-4.3286,-4.5044,-4.5831,-4.606,-4.6415,-4.7344,-4.8267,-4.8826,-4.8518,-4.8973,-4.8952,-4.8236,-4.704,-4.6516,-4.6912,-4.5636,-4.508,-4.5497,-4.5228,-4.4928,-4.4487,-4.4864,-4.4639,-4.3874,-4.3271,-4.2874,-4.2629,-4.1544,-4.1119]},{"header":{"parameterUnit":"m.s-1","parameterCategory":1,"la1":30.6,"la2":29.2853,"lo1":-89.7004,"lo2":-87.6739,"dy":0.0162,"dx":0.0183,"nx":112,"ny":82,"refTime":"2023-05-07T00:00:00:Z","depth":0,"parameterNumber":3,"parameterNumberName":"V-component_of_WINDS"},"data":[0.0,0.0,0.0,0.0,0.0,0.0,0.0,0.0,0.0,0.0,0.0,0.0,0.0,0.0,0.0,0.0,0.0,0.0,0.0,0.0,0.0,0.0,0.0,0.0,0.0,0.0,0.0,0.0,0.0,0.0,0.0,0.0,0.0,0.0,0.0,0.0,0.0,0.0,0.0,0.0,0.0,0.0,0.0,0.0,0.0,0.0,0.0,0.0,0.0,0.0,0.0,0.0,0.0,0.0,0.0,0.0,0.0,0.0,0.0,0.0,0.0,0.0,0.0,0.0,0.0,0.0,0.0,0.0,0.0,0.0,0.0,0.0,0.0,0.0,0.0,0.0,0.0,0.0,0.0,0.0,0.0,0.0,0.0,0.0,0.0,0.0,0.0,0.0,0.0,0.0,0.0,-0.725,-0.3025,0.0976,0.3884,0.6101,0.7537,0.797,0.0,0.0,0.0,0.0,0.0,0.0,0.0,0.0,0.0,0.0,0.0,0.0,0.0,0.0,0.0,0.0,0.0,0.0,0.0,0.0,0.0,0.0,0.0,0.0,0.0,0.0,0.0,0.0,0.0,0.0,0.0,0.0,0.0,0.0,0.0,0.0,0.0,0.0,0.0,0.0,0.0,0.0,0.0,0.0,0.0,0.0,0.0,0.0,0.0,0.0,0.0,0.0,0.0,0.0,0.0,0.0,0.0,0.0,0.0,0.0,0.0,0.0,0.0,0.0,0.0,0.0,0.0,0.0,0.0,0.0,0.0,0.0,0.0,0.0,0.0,0.0,0.0,0.0,0.0,0.0,0.0,0.0,0.0,0.0,0.0,0.0,0.0,0.0,0.0,0.0,0.0,0.0,0.0,0.0,0.0,0.0,0.0,0.0,0.0,0.0,0.0,0.0,0.0,0.0,-0.364,-0.3081,0.0539,0.3408,0.4665,0.7285,0.8746,0.8522,0.0,0.0,0.0,0.0,0.0,0.0,0.0,0.0,0.0,0.0,0.0,0.0,0.0,0.0,0.0,0.0,0.0,0.0,0.0,0.0,0.0,0.0,0.0,0.0,0.0,0.0,0.0,0.0,0.0,0.0,0.0,0.0,0.0,0.0,0.0,0.0,0.0,0.0,0.0,0.0,0.0,0.0,0.0,0.0,0.0,0.0,0.0,0.0,0.0,0.0,0.0,0.0,0.0,0.0,0.0,0.0,0.0,0.0,0.0,0.0,0.0,0.0,0.0,0.0,0.0,0.0,0.0,0.0,0.0,0.0,0.0,0.0,0.0,0.0,0.0,0.0,0.0,0.0,0.0,0.0,0.0,0.0,0.0,0.0,0.0,0.0,0.0,0.0,0.0,0.0,0.0,0.0,0.0,0.0,0.0,0.0,0.0,0.0,0.0,0.0,0.0,0.0,0.0,-0.127,-0.0548,0.0593,0.2896,0.501,0.6622,0.8238,0.8898,0.8247,0.6172,0.0,0.0,0.0,0.0,0.0,0.0,0.0,0.0,0.0,0.0,0.0,0.0,0.0,0.0,0.0,0.0,0.0,0.0,0.0,0.0,0.0,0.0,0.0,0.0,0.0,0.0,0.0,0.0,0.0,0.0,0.0,0.0,0.0,0.0,0.0,0.0,0.0,0.0,0.0,0.0,0.0,0.0,0.0,0.0,0.0,0.0,0.0,0.0,0.0,0.0,0.0,0.0,0.0,0.0,0.0,0.0,0.0,0.0,0.0,0.0,0.0,0.0,0.0,0.0,0.0,0.0,0.0,0.0,0.0,0.0,0.0,0.0,0.0,0.0,0.0,0.0,0.0,0.0,0.0,0.0,0.0,0.0,0.0,0.0,0.0,0.0,0.0,0.0,0.0,0.0,0.0,0.0,0.0,0.0,0.0,0.0,0.0,0.0,0.0,0.0,0.0,0.0,0.1101,0.1858,0.3444,0.4645,0.6098,0.7983,0.8439,0.8366,0.7767,0.5746,0.0,0.0,0.0,0.0,0.0,0.0,0.0,0.0,0.0,0.0,0.0,0.0,0.0,0.0,0.0,0.0,0.0,0.0,0.0,0.0,0.0,0.0,0.0,0.0,0.0,0.0,0.0,0.0,0.0,0.0,0.0,0.0,0.0,0.0,0.0,0.0,0.0,0.0,0.0,0.0,0.0,0.0,0.0,0.0,0.0,0.0,0.0,0.0,0.0,0.0,0.0,0.0,0.0,0.0,0.0,0.0,0.0,0.0,0.0,0.0,0.0,0.0,0.0,0.0,0.0,0.0,0.0,0.0,0.0,0.0,0.0,0.0,0.0,0.0,0.0,0.0,0.0,0.0,0.0,0.0,0.0,0.0,0.0,0.0,0.0,0.0,0.0,0.0,0.0,0.0,0.0,0.0,0.0,0.0,0.0,0.0,0.0,0.0,0.0,0.0,0.0,0.0,0.2954,0.3223,0.4959,0.5844,0.6661,0.7562,0.7408,0.7246,0.7256,0.5127,0.0,0.0,0.0,0.0,0.0,0.0,0.0,0.0,0.0,0.0,0.0,0.0,0.0,0.0,0.0,0.0,0.0,0.0,0.0,0.0,0.0,0.0,0.0,0.0,0.0,0.0,0.0,0.0,0.0,0.0,0.0,0.0,0.0,0.0,0.0,0.0,0.0,0.0,0.0,0.0,0.0,0.0,0.0,0.0,0.0,0.0,0.0,0.0,0.0,0.0,0.0,0.0,0.0,0.0,0.0,0.0,0.0,0.0,0.0,0.0,0.0,0.0,0.0,0.0,0.0,0.0,0.0,0.0,0.0,0.0,0.0,0.0,0.0,0.0,0.0,0.0,0.0,0.0,0.0,0.0,0.0,0.0,0.0,0.0,0.0,0.0,0.0,0.0,0.0,0.0,0.0,0.0,0.0,0.0,0.0,0.0,0.0,0.0,0.0,0.0,0.0,0.0,0.4812,0.4683,0.0,0.5884,0.6063,0.6559,0.6681,0.6497,0.5972,0.0,0.0,0.0,0.0,0.0,0.0,0.0,0.0,0.0,0.0,0.0,0.0,0.0,0.0,0.0,0.0,0.0,0.0,0.0,0.0,0.0,0.0,0.0,0.0,0.0,0.0,0.0,0.0,0.0,0.0,0.0,0.0,0.0,0.0,0.0,0.0,0.0,0.0,0.0,0.0,0.0,0.0,0.0,0.0,0.0,0.0,0.0,0.0,0.0,0.0,0.0,0.0,0.0,0.0,0.0,0.0,0.0,0.0,0.0,0.0,0.0,0.0,0.0,0.0,0.0,0.0,0.0,0.0,0.0,0.0,0.0,0.0,0.0,0.0,0.0,0.0,0.0,0.0,0.0,0.0,0.0,0.0,0.0,0.0,0.0,0.0,0.0,0.0,0.0,0.0,0.0,0.0,0.0,0.0,0.0,0.0,0.0,0.0,0.0,0.0,0.0,0.0,0.6377,0.5568,0.5166,0.0,0.509,0.4835,0.5165,0.5218,0.5117,0.4841,0.0,0.0,0.0,0.0,0.0,0.0,0.0,0.0,0.0,0.0,0.0,0.0,0.0,0.0,0.0,0.0,0.0,0.0,0.0,0.0,0.0,0.0,0.0,0.0,0.0,0.0,0.0,0.0,0.0,0.0,0.0,0.0,0.0,0.0,0.0,0.0,0.0,0.0,0.0,0.0,0.0,0.0,0.0,0.0,0.0,0.0,0.0,0.0,0.0,0.0,0.0,0.0,0.0,0.0,0.0,0.0,0.0,0.0,0.0,0.0,0.0,0.0,0.0,0.0,0.0,0.0,0.0,0.0,0.0,0.0,0.0,0.0,0.0,0.0,0.0,0.0,0.0,0.0,0.0,0.0,0.0,0.0,0.0,0.0,0.0,0.0,0.0,0.0,0.0,0.0,0.0,0.0,0.0,0.0,0.0,0.0,0.0,0.0,0.0,0.0,0.0,0.0,0.601,0.5115,0.4414,0.4274,0.3474,0.3104,0.3412,0.2859,0.2899,0.0,0.0,0.0,0.0,0.0,0.0,0.0,0.0,0.0,0.0,0.0,0.0,0.0,0.0,0.0,0.0,0.0,0.0,0.0,0.0,0.0,0.0,0.0,0.0,0.0,0.0,0.0,0.0,0.0,0.0,0.0,0.0,0.0,0.0,0.0,0.0,0.0,0.0,0.0,0.0,0.0,0.0,0.0,0.0,0.0,0.0,0.0,0.0,0.0,0.0,0.0,0.0,0.0,0.0,0.0,0.0,0.0,0.0,0.0,0.0,0.0,0.0,0.0,0.0,0.0,0.0,0.0,0.0,0.0,0.0,0.0,0.0,0.0,0.0,0.0,0.0,0.0,0.0,0.0,0.0,0.0,0.0,0.0,0.0,0.0,0.0,0.0,0.0,0.0,0.0,0.0,0.0,0.0,0.0,0.0,0.0,0.0,0.0,0.0,0.0,0.0,0.0,0.0,0.5504,0.4178,0.3042,0.2399,0.1428,0.0724,0.0496,0.0586,0.091,0.1496,0.0,0.0,0.0,0.0,0.0,0.0,0.0,0.0,0.0,0.0,0.0,0.0,0.0,0.0,0.0,0.0,0.0,0.0,0.0,0.0,0.0,0.0,0.0,0.0,0.0,0.0,0.0,0.0,0.0,0.0,0.0,0.0,0.0,0.0,0.0,0.0,0.0,0.0,0.0,0.0,0.0,0.0,0.0,0.0,0.0,0.0,0.0,0.0,0.0,0.0,0.0,0.0,0.0,0.0,0.0,0.0,0.0,0.0,0.0,0.0,0.0,0.0,0.0,0.0,0.0,0.0,0.0,0.0,0.0,0.0,0.0,0.0,0.0,0.0,0.0,0.0,0.0,0.0,0.0,0.0,0.0,0.0,0.0,0.0,0.0,0.0,0.0,0.0,0.0,0.0,0.0,0.0,0.0,0.0,0.0,0.0,0.0,0.0,0.0,0.0,0.0,0.0,0.4125,0.2599,0.1023,-0.0717,-0.1705,-0.2445,-0.2919,-0.2433,-0.1764,-0.0986,0.0,0.0,0.0,0.0,0.0,0.0,0.0,0.0,0.0,0.0,0.0,0.0,0.0,0.0,0.0,0.0,0.0,0.0,0.0,0.0,0.0,0.0,0.0,0.0,0.0,0.0,0.0,0.0,0.0,0.0,0.0,0.0,0.0,0.0,0.0,0.0,0.0,0.0,0.0,0.0,0.0,0.0,0.0,0.0,0.0,0.0,0.0,0.0,0.0,0.0,0.0,0.0,0.0,0.0,0.0,0.0,0.0,0.0,0.0,0.0,0.0,0.0,0.0,0.0,0.0,0.0,0.0,0.0,0.0,0.0,0.0,0.0,0.0,0.0,0.0,0.0,0.0,0.0,0.0,0.0,0.0,0.0,0.0,0.0,0.0,0.0,0.0,0.0,0.0,0.0,0.0,0.0,0.0,0.0,0.0,0.0,0.0,0.0,0.0,0.0,0.0,0.0,0.2165,0.0652,-0.1365,-0.445,-0.5346,-0.5961,-0.6487,-0.5866,-0.4919,-0.3677,0.0,0.0,0.0,0.0,0.0,0.0,0.0,0.0,0.0,0.0,0.0,0.0,0.0,0.0,0.0,0.0,0.0,0.0,0.0,0.0,0.0,0.0,0.0,0.0,0.0,0.0,0.0,0.0,0.0,0.0,0.0,0.0,0.0,0.0,0.0,0.0,0.0,0.0,0.0,0.0,0.0,0.0,0.0,0.0,0.0,0.0,0.0,0.0,0.0,0.0,0.0,0.0,0.0,0.0,0.0,0.0,0.0,0.0,0.0,0.0,2.2477,0.0,0.0,0.0,0.0,0.0,0.0,0.0,0.0,0.0,0.0,0.0,0.0,0.0,0.0,0.0,0.0,0.0,0.0,0.0,0.0,0.0,0.0,0.0,0.0,0.0,0.0,0.0,0.0,0.0,0.0,0.0,0.0,0.0,0.0,0.0,0.0,0.0,0.0,0.0,0.0,0.0,0.0904,-0.0716,-0.2932,-0.6473,-0.7297,-0.7983,-0.8874,-0.8381,-0.7807,-0.7373,0.0,0.0,0.0,0.0,0.0,0.0,0.0,0.0,0.0,0.0,0.0,0.0,0.0,0.0,0.0,0.0,0.0,0.0,0.0,0.0,0.0,0.0,0.0,0.0,0.0,0.0,0.0,0.0,0.0,0.0,0.0,0.0,0.0,0.0,0.0,0.0,0.0,0.0,0.0,0.0,0.0,0.0,0.0,0.0,0.0,0.0,0.0,0.0,0.0,0.0,0.0,0.0,0.0,0.0,0.0,0.0,0.0,0.0,0.0,0.0,0.0,2.329,0.0,0.0,0.0,0.0,0.0,0.0,0.0,0.0,0.0,0.0,0.0,0.0,0.0,0.0,0.0,0.0,0.0,0.0,0.0,0.0,0.0,0.0,0.0,0.0,0.0,0.0,0.0,0.0,0.0,0.0,0.0,0.0,0.0,0.0,0.0,0.0,0.0,0.0,0.0,0.0,-0.0319,-0.2366,-0.4913,-0.8689,-0.9861,-1.0674,-1.1403,-1.0878,-1.0281,-0.9833,-0.8738,0.0,0.0,0.0,0.0,0.0,0.0,0.0,0.0,0.0,0.0,0.0,0.0,0.0,0.0,0.0,0.0,0.0,0.0,0.0,0.0,0.0,0.0,0.0,0.0,0.0,0.0,0.0,0.0,0.0,0.0,0.0,0.0,0.0,0.0,0.0,0.0,0.0,0.0,0.0,0.0,0.0,0.0,0.0,0.0,0.0,0.0,0.0,0.0,0.0,0.0,0.0,0.0,0.0,0.0,0.0,2.2755,2.4725,2.6246,2.7231,2.5653,2.4777,2.4237,0.0,0.0,0.0,0.0,0.0,0.0,0.0,0.0,0.0,0.0,0.0,0.0,0.0,0.0,0.0,0.0,0.0,0.0,0.0,0.0,0.0,0.0,0.0,0.0,0.0,0.1809,0.2408,0.0,0.0,0.0,0.0,0.0,0.0,0.0,0.0,0.0,0.0,0.0,0.0,-0.1175,-0.3527,-0.6324,-1.0078,-1.1675,-1.2723,-1.3361,-1.2926,-1.2299,-1.1636,-1.0367,-0.9081,0.0,0.0,0.0,0.0,0.0,0.0,0.0,0.0,0.0,0.0,0.0,0.0,0.0,0.0,0.0,0.0,0.0,0.0,0.0,0.0,0.0,0.0,0.0,0.0,0.0,0.0,0.0,0.0,0.0,0.0,0.0,0.0,3.4332,3.4999,0.0,0.0,0.0,0.0,0.0,0.0,0.0,0.0,0.0,0.0,0.0,0.0,0.0,0.0,2.5248,2.436,2.4246,2.495,2.4989,2.5817,2.7332,2.7409,2.7735,2.81,2.7543,0.0,2.5286,2.3582,0.0,0.0,0.0,0.0,0.0,0.0,0.0,0.0,0.0,0.0,0.0,0.0,0.0,0.0,0.0,0.0,0.0,0.0,0.0,0.0,0.0,0.0,0.1609,0.0937,0.1605,0.254,0.0,0.3611,0.4263,0.4836,0.0,0.0,0.0,0.0,0.0,0.0,0.0,0.0,-0.1013,-0.2937,-0.5373,-0.8797,-1.0613,-1.2066,-1.3296,-1.3618,-1.3609,-1.3121,-1.2058,-1.0861,-0.9533,-0.7885,0.0,0.0,0.0,0.0,0.0,0.0,0.0,0.0,0.0,0.0,0.0,0.0,0.0,0.0,0.0,0.0,0.0,0.0,0.0,0.0,0.0,0.0,0.0,0.0,0.0,0.0,0.0,0.0,0.0,3.5545,3.599,3.5566,3.371,3.1888,0.0,0.0,0.0,0.0,0.0,0.0,0.0,0.0,0.0,2.2665,2.4726,2.6451,2.7828,2.781,2.766,2.7434,2.7606,2.7951,2.8433,2.8237,2.8219,2.8216,2.7178,2.6353,2.5625,2.377,2.1926,2.002,0.0,0.0,0.0,0.0,0.0,0.0,1.8925,0.0,0.0,0.0,0.0,0.0,0.0,0.0,0.0,0.0,0.0,0.0,0.0,0.0,0.0,0.1035,0.1994,0.3184,0.3737,0.428,0.4728,0.0,0.5467,0.5649,0.554,0.0,0.0,0.0,0.0,0.0,-0.0368,-0.2012,-0.4093,-0.7053,-0.9088,-1.0835,-1.2333,-1.2746,-1.3052,-1.3259,-1.1761,-1.0485,-0.9701,-0.7411,-0.502,0.0,0.0,0.0,0.0,0.0,0.0,0.0,0.0,0.0,0.0,0.0,0.0,0.0,0.0,0.0,0.0,0.0,0.0,0.0,0.0,0.0,0.0,0.0,0.0,0.0,0.0,0.0,0.0,3.693,3.7183,3.598,3.4713,3.3393,0.0,0.0,0.0,0.0,0.0,0.0,1.9704,2.0963,2.2689,2.487,2.713,2.8788,2.9779,3.0263,3.0027,2.9025,2.9303,2.9213,2.8778,2.8587,2.8284,2.7794,2.6509,2.5783,2.53,2.3431,2.2214,2.1345,1.8291,1.7194,0.0,1.6558,1.6747,1.7609,1.9602,2.0031,1.9492,1.8772,0.0,1.3531,1.0191,0.0,0.0,0.0,0.0,0.2518,0.0451,0.0,0.1416,0.1011,0.2353,0.3899,0.4434,0.4997,0.5413,0.0,0.5768,0.5836,0.5695,0.0,0.0,0.0,0.0,0.2863,0.0932,-0.0515,-0.2201,-0.4339,-0.6314,-0.7967,-0.914,-1.0144,-1.0757,-1.0962,-1.0066,-0.9191,-0.8493,-0.6094,-0.3965,-0.2265,0.0,0.0,0.0,0.0,0.0,0.0,0.0,0.0,0.0,0.0,0.0,0.0,0.0,0.0,0.0,0.0,0.0,0.0,0.0,0.0,0.0,0.0,0.0,0.0,0.0,0.0,0.0,0.0,0.0,3.6837,3.6211,0.0,0.0,0.0,0.0,2.6781,2.539,2.4101,2.2856,2.4001,2.555,2.7442,2.8529,2.9619,3.0826,3.1232,3.0981,3.0109,3.0315,3.0028,2.9253,2.885,2.7981,2.6764,2.6374,2.5431,2.4088,2.2766,2.2125,2.1713,1.8838,1.7909,1.8038,1.7042,1.7423,1.8493,1.9075,1.9469,1.9608,1.9039,1.5303,1.0485,0.7653,0.5365,0.0,0.0,0.1827,0.1989,-0.003,0.0371,0.1174,0.0584,0.2443,0.4477,0.4884,0.559,0.6155,0.0,0.6149,0.6043,0.5904,0.0,0.0,0.497,0.4185,0.3549,0.3185,0.1779,0.0589,-0.0049,-0.1581,-0.2557,-0.2567,-0.5225,-0.6316,-0.5027,-0.6808,-0.7161,-0.5486,-0.4074,-0.2394,-0.0473,0.1133,0.0,0.0,0.0,0.0,0.0,0.0,0.0,0.0,0.0,0.0,0.0,0.0,0.0,0.0,0.0,0.0,0.0,0.0,0.0,0.0,0.0,0.0,0.0,0.0,0.0,0.0,0.0,0.0,3.9229,3.7611,0.0,3.5875,3.3882,3.1804,2.9784,2.9006,2.8002,2.6498,2.7103,2.8041,2.9338,3.0577,3.1263,3.1283,3.2861,3.2754,3.0842,3.1713,3.1448,3.0156,2.9316,2.8598,2.7874,2.615,2.5306,2.5061,2.2999,2.2118,2.185,1.9442,1.8767,1.8997,1.7915,1.8159,1.9081,2.0077,2.0465,2.0117,1.7879,1.4553,1.0765,0.7471,0.5204,0.3414,0.1794,0.1723,0.1811,0.0343,0.0547,0.1164,0.1441,0.328,0.5171,0.5831,0.6088,0.643,0.7195,0.6967,0.6555,0.6169,0.6657,0.6766,0.5656,0.5266,0.4902,0.4346,0.378,0.3118,0.2227,0.139,0.0464,-0.0592,-0.1819,-0.2632,-0.2817,-0.2632,-0.2384,-0.207,-0.0506,0.071,0.1489,0.2939,0.3727,0.0,0.0,0.0,0.0,0.0,0.0,0.0,0.0,0.0,0.0,0.0,0.0,0.0,0.0,0.0,0.0,0.0,0.0,0.0,0.0,0.0,0.0,0.0,0.0,0.0,0.0,4.0617,4.0524,3.9213,3.8282,3.8256,3.6538,3.4813,3.3298,3.2414,3.1384,3.0088,3.0337,3.0906,3.1737,3.2639,3.3021,3.2918,3.4249,3.4063,3.2349,3.2929,3.2527,3.1218,3.028,2.954,2.9105,2.7139,2.6218,2.5993,2.404,2.296,2.2293,1.9924,1.917,1.9294,1.8407,1.847,1.9195,2.0586,2.0905,2.0253,1.7338,1.4468,1.1453,0.7959,0.5414,0.3467,0.2233,0.2005,0.1928,0.1104,0.1237,0.1739,0.2328,0.4234,0.6037,0.6432,0.6813,0.7266,0.7968,0.7506,0.693,0.6716,0.739,0.7609,0.6521,0.6587,0.6515,0.5862,0.5939,0.5748,0.5013,0.4697,0.413,0.3054,0.2109,0.1419,0.1089,0.1006,0.1135,0.1515,0.2357,0.3047,0.3562,0.4341,0.4423,0.3753,0.0,0.0,0.0,0.0,0.0,0.0,0.0,0.0,0.0,0.0,0.0,0.0,0.0,0.0,0.0,0.0,0.0,0.0,0.0,0.0,0.0,0.0,0.0,4.2412,4.2223,4.1894,4.0565,4.0873,4.0939,4.0275,3.9148,3.8077,3.718,3.5535,3.4243,3.3604,3.3724,3.4109,3.4768,3.4655,3.4963,3.5706,3.5348,3.4956,3.4665,3.3989,3.3268,3.2449,3.1632,3.0887,3.0173,2.9261,2.8152,2.6778,2.5883,2.4735,2.3226,2.037,1.9188,1.9026,1.8477,1.8515,1.9065,2.0523,2.0797,2.0091,1.7709,1.5161,1.2363,0.9004,0.5988,0.3596,0.3013,0.2687,0.245,0.2157,0.247,0.2951,0.3205,0.5239,0.7058,0.6721,0.7769,0.8702,0.8554,0.7731,0.7175,0.7565,0.8247,0.8453,0.7582,0.8016,0.0,0.782,0.8215,0.8489,0.8376,0.8433,0.8525,0.8641,0.664,0.5805,0.6907,0.4064,0.3192,0.5135,0.4402,0.4516,0.5709,0.5255,0.465,0.3915,0.0,0.0,0.0,0.0,0.0,0.0,0.0,0.0,0.0,0.0,0.0,0.0,0.0,0.0,0.0,0.0,0.0,0.0,0.0,0.0,0.0,0.0,4.4674,4.3944,4.3465,4.3057,4.2732,4.1705,4.0805,4.042,4.0057,3.9226,3.7646,3.7785,3.7631,3.6994,3.6662,3.6472,3.6504,3.6732,3.6577,3.6076,3.7374,3.7241,3.5691,3.6382,3.5866,3.4283,3.3374,3.2541,3.1708,3.0007,2.9059,2.8479,2.675,2.576,2.5105,2.2034,2.0868,2.0755,2.0246,2.0996,2.2441,2.3688,2.3353,2.2182,2.0569,1.7816,1.4516,1.1119,0.8329,0.607,0.4714,0.4592,0.4698,0.3934,0.4256,0.4772,0.4798,0.5436,0.6349,0.7443,0.79,0.8223,0.8779,0.8633,0.8442,0.8413,0.8803,0.9108,0.8998,0.0,0.0,0.9122,0.9185,0.9376,0.9721,0.9985,0.9989,0.9565,0.9047,0.8703,0.0,0.7738,0.7493,0.7992,0.7542,0.7039,0.65,0.5855,0.5146,0.0,0.0,0.0,0.0,0.0,0.0,0.0,0.0,0.0,0.0,0.0,0.0,0.0,0.0,0.0,0.0,0.0,0.0,0.0,0.0,0.0,0.0,4.5653,4.5363,4.5222,4.4488,4.3864,4.3463,4.2516,4.1722,4.1432,4.1033,4.0345,3.9262,3.9842,4.013,3.9726,3.9853,3.9634,3.9037,3.9191,3.8889,3.8033,3.912,3.9088,3.793,3.8335,3.7793,3.6389,3.5454,3.4525,0.0,3.1763,3.0687,3.0159,2.8139,2.7068,0.0,0.0,0.0,0.0,0.0,2.2577,2.3982,2.4873,2.4576,2.3543,2.2132,1.9527,1.6347,1.32,1.0294,0.7814,0.6422,0.5982,0.5879,0.567,0.5899,0.6264,0.6445,0.643,0.6629,0.7701,0.8038,0.8353,0.8994,0.0,0.0,0.9539,0.9667,0.9689,0.9467,0.971,0.9953,0.0,1.0363,1.0618,1.077,1.1009,1.0911,1.0392,1.02,0.0,0.0,0.0,0.8945,0.8943,0.873,0.0,0.0,0.0,0.5312,0.0,0.0,0.0,0.0,0.1641,0.0622,0.0,0.0,0.0,0.0,0.0,0.0,0.0,0.0,0.0,0.0,0.0,0.0,0.0,0.0,0.0,0.0,4.6562,4.6359,4.6305,4.5358,4.4268,4.3359,4.3214,4.2995,4.2505,4.1959,4.1558,4.1479,4.1857,4.219,4.2338,0.0,0.0,0.0,0.0,4.1555,4.0822,4.072,4.067,4.0635,4.006,3.9416,3.8764,3.7659,3.6773,3.5999,3.4185,3.2825,3.1831,3.0015,2.8503,2.7069,2.4296,2.3093,2.2935,2.3103,2.3681,0.0,0.0,0.0,0.0,2.2914,2.0541,1.7835,1.5182,1.2063,0.9284,0.8249,0.7322,0.6754,0.737,0.7503,0.7623,0.796,0.7754,0.7511,0.7705,0.8192,0.8728,0.9218,0.9817,1.0348,1.0667,1.0597,1.0215,0.9525,1.0431,0.0,1.0675,1.1584,1.2077,1.1687,0.0,0.0,1.1306,1.0809,1.0507,1.0449,0.9432,0.888,0.8985,0.8852,0.8391,0.765,0.6528,0.5307,0.4014,0.3266,0.2669,0.2215,0.1592,0.1051,0.0,0.0,0.0,0.0,0.0,0.0,0.0,0.0,0.0,0.0,0.0,0.0,0.0,0.0,0.0,4.7758,4.7036,4.6312,4.6786,4.541,4.4166,4.3532,4.3142,4.2591,4.1713,4.2405,4.2959,4.3042,4.4348,4.5479,4.626,4.5869,0.0,4.4689,4.4073,4.3271,4.2299,4.2692,4.2582,4.1996,0.0,0.0,4.0812,3.9964,3.888,3.7738,3.6043,3.4662,3.3402,3.1957,3.0114,2.7911,2.5362,2.4581,2.4891,2.5131,2.557,2.6151,2.6733,2.6104,2.4952,2.4085,2.1638,1.8628,1.6631,1.4074,0.0,1.0561,1.0073,0.9734,0.9008,0.9206,0.936,0.8633,0.8133,0.7861,0.8065,0.8326,0.8723,0.9348,0.9945,1.0494,1.093,1.0855,1.0729,1.0717,1.1056,1.1335,1.1439,1.2355,1.3007,1.3094,1.3822,1.3943,1.2924,1.2988,1.2428,1.0911,1.0529,1.0468,1.0714,1.0091,0.9144,0.7866,0.6831,0.557,0.4081,0.3292,0.2705,0.234,0.1695,0.1039,0.0,0.0,0.0,0.0,0.0,0.0,0.0,0.0,0.0,0.0,0.0,4.1811,0.0,0.0,4.7168,4.8806,4.7952,4.7099,4.7276,4.648,4.5368,4.3837,4.3391,4.3069,4.2768,4.3692,4.4432,4.4821,4.6457,4.7767,4.8515,4.8021,4.7533,4.6976,4.5996,4.4981,4.3998,4.443,4.4425,4.4123,4.4372,4.4127,4.3456,4.2347,4.1085,3.9727,3.7961,3.6313,3.4805,3.2715,3.0969,2.9375,2.7532,2.6514,2.6094,2.6475,2.679,2.7019,2.7373,2.6516,2.524,2.4746,2.2669,2.0024,1.8223,1.6153,1.4178,1.2772,1.178,1.0963,1.0364,0.9898,0.9467,0.9054,0.8292,0.776,0.8157,0.8213,0.8445,0.9215,1.002,1.0733,1.1187,1.1859,1.2268,1.1989,1.2485,1.2947,1.3091,1.3624,1.4054,1.4185,1.4746,1.4775,1.4025,1.3739,1.3048,1.1742,1.146,1.1368,1.1468,1.0465,0.9501,0.8537,0.7277,0.6043,0.4842,0.3783,0.3001,0.2544,0.173,0.1208,0.0,0.0,0.0,0.0,0.0,0.0,0.0,0.0,3.6474,3.942,4.1902,4.4255,4.6592,4.8045,4.923,5.0244,4.9392,4.8523,4.8298,4.7865,4.6858,4.4841,4.43,4.4301,4.4746,4.5433,4.6186,4.6958,4.8598,4.982,5.0293,5.0186,4.9862,4.9205,4.8059,4.6982,4.6126,4.6141,4.619,4.6113,4.6462,4.6336,4.5815,4.4499,4.3205,4.1746,3.9444,3.7546,3.583,3.3263,3.1702,3.0914,2.9891,2.8688,2.7491,2.759,2.764,2.7705,2.7531,2.6679,2.5567,2.5177,2.3549,2.1437,1.9699,1.8031,1.6416,1.4907,1.3257,1.1917,1.1731,1.0572,0.9498,0.9546,0.856,0.7713,0.8185,0.8156,0.8305,0.9142,1.0168,1.1028,1.1556,1.3072,1.3946,1.306,1.3919,1.461,1.461,1.4883,1.5156,1.5363,1.5605,1.5595,1.5305,1.4325,1.3582,1.3323,1.2646,1.2274,1.2273,1.1081,1.0052,0.9321,0.7832,0.6578,0.5576,0.4296,0.3323,0.2628,0.1685,0.128,2.8581,2.9656,3.0997,3.2192,3.245,3.2968,0.0,0.0,3.8025,4.2226,4.3941,4.5926,4.9985,5.0856,5.1442,5.3006,5.1881,5.0791,5.054,4.902,4.7799,4.7379,4.6711,4.6488,4.7148,4.7684,4.8483,4.9852,5.1201,5.2196,5.2588,5.2944,5.274,5.1785,5.0895,4.9926,4.8866,4.8272,4.7711,4.7373,4.7465,4.717,4.6478,4.6103,4.5069,4.3532,4.0125,3.7778,3.62,3.4282,3.2982,3.2092,3.1722,3.1021,3.0074,2.8562,2.8217,2.8401,2.7739,2.7058,2.6332,2.5464,2.4085,2.2424,2.0871,1.9221,1.77,1.6741,1.5233,1.3842,1.3576,1.2172,1.0723,1.0524,0.934,0.828,0.8213,0.8375,0.8778,0.9589,1.0545,1.1495,1.2317,1.4093,1.5,1.3684,1.4442,1.5101,1.5037,1.5627,1.6318,1.7037,1.7423,1.7627,1.7701,1.5922,1.5306,1.6488,1.47,1.3806,1.4344,1.2967,1.1501,1.0032,0.8479,0.6959,0.5517,0.4401,0.3392,0.2501,0.1551,0.0971,3.1071,3.1708,3.2464,3.3311,3.4019,3.4951,3.6844,3.8337,4.0262,4.3667,4.582,4.7969,5.079,5.2523,5.3604,0.0,5.3664,5.3103,5.194,5.1438,5.0974,5.0278,5.0259,4.9917,4.8875,5.0169,5.1194,5.1558,5.3256,5.4173,5.4048,5.3655,5.3387,5.3167,5.1579,5.0592,5.026,4.9498,4.8879,4.834,4.834,4.7933,4.7132,4.6374,4.511,4.3479,4.1201,3.9269,3.7616,3.592,3.4399,3.3119,3.2713,3.2256,3.1702,3.0281,2.9505,2.9066,2.8653,2.7819,2.673,2.5818,2.4741,2.3576,2.2,2.071,1.9612,1.8798,1.6943,1.5027,1.4326,1.2652,1.097,1.0347,0.9422,0.8753,0.8932,0.9253,0.9682,1.0171,1.1295,1.228,1.2611,1.4554,1.6011,1.5938,1.6473,1.6876,1.6792,1.704,1.7463,1.8029,1.802,1.8053,1.8318,1.7142,1.6555,1.6952,1.5787,1.4899,1.4495,1.3169,1.1887,1.0719,0.9277,0.8056,0.7073,0.5744,0.441,0.2993,0.1741,0.0722,3.4016,3.4232,3.4389,3.5018,3.5751,3.6736,3.833,4.0071,4.2108,4.4711,4.7273,4.9676,5.1615,5.3931,5.5404,5.4997,5.5501,5.5347,5.3748,5.373,5.3596,5.2815,5.3318,5.3077,5.1459,5.2621,5.3328,5.2976,5.4633,5.5346,5.4604,5.3937,5.3535,5.3544,5.2009,5.1061,5.0777,5.0334,4.9747,4.8955,4.903,4.8624,4.7858,4.6642,4.534,4.3827,4.2235,4.058,3.8863,3.7532,3.5742,3.3943,3.3733,3.3385,3.288,3.2054,3.0975,2.9825,2.9518,2.8578,2.7277,2.6136,2.5408,2.4635,2.2861,2.1732,2.0927,2.0107,1.8176,1.6077,1.5137,1.3262,1.1455,1.0633,0.9823,0.9332,0.9761,1.0084,1.0427,1.0906,1.1955,1.2871,1.3275,1.5129,1.6884,1.7954,1.8555,1.8831,1.8871,1.8892,1.8976,1.9113,1.8902,1.8881,1.9188,1.8276,1.7731,1.782,1.6817,1.5824,1.4916,1.3709,1.2574,1.1606,1.0266,0.9209,0.849,0.6993,0.5338,0.3645,0.1976,0.0528,3.7599,3.7763,3.7677,3.7844,3.7899,3.8233,3.9381,4.1012,4.3007,4.564,4.8203,5.0719,5.3244,5.5171,5.6611,5.7453,5.7664,5.738,5.6426,5.5442,5.4854,5.4802,5.5305,5.5609,0.0,5.5084,5.4585,5.4158,5.5321,5.5428,5.4082,5.3972,5.3548,5.2857,5.2563,5.1763,5.0358,5.0711,5.0287,4.9213,4.9388,4.9213,4.8756,4.7335,4.6253,4.5335,4.3218,4.1288,3.9615,3.8848,3.688,3.4442,3.5075,3.4649,3.367,3.3687,3.2484,3.0648,2.9945,2.9124,2.816,2.6525,2.5913,2.5434,2.3235,2.1974,2.1123,2.0426,1.8752,1.7062,1.6256,1.4411,1.2594,1.1994,1.0891,1.0125,1.0663,1.0612,1.0773,1.1787,1.2322,1.3105,1.466,1.6008,1.7457,1.9186,2.0159,2.0819,2.1057,2.1205,2.107,2.0476,2.0612,2.0784,2.0906,1.9394,1.8936,2.003,1.8002,1.6651,1.6349,1.525,1.4044,1.2765,1.1486,1.0321,0.9266,0.7628,0.5992,0.4314,0.2203,0.036,3.7938,3.7901,3.7792,3.7855,3.8354,3.9071,4.0112,4.1773,4.3844,4.6523,4.8613,5.0606,5.2629,5.4866,5.6494,5.6792,5.7382,5.7668,5.7304,5.6953,5.6503,5.576,5.6823,0.0,0.0,0.0,0.0,5.4829,5.573,5.5798,5.4491,5.4339,5.4076,5.3548,5.2951,5.239,5.1775,5.1133,5.018,4.9053,4.8052,4.7488,4.7325,4.7105,4.6304,4.5139,4.4281,4.2506,4.0165,3.9221,3.7506,3.5457,3.5349,3.4909,3.4245,3.3823,3.2919,3.1764,3.1149,3.0051,2.8612,2.6958,2.6344,2.595,2.4137,2.3028,2.2245,2.1425,1.99,1.8232,1.7188,1.5399,1.3696,1.2947,1.2408,1.2037,1.2023,1.2873,1.3739,1.4154,1.4928,1.5717,1.6346,1.7899,1.9794,2.2067,2.1981,2.17,2.1801,2.14,2.1081,2.0935,2.0865,2.0867,2.0935,2.0218,2.0018,2.0637,1.9073,1.7946,1.7595,1.6485,1.5379,1.4277,1.27,1.1376,1.0369,0.8456,0.6556,0.4638,0.2602,0.0758,3.8877,3.87,3.8629,3.8935,3.9465,4.0175,4.1235,4.2674,4.4494,4.6885,4.8748,5.0502,5.2269,5.4429,5.6035,5.6347,5.7173,5.7846,5.8116,5.812,5.7986,5.7653,5.8518,5.8658,0.0,0.0,0.0,5.5199,5.6101,5.6068,5.4459,5.4159,5.3711,5.3037,5.2573,5.1981,5.1199,5.0654,4.9768,4.8493,4.7438,4.6783,4.6581,4.6604,4.6098,4.5285,4.4375,4.2846,4.0951,3.9577,3.7971,3.6322,3.5822,3.5154,3.4366,3.3959,3.3094,3.207,3.1562,3.0474,2.9068,2.7651,2.6942,2.6381,2.5056,2.3879,2.2903,2.2002,2.0723,1.9243,1.7771,1.6203,1.4807,1.4108,1.3759,1.359,1.3766,1.4648,1.5543,1.5853,1.6424,1.7092,1.7844,1.9904,2.2017,2.3642,2.354,2.3223,2.3193,2.2474,2.1973,2.198,2.1581,2.138,2.1595,2.1047,2.0825,2.1185,1.9923,1.8956,1.8434,1.7308,1.6208,1.5201,1.3638,1.2273,1.1141,0.9321,0.7405,0.5317,0.3275,0.1433,4.0492,4.0194,4.0165,4.094,4.1206,4.1504,4.2601,4.3636,4.4897,4.68,4.861,5.0337,0.0,0.0,5.5283,5.6098,5.7031,5.7963,5.8866,5.8945,5.9237,0.0,0.0,0.0,0.0,0.0,0.0,5.5248,0.0,5.6261,5.4123,5.3493,5.2647,5.1426,5.1488,5.0735,4.903,4.9472,4.8976,4.7512,4.7618,4.7247,4.6588,4.5896,4.5666,4.5683,4.3576,4.237,4.1719,3.9825,3.8221,3.6956,3.6408,3.5328,3.404,3.4061,3.302,3.1499,3.112,3.036,2.9416,2.8521,2.7625,2.6712,2.5801,2.4502,2.3112,2.2226,2.1295,2.0156,1.8314,1.7005,1.6081,1.56,1.5005,1.482,1.5778,1.6063,1.6274,1.6843,1.6886,1.7439,1.9258,2.1988,2.3892,2.3922,2.4703,2.5234,2.5107,2.4284,2.3672,2.3582,2.2661,2.2246,2.2845,2.1876,2.1398,2.1826,2.0601,1.9578,1.8946,1.7751,1.6626,1.5618,1.4289,1.2943,1.1555,1.0171,0.8446,0.6381,0.4183,0.2312,4.1062,4.096,4.0867,4.1456,4.1656,4.2033,4.314,4.3732,4.4564,4.6499,4.7889,4.8876,4.9184,0.0,0.0,5.4164,5.5588,0.0,5.8772,5.8973,0.0,5.9292,0.0,6.0427,5.8429,5.92,0.0,0.0,5.5401,5.5168,5.3946,5.3414,5.2634,5.1564,5.1298,5.0945,5.0464,4.9322,4.7968,4.6434,4.6507,4.6609,4.6554,4.5737,4.5164,4.4715,4.2997,4.1518,4.016,3.8671,3.7156,3.5701,3.5097,3.4283,3.3375,3.2781,3.1856,3.0838,3.0044,2.9472,2.8913,2.7937,2.7047,2.6148,2.5273,2.476,2.4299,2.3431,2.303,2.2577,2.1266,1.9812,1.8572,1.8099,1.7421,1.6973,1.7053,1.7997,1.8864,1.9052,1.9666,2.0532,2.1857,2.2825,2.3697,2.4461,2.4825,2.5021,2.511,2.4284,2.3605,2.3391,2.2849,2.2518,2.2603,2.2046,2.1896,2.2503,2.1264,2.052,2.0415,1.918,1.8008,1.6941,1.5097,1.3435,1.1941,1.0328,0.8621,0.6729,0.487,0.3195,4.1195,4.1043,4.1005,4.1874,4.2114,4.252,4.3922,4.4499,4.5239,4.7065,4.7758,4.8089,4.8166,5.0286,5.213,0.0,0.0,0.0,5.8598,5.8975,5.9156,0.0,6.0467,0.0,5.7894,5.825,5.7607,0.0,5.532,5.4993,5.3568,5.3122,5.2475,5.1496,5.1147,5.0572,4.9856,4.8503,4.7245,4.6091,4.581,4.5583,4.5407,4.4614,4.4031,4.3598,0.0,4.0888,3.9914,3.8063,3.655,3.5332,3.4558,3.3554,3.2448,3.1568,3.0689,2.978,2.887,2.8162,2.7666,2.7613,2.7007,2.6177,2.5636,2.5252,2.485,2.3957,2.3784,2.3506,2.2028,2.0719,1.9659,1.9197,1.8503,1.8141,1.8651,1.9425,2.0016,2.0143,2.0886,2.1671,2.2316,2.328,2.4148,2.4806,2.5265,2.547,2.5198,2.4498,2.3964,2.3677,2.3325,2.3091,2.2926,2.2529,2.2474,2.2747,2.1874,2.1197,2.0821,1.9593,1.8338,1.7118,1.5235,1.3598,1.2227,1.072,0.9199,0.7601,0.6021,0.4492,4.1093,4.0986,4.1016,4.2226,4.2673,4.3208,4.474,4.5462,4.6168,4.7589,4.7656,4.7495,4.7671,4.8723,4.9975,5.121,0.0,5.495,5.8431,5.8851,5.9186,6.0182,6.0249,5.9526,5.7812,5.6953,5.5975,5.4683,5.5131,5.4737,5.3099,5.2644,5.1966,5.0909,5.0621,4.9772,4.8186,4.7457,4.6734,4.5993,4.5307,4.4607,4.3879,4.3051,4.2621,4.246,0.0,0.0,3.9808,3.7411,3.5937,3.5107,3.4101,3.2732,3.1172,3.0345,2.9399,2.833,2.7576,2.6632,2.5974,2.7186,2.6977,2.6225,2.6121,2.5654,2.4996,2.4282,2.4039,2.363,2.1926,2.0942,2.0264,1.9824,1.9226,1.913,2.0427,2.0654,2.0671,2.0866,2.1476,2.1941,2.1976,2.3495,2.4757,2.5005,2.5753,2.5999,2.5184,2.4763,2.4418,2.4044,2.3801,2.3535,2.3342,2.3077,2.285,2.2703,2.2309,2.1669,2.0784,1.9506,1.8214,1.6849,1.5066,1.3598,1.2363,1.1216,0.9953,0.8652,0.7332,0.5949,4.1402,4.1642,4.172,4.2944,4.3789,4.4546,4.4975,4.5732,4.6132,4.5685,4.6066,4.6113,4.4797,4.6953,4.9224,5.0369,5.2264,5.4885,5.8398,5.8335,5.8538,0.0,5.9729,5.8627,5.6909,5.6592,0.0,0.0,0.0,0.0,5.2503,5.1683,5.0418,4.8715,4.86,4.8077,4.7086,4.7041,4.6278,4.488,4.4775,4.4325,4.3465,4.2552,4.1785,4.105,0.0,0.0,3.7209,3.5349,3.4015,3.3033,3.2192,3.076,2.9104,2.8874,2.7671,2.6147,2.5943,2.5076,2.4279,2.587,2.5771,2.504,2.5067,2.5002,2.4935,2.4907,2.4489,2.3984,2.3671,2.2968,2.2266,2.1992,2.1817,2.1804,2.2265,2.2519,2.2763,2.2917,2.2996,2.3128,2.3383,2.4041,2.4705,2.5183,2.5572,2.5517,2.467,2.4707,2.4496,2.3624,2.3353,2.3175,2.3077,2.2799,2.2649,2.2542,2.2198,2.1845,2.1543,1.991,1.8534,1.7436,1.5548,1.3785,1.2148,1.1616,1.0575,0.9157,0.8247,0.7202,4.1387,4.1761,4.2047,4.3676,4.4413,4.5144,4.6324,4.6544,4.647,4.6524,4.5988,4.5149,4.3999,4.5028,4.6522,4.7945,4.9313,5.175,5.6205,5.6269,5.6631,5.8694,5.8203,5.7017,5.5301,5.4297,0.0,0.0,0.0,0.0,5.0445,4.9964,4.9284,4.8338,4.7883,4.7495,4.705,4.6727,4.5909,4.4642,4.4218,4.3542,4.262,4.1641,4.0708,3.9824,0.0,0.0,3.5609,3.3763,3.2398,3.1432,3.0825,2.9458,2.7811,2.7192,2.609,2.4787,2.421,2.3523,2.3026,2.3619,2.3849,2.3929,2.3967,2.4102,2.4317,2.4466,2.4075,2.361,2.362,2.3016,2.2358,2.2207,2.2577,2.2997,2.3079,2.3328,2.3418,2.3045,2.2713,2.2567,2.2821,2.3573,2.4315,2.5057,2.5734,2.5941,2.5359,2.5302,2.4752,2.3281,2.3102,2.2977,2.285,2.2668,2.2508,2.2281,2.2027,2.1628,2.1092,1.9754,1.8594,1.7666,1.596,1.4424,1.3139,1.2438,1.1432,1.007,0.9148,0.8095,4.1065,4.1567,4.1987,4.3862,4.4636,4.537,4.7066,4.7,4.6737,4.7181,4.5822,4.435,4.3593,4.3376,4.3912,4.5961,4.6704,4.8794,5.3787,5.4254,5.487,5.6892,5.6524,0.0,5.3728,5.2106,0.0,0.0,0.0,0.0,0.0,4.8345,4.824,4.7971,4.7357,4.702,4.7031,4.6204,4.532,4.4382,4.3491,4.2549,4.1563,4.0501,3.9543,3.8584,0.0,0.0,0.0,3.2561,3.1213,3.0197,2.9576,2.8334,2.6774,2.5657,2.4664,2.3727,2.2554,2.2057,2.182,2.1259,2.185,2.2812,2.2776,2.289,2.3033,2.3252,2.2837,2.2407,2.2567,2.2219,2.1891,2.23,2.3171,2.3929,2.3964,2.4215,2.4191,2.3179,2.2635,2.2325,2.2254,2.3095,2.4068,2.4968,2.5847,2.6286,2.59,2.5671,2.4862,2.3157,2.2978,2.2936,2.2747,2.2664,2.2457,2.1998,2.196,2.1549,2.0711,1.9541,1.8537,1.7753,1.6223,1.5012,1.4135,1.3249,1.22,1.1041,1.0071,0.901,4.0443,4.1056,4.1405,4.2705,4.4233,4.5467,4.5666,4.6342,4.6545,4.5214,4.4545,4.3892,4.262,4.229,4.3156,4.6035,4.6721,4.8364,5.2568,5.3546,5.4206,5.521,0.0,0.0,5.2717,5.1619,0.0,0.0,0.0,0.0,0.0,4.742,4.7087,4.6351,4.6171,4.6103,4.6125,4.5196,4.4268,4.3313,4.2383,4.1384,4.0329,3.924,3.827,3.7316,0.0,0.0,0.0,3.1728,3.056,2.9395,2.8298,2.7091,2.5794,2.4581,2.3652,2.273,2.1215,2.0652,2.0406,1.9449,2.0221,2.1449,2.1411,2.1076,2.0764,2.1014,2.035,1.9755,2.0634,2.095,2.1569,2.3526,2.4662,2.5399,2.5712,2.6193,2.6219,2.4828,2.4387,2.3911,2.323,2.3613,2.4234,2.4984,2.5538,2.5664,2.5144,2.5045,2.4545,2.3387,2.3124,2.2942,2.2789,2.2727,2.2368,2.1617,2.2115,2.2053,2.1182,1.9739,1.8623,1.7809,1.6358,1.5159,1.4272,1.3452,1.2694,1.1957,1.1137,1.0209,3.9352,4.0331,4.1131,4.2485,4.4005,4.5251,4.568,4.5959,4.5768,4.4532,4.3602,4.2556,4.1357,4.0484,4.0658,4.3114,4.3015,4.4082,4.8097,4.8748,4.9742,5.225,5.2182,0.0,0.0,0.0,0.0,0.0,0.0,0.0,0.0,4.6338,4.6255,4.5794,4.5784,4.5669,4.5501,4.4616,4.3673,4.2693,4.1781,4.0766,3.9683,3.8536,3.7443,3.6345,0.0,0.0,0.0,2.9412,2.8293,2.7518,2.6622,2.5579,2.4435,2.3542,2.2574,2.1538,2.0682,2.0021,1.9433,1.8698,1.8478,1.8547,1.9123,1.9105,1.8973,1.9306,1.8993,1.876,1.9796,2.0816,2.2074,2.4243,2.5077,2.5586,2.6373,2.6504,2.6195,2.5149,2.4604,2.4134,2.376,2.396,2.4311,2.4683,2.5488,2.5964,2.5734,2.5522,2.5201,2.4713,2.3726,2.2995,2.279,2.2721,2.2332,2.1496,2.1716,2.1555,2.0793,1.9783,1.8903,1.8242,1.7322,1.6281,1.5072,1.4694,1.3983,1.2998,1.2102,1.1152,3.865,3.9481,4.0275,4.1743,4.291,4.3926,4.4829,4.4708,4.4251,4.3555,4.2524,4.1459,4.0407,3.9405,3.9265,4.083,4.0651,4.1457,4.4585,4.5115,4.6191,4.8798,0.0,0.0,0.0,0.0,0.0,0.0,0.0,0.0,0.0,0.0,4.5578,4.5503,4.5449,4.5201,4.4707,4.3764,4.2797,4.176,4.0801,3.9902,3.9069,3.7608,3.6515,0.0,0.0,0.0,0.0,2.8216,2.6995,2.6198,2.5341,2.4382,2.3323,2.2349,2.1441,2.0553,1.9812,1.9172,1.8623,1.7888,1.7065,1.6386,1.6841,1.6918,1.6969,1.7331,1.7664,1.8085,1.9224,2.0702,2.2379,2.4319,2.5124,2.5746,2.6804,2.6809,2.6347,2.5549,2.4933,2.4402,2.4081,2.4126,2.4226,2.4545,2.5318,2.5954,2.6072,2.5652,2.5462,2.5636,2.4436,2.3393,2.2798,2.2947,2.263,2.1651,2.1879,2.16,2.0733,2.0084,1.9401,1.8718,1.8244,1.7357,1.614,1.5863,1.5114,1.3905,1.3065,1.2033,3.8556,3.8461,3.8491,4.0067,4.0603,4.1168,4.2454,4.2397,4.2011,4.1835,4.1392,4.0709,3.9798,3.9606,3.9688,3.9962,4.0832,4.1895,4.3071,4.3956,4.4609,0.0,0.0,0.0,0.0,0.0,0.0,0.0,0.0,0.0,0.0,0.0,4.495,4.5285,4.512,4.4524,4.3521,4.2461,4.1365,4.029,3.9295,3.8663,3.8345,3.6363,0.0,0.0,0.0,0.0,0.0,2.8871,2.7498,2.5958,2.4636,2.3613,2.2687,2.0965,2.0237,1.9862,1.8262,1.7873,1.7909,1.6815,1.6031,1.5502,1.4852,1.4536,1.451,1.4928,1.61,1.7477,1.8794,2.0551,2.2342,2.3595,2.4937,2.6169,2.7196,2.7491,2.73,2.6367,2.5647,2.4963,2.4216,2.3951,2.3974,2.4615,2.4936,2.5272,2.5648,2.5123,2.4972,2.5634,2.5032,2.4146,2.3,2.3516,2.3375,2.2147,2.2823,2.2655,2.1228,2.0733,2.0084,1.9206,1.8873,1.8273,1.7379,1.678,1.5849,1.4668,1.4053,1.2841,3.8128,3.8308,3.8294,3.8551,3.9214,3.9714,3.9453,3.9617,3.9781,3.9032,3.8732,3.8381,3.7373,3.7184,3.7382,3.7959,3.8494,3.9085,0.0,0.0,0.0,4.2101,4.3905,0.0,0.0,0.0,0.0,0.0,0.0,0.0,0.0,0.0,4.408,4.4417,4.4243,4.3573,4.2358,4.1254,4.051,4.0017,3.8506,3.79,3.811,3.5648,0.0,0.0,0.0,0.0,0.0,2.756,2.651,2.5545,2.4341,2.3392,2.2468,2.125,2.0286,1.9498,1.8611,1.7845,1.7183,1.6616,1.5802,1.5017,1.4677,1.4204,1.3952,1.4644,1.5675,1.6942,1.8631,2.0116,2.1695,2.3638,2.5077,2.6126,2.6667,2.7254,2.7389,2.6457,2.6026,2.5703,2.5292,2.5157,2.5017,2.4727,2.5322,2.5747,2.5687,2.5404,2.5453,2.5855,2.5707,2.5283,2.4535,2.4654,2.4283,2.3003,2.3305,2.2778,2.1185,2.1055,2.0512,1.9432,1.9311,1.8905,1.8156,1.7819,1.6968,1.5707,1.491,1.3694,3.7767,3.7678,3.7407,3.7124,3.7168,3.7275,3.7132,3.7124,3.6983,3.6462,3.6476,3.6331,3.5741,3.5838,3.628,3.6979,3.7376,3.7575,0.0,0.0,0.0,3.8388,0.0,0.0,0.0,0.0,0.0,0.0,0.0,0.0,0.0,0.0,4.3433,4.3397,4.3353,4.2701,4.1394,4.0551,3.9846,3.92,3.8047,3.7457,3.7343,0.0,0.0,0.0,0.0,0.0,0.0,2.6949,2.5807,2.4904,2.3719,2.2698,2.178,2.0637,1.9598,1.8731,1.8248,1.7389,1.6495,1.6169,1.5321,1.4338,1.417,1.3868,1.3791,1.4447,1.5367,1.6482,1.8306,1.9854,2.1468,2.3384,2.4899,2.6075,2.6581,2.7029,2.7169,2.6714,2.624,2.5853,2.5798,2.5605,2.5329,2.4942,2.5437,2.5793,2.5635,2.5379,2.5506,2.6075,2.5923,2.585,2.5874,2.5688,2.5077,2.3851,2.3999,2.3516,2.2063,2.1941,2.1397,2.0309,2.0092,1.9559,1.8749,1.8125,1.749,1.6801,1.5775,1.4577,0.0,3.6786,3.614,3.591,3.4908,3.4223,3.5326,3.4665,0.0,3.4225,3.4491,3.4554,3.4606,3.536,3.6186,3.6552,3.7069,0.0,0.0,3.59,0.0,0.0,0.0,0.0,0.0,0.0,0.0,0.0,0.0,0.0,0.0,0.0,0.0,4.2312,4.237,4.1832,4.0571,4.0071,3.9237,3.8035,3.7767,3.7158,3.6248,0.0,0.0,0.0,0.0,0.0,0.0,2.695,2.5506,2.4367,2.3043,2.1878,2.0749,1.9522,1.8559,1.7781,1.7259,1.6625,1.5882,1.5577,1.4661,1.368,1.3473,1.3623,1.3944,1.431,1.5122,1.6263,1.7833,1.9704,2.1429,2.2877,2.452,2.5959,2.6788,2.6762,2.6634,2.706,2.6246,2.5578,2.5798,2.5384,2.5075,2.516,2.5355,2.5411,2.5356,2.5131,2.5258,2.6172,2.5902,2.6023,2.6893,2.6549,2.5834,2.4731,2.497,2.4664,2.3592,2.3142,2.2524,2.1659,2.097,2.018,1.9192,1.8022,1.7604,1.7869,1.6693,1.5534,3.7136,0.0,3.6518,3.5622,3.4364,3.3309,0.0,3.2281,3.1958,3.2368,3.2472,3.2513,3.243,3.3386,3.4046,3.3671,0.0,0.0,3.388,0.0,0.0,0.0,0.0,0.0,0.0,0.0,0.0,0.0,0.0,0.0,0.0,0.0,0.0,4.1375,4.0985,4.0188,3.8962,3.8522,3.8,3.7314,3.6442,3.6077,3.6149,0.0,0.0,0.0,0.0,0.0,0.0,2.7512,2.6382,2.5025,2.4157,2.2774,2.1152,2.0191,1.9038,1.7915,1.7499,1.6576,1.5479,1.4896,1.4543,1.424,1.3991,1.3792,1.3807,1.4226,1.52,1.6439,1.7692,1.9072,2.0573,2.2071,2.3723,2.5078,2.5484,2.6294,2.6762,2.6257,2.5983,2.5736,2.541,2.5216,2.5104,2.4905,2.5018,2.5131,2.5104,2.5079,2.5329,2.5825,2.6008,2.6299,2.6736,2.6983,2.6634,2.5528,2.5803,2.5327,2.3787,2.3645,2.3028,2.1869,2.0729,2.0122,2.0042,1.9334,1.8986,1.901,1.8047,1.6691,3.4641,3.5218,3.6032,3.4886,3.3178,3.1704,3.1459,3.0471,2.975,3.0237,3.0616,3.0908,3.1267,3.1992,3.2679,3.3051,3.3257,0.0,0.0,0.0,3.3094,0.0,0.0,0.0,0.0,0.0,0.0,0.0,0.0,0.0,0.0,0.0,0.0,0.0,3.9235,3.8553,3.8368,3.7796,3.7488,3.7286,3.6299,3.5879,3.589,0.0,0.0,0.0,0.0,0.0,2.7921,2.7078,2.6054,2.4844,2.4115,2.2982,2.1549,2.0312,1.9206,1.8273,1.7458,1.6302,1.4993,1.4258,1.3935,1.3824,1.3618,1.3663,1.3925,1.4111,1.4937,1.5988,1.7021,1.8227,1.9531,2.1053,2.2518,2.3839,2.4614,2.5328,2.5846,2.5704,2.5515,2.5261,2.4845,2.4765,2.465,2.4505,2.4593,2.4708,2.4905,2.5018,2.5272,2.566,2.5988,2.6365,2.6683,2.7203,2.724,2.6471,2.678,2.6517,2.5408,2.4784,2.3765,2.2164,2.1142,2.0576,2.0454,1.9893,1.956,1.9522,1.8371,1.7027,3.1531,3.2949,3.4513,3.3507,3.1866,3.0503,3.0708,2.947,2.8428,2.8899,2.9477,3.0046,3.0656,3.1094,3.173,0.0,0.0,0.0,3.1076,3.1505,0.0,0.0,0.0,0.0,0.0,0.0,0.0,0.0,0.0,0.0,0.0,0.0,0.0,0.0,3.7686,3.7216,3.7961,3.7452,3.725,3.7336,3.6587,3.5993,3.5484,3.4475,0.0,0.0,0.0,0.0,2.7805,2.6396,2.5307,2.4452,2.3699,2.2844,2.1771,2.0184,1.9211,1.8543,1.7187,1.5821,1.458,1.3636,1.3253,1.3028,1.284,1.327,1.3891,1.4006,1.4612,1.5416,1.6142,1.7158,1.844,1.9809,2.1008,2.2254,2.3514,2.4026,2.4377,2.4861,2.4631,2.433,2.4093,2.4015,2.3956,2.3923,2.4073,2.4363,2.465,2.4878,2.516,2.566,2.5988,2.6312,2.6736,2.7497,2.7947,2.7673,2.7859,2.7658,2.7021,2.5863,2.4327,2.2509,2.1734,2.1099,2.067,2.0064,1.9779,1.972,1.8312,1.7069,3.0259,3.0628,3.0608,3.086,3.1535,3.1805,3.0606,3.0631,3.0852,3.0565,3.0847,3.0998,3.0339,3.0842,3.128,0.0,0.0,0.0,0.0,0.0,0.0,0.0,0.0,0.0,0.0,0.0,0.0,0.0,0.0,0.0,0.0,0.0,0.0,0.0,0.0,3.6713,3.6409,3.661,3.6466,3.6119,3.6291,3.5985,3.5016,3.4037,3.2942,0.0,0.0,0.0,2.8004,2.6799,2.5685,2.4682,2.3906,2.2729,2.1237,2.0327,1.9219,1.7952,1.6152,1.528,1.4678,1.3547,1.3072,1.2877,1.2769,1.2977,1.3259,1.357,1.4396,1.5273,1.5536,1.6262,1.7333,1.8353,1.9298,2.0198,2.1123,2.1854,2.238,2.2662,2.3071,2.3318,2.3165,2.333,2.345,2.3271,2.3603,2.4015,2.4363,2.4821,2.5272,2.566,2.615,2.6549,2.6864,2.8171,2.9131,2.9401,2.8543,2.7494,2.6271,2.5287,2.4151,2.2748,2.165,2.0997,2.0924,2.0359,2.0088,2.0092,1.8858,1.7547,2.3698,2.4965,2.6384,2.7233,2.9682,3.1764,3.156,3.1508,3.1477,3.1394,3.1685,3.1725,3.094,3.0858,3.0483,2.9173,0.0,0.0,0.0,0.0,0.0,0.0,0.0,0.0,0.0,0.0,0.0,0.0,0.0,0.0,0.0,0.0,0.0,0.0,0.0,0.0,3.504,3.5463,3.5856,3.6273,3.5783,3.5321,3.4921,3.3623,3.239,0.0,0.0,2.8595,2.7814,2.6747,2.5684,2.4657,2.4077,2.2959,2.1523,2.0317,1.89,1.7398,1.6253,1.5382,1.4599,1.3438,1.2769,1.2373,1.2066,1.2204,1.2604,1.2633,1.3636,1.4656,1.4891,1.5419,1.603,1.6762,1.7398,1.8082,1.8993,1.9785,2.041,2.0769,2.1484,2.2022,2.191,2.2334,2.2641,2.2702,2.3125,2.3662,2.4337,2.4908,2.5495,2.5879,2.6734,2.719,2.71,2.8746,2.9971,3.0521,2.9801,2.879,2.7494,2.6212,2.4928,2.3699,2.2396,2.1603,2.1332,2.0668,2.0106,1.9609,1.8512,1.7264,1.8537,2.0664,2.3489,2.5218,2.838,3.1338,3.2464,3.2423,3.2281,3.2645,3.2796,3.2577,3.1678,3.0686,0.0,2.7878,0.0,0.0,0.0,0.0,0.0,0.0,0.0,0.0,0.0,0.0,0.0,0.0,0.0,0.0,0.0,0.0,0.0,0.0,0.0,0.0,3.4092,3.4389,3.5073,3.625,3.5308,3.4775,3.4527,3.3279,3.1894,3.0513,2.9325,2.8325,2.7557,2.6458,2.5417,2.4543,2.3919,2.2807,2.1415,2.0079,1.8619,1.7321,1.67,1.5726,1.4559,1.3294,1.2443,1.1843,1.1327,1.1554,1.1905,1.2015,1.2803,1.3724,1.3986,1.4422,1.4761,1.5118,1.5554,1.6056,1.6863,1.7541,1.8175,1.8795,1.9703,2.0489,2.0744,2.125,2.1753,2.2125,2.2555,2.322,2.4221,2.4881,2.5522,2.6042,2.7263,2.8089,2.8299,2.9754,3.0949,3.1647,3.0846,2.9817,2.8716,2.718,2.5728,2.4371,2.3184,2.2264,2.1554,2.0837,2.0057,1.9228,1.8065,1.6908,1.8875,2.098,2.3263,2.7048,2.9143,3.0784,3.2635,3.3585,3.4286,3.5017,3.4749,3.389,3.2112,3.0064,2.8391,2.7608,0.0,0.0,0.0,0.0,0.0,0.0,0.0,0.0,0.0,0.0,0.0,0.0,0.0,0.0,0.0,0.0,0.0,0.0,0.0,0.0,3.41,3.3333,3.3725,3.5233,3.5276,3.4712,3.3661,3.2987,3.1785,3.024,2.895,2.7964,2.7299,2.5931,2.5027,2.4491,2.3118,2.1567,2.002,1.9529,1.8895,1.8158,1.7025,1.5959,1.4796,1.3209,1.2272,1.1585,1.1176,1.1176,1.1445,1.1887,1.2226,1.2591,1.2756,1.3197,1.3548,1.377,1.4007,1.4303,1.4594,1.5033,1.556,1.6298,1.7541,1.871,1.9573,2.0268,2.0846,2.1376,2.1877,2.2592,2.3669,2.4456,2.5217,2.5988,2.7423,2.9215,3.1195,3.1851,3.2404,3.3119,3.1286,2.9721,2.8652,2.7531,2.6056,2.4153,2.355,2.2636,2.141,2.0487,1.9839,1.9374,1.7763,1.6805,1.6956,1.9532,2.2294,2.5924,2.9004,3.1615,3.3537,3.4525,3.5203,3.5754,3.555,3.4418,3.1804,0.0,2.7531,0.0,0.0,0.0,0.0,0.0,0.0,0.0,0.0,0.0,0.0,0.0,0.0,0.0,0.0,0.0,0.0,0.0,0.0,0.0,0.0,0.0,0.0,3.3405,3.3545,3.402,3.3964,3.3488,3.2846,3.1946,3.0852,2.9598,2.8855,2.814,2.7451,2.6505,2.5496,2.4428,2.2635,2.0943,1.9696,1.9807,1.9099,1.7904,1.7284,1.6224,1.4894,1.3548,1.2357,1.1327,1.0906,1.0733,1.0794,1.1289,1.1384,1.1542,1.2282,1.2606,1.2774,1.2845,1.2745,1.265,1.2922,1.3151,1.35,1.4274,1.5615,1.6954,1.7842,1.9156,2.0161,2.0677,2.1439,2.2347,2.3374,2.4284,2.5161,2.5879,2.7659,2.9711,3.2075,3.2332,3.2653,3.3245,3.1678,3.0391,2.9743,2.7893,2.6201,2.474,2.3808,2.2692,2.1506,2.0624,1.9719,1.8909,1.7885,1.6925,1.6632,1.9635,2.2857,2.5571,2.8984,3.2232,3.4384,3.5218,3.5762,3.6544,3.554,3.3808,3.1489,0.0,0.0,0.0,0.0,0.0,0.0,0.0,0.0,0.0,0.0,0.0,0.0,0.0,0.0,0.0,0.0,0.0,0.0,0.0,0.0,0.0,0.0,0.0,0.0,3.2746,3.2723,3.2792,3.2328,3.205,3.1932,3.073,2.9644,2.8677,2.8368,2.7805,2.7039,2.6455,2.5272,2.3559,2.1947,2.0615,1.9621,2.0009,1.934,1.8061,1.7611,1.6492,1.5021,1.3743,1.2357,1.1241,1.0722,1.0463,1.0338,1.0741,1.0818,1.0901,1.1653,1.1847,1.1958,1.1884,1.1539,1.1291,1.1443,1.1486,1.1753,1.2526,1.3924,1.5334,1.6401,1.793,1.9243,2.0096,2.0933,2.1877,2.304,2.3936,2.5073,2.6635,2.8284,3.0204,3.2447,3.273,3.2958,3.3277,3.1966,3.0958,3.0433,2.8414,2.6643,2.5121,2.4124,2.3013,2.1698,2.0669,1.9741,1.9092,1.8203,1.7359,1.8593,2.1896,2.5305,2.6528,2.9309,3.2418,3.5001,3.5654,3.6078,3.7478,3.479,3.1989,3.1322,2.8419,0.0,0.0,0.0,0.0,0.0,0.0,0.0,0.0,0.0,0.0,0.0,0.0,0.0,0.0,0.0,0.0,0.0,0.0,0.0,0.0,0.0,0.0,0.0,3.106,3.106,3.1636,3.0555,3.0309,3.0734,2.9576,2.8455,2.7481,2.7591,2.7039,2.6083,2.5643,2.4048,2.173,2.1281,2.0526,1.9862,2.0032,1.9674,1.9008,1.8212,1.6884,1.529,1.3528,1.2248,1.1154,1.0549,1.0289,1.0338,1.0563,1.0642,1.0696,1.0563,1.0808,1.0919,1.071,1.047,1.023,1.0011,1.0089,1.0368,1.0944,1.2325,1.3837,1.5192,1.6678,1.8133,1.9573,2.0248,2.1146,2.2726,2.328,2.4851,2.8309,2.9475,3.0715,3.2478,3.3171,3.3466,3.3309,3.2226,3.1279,3.0464,2.9273,2.7467,2.515,2.4583,2.3561,2.201,2.047,1.9881,2.014,1.8655,1.8151,1.9747,2.222,2.4974,2.7471,3.0601,3.3421,3.4532,3.5011,3.5161,3.5155,3.3938,3.2208,2.9807,0.0,0.0,0.0,0.0,0.0,0.0,0.0,0.0,0.0,0.0,0.0,0.0,0.0,0.0,0.0,0.0,0.0,0.0,0.0,0.0,0.0,0.0,0.0,0.0,0.0,3.1468,3.1159,2.9761,2.943,2.9877,2.854,2.76,2.6879,2.6692,2.6247,2.5756,2.4559,2.3221,2.1951,2.096,2.0231,1.9877,2.0128,1.954,1.8448,1.8087,1.6862,1.519,1.3743,1.2528,1.1499,1.0809,1.0212,0.9873,1.0289,1.0067,0.979,1.0076,0.9885,0.9658,1.001,0.9686,0.9266,0.9211,0.9127,0.9329,1.002,1.1347,1.2777,1.4171,1.5913,1.7453,1.869,1.977,2.1123,2.298,2.409,2.5684,2.8168,2.9042,3.0208,3.218,3.285,3.3203,3.315,3.2855,3.2204,3.1173,2.9411,2.7862,2.6621,2.5164,2.3858,2.2623,2.1213,2.0305,1.9877,1.9212,1.8767,2.1784,2.4014,2.6317,2.8685,3.0973,3.2916,3.3795,3.4418,3.4579,3.3749,3.2767,3.1349,2.9114,2.7581,0.0,0.0,0.0,0.0,0.0,0.0,0.0,0.0,0.0,0.0,0.0,0.0,0.0,0.0,0.0,0.0,0.0,0.0,0.0,0.0,0.0,0.0,0.0,0.0,0.0,3.0529,2.9051,2.8445,2.8329,2.7442,2.6824,2.6271,2.5701,2.5314,2.4967,2.3595,2.2482,2.1527,2.0458,1.9962,1.9853,1.9887,1.9229,1.839,1.8024,1.6799,1.5218,1.3841,1.2699,1.1671,1.0809,1.0212,0.9777,0.9951,0.9628,0.9253,0.9533,0.9168,0.8809,0.9172,0.8871,0.8429,0.8271,0.8197,0.8299,0.9058,1.0226,1.156,1.3047,1.4832,1.6528,1.7833,1.9486,2.1192,2.2763,2.4131,2.5741,2.7781,2.8771,2.9977,3.1845,3.2523,3.2881,3.2989,3.2881,3.2447,3.1665,3.0142,2.8604,2.713,2.5908,2.4617,2.3264,2.1876,2.1003,2.0539,2.0035,1.9734,2.3851,2.608,2.8183,2.9696,3.0561,3.1374,3.2641,3.3494,3.3785,3.3028,0.0,2.9948,2.8908,0.0,0.0,0.0,0.0,0.0,0.0,0.0,0.0,0.0,0.0,0.0,0.0,0.0,0.0,0.0,0.0,0.0,0.0,0.0,0.0,0.0,0.0,0.0,0.0,0.0,0.0,0.0,2.8319,2.7225,2.6391,2.636,2.5985,2.5307,2.4754,2.4271,2.3737,2.2751,2.1701,2.0685,1.9925,1.9589,1.9541,1.9188,1.8894,1.8491,1.789,1.6733,1.5348,1.3841,1.2735,1.1809,1.0585,1.0067,0.9894,0.9634,0.9231,0.891,0.8928,0.863,0.8214,0.805,0.7928,0.772,0.7333,0.7341,0.7604,0.818,0.9105,1.0372,1.1954,1.3629,1.5381,1.7172,1.9417,2.1183,2.2268,2.3578,2.5195,2.7363,2.8605,2.9959,3.1504,3.217,3.2622,3.2921,3.2671,3.2394,3.2088,3.111,2.952,2.7231,2.6664,2.5583,2.3881,2.2468,2.1799,2.172,2.1041,2.0965,2.1758,2.2903,2.469,2.7618,2.9347,3.0541,3.0982,3.0854,3.0867,3.1836,3.0991,2.9477,0.0,0.0,0.0,0.0,0.0,0.0,0.0,0.0,0.0,0.0,0.0,0.0,0.0,0.0,0.0,0.0,0.0,0.0,0.0,0.0,0.0,0.0,0.0,0.0,3.0912,3.0364,2.9653,0.0,2.7679,2.6645,2.5423,2.4931,2.4242,2.333,2.3368,2.3114,2.2535,2.186,2.0953,1.9913,1.9117,1.8679,1.8536,1.8384,1.8011,1.7435,1.7007,1.6166,1.4965,1.3718,1.2717,1.1767,1.0502,0.9708,0.9128,0.8971,0.85,0.8064,0.8288,0.7861,0.7288,0.6874,0.7166,0.7362,0.6858,0.702,0.7421,0.7789,0.8681,0.9916,1.183,1.3118,1.4835,1.7562,1.9267,2.0753,2.2055,2.3539,2.5218,2.7067,2.8623,2.9943,3.0925,3.2496,3.3419,3.3301,3.3213,3.3043,3.2786,3.1237,2.9714,2.833,2.7072,2.5756,2.4415,2.3357,2.2642,2.2165,2.19,2.197,2.1256,2.2353,2.4139,2.6953,2.8155,2.8697,2.9163,2.8941,2.8852,2.9549,2.9434,0.0,0.0,0.0,0.0,0.0,0.0,0.0,0.0,0.0,0.0,0.0,0.0,0.0,0.0,0.0,0.0,0.0,0.0,0.0,0.0,0.0,0.0,0.0,0.0,0.0,3.0006,2.9579,2.8821,2.7697,2.6957,2.5874,2.4334,2.4038,2.3618,2.3108,2.2765,2.238,2.2063,2.1131,2.0189,1.9184,1.8354,1.7896,1.7626,1.7462,1.7062,1.6536,1.6286,1.5505,1.442,1.3257,1.231,1.1444,1.0253,0.9413,0.8801,0.8483,0.8011,0.7545,0.7557,0.7234,0.6894,0.6356,0.6539,0.6826,0.6373,0.661,0.702,0.7426,0.8247,0.9415,1.086,1.2713,1.4759,1.704,1.855,1.999,2.1636,2.3141,2.4804,2.662,2.8136,2.9485,3.0791,3.181,3.2766,3.3569,3.3383,3.3236,3.3276,3.2139,3.0749,2.9088,2.8026,2.6778,2.5384,2.461,2.3867,2.3041,2.3013,2.3119,2.1299,2.2924,2.4879,2.6604,2.6792,2.6723,2.7453,2.7371,2.7088,2.6952,2.752,0.0,0.0,0.0,0.0,0.0,0.0,0.0,0.0,0.0,0.0,0.0,0.0,0.0,0.0,0.0,0.0,0.0,0.0,0.0,0.0,0.0,0.0,0.0,0.0,2.9381,2.901,2.8665,2.8031,2.7048,2.6095,2.4906,2.3472,2.336,2.3247,2.3215,2.2292,2.1852,2.1587,2.0483,1.942,1.8386,1.7576,1.7014,1.6652,1.6307,1.5906,1.5637,1.5417,1.4665,1.3614,1.2675,1.1792,1.0817,0.9817,0.9015,0.8416,0.7948,0.7358,0.6841,0.6745,0.6625,0.647,0.5949,0.6015,0.616,0.5966,0.6241,0.6659,0.7128,0.8233,0.9347,1.0258,1.2565,1.4881,1.637,1.7661,1.9128,2.1021,2.2711,2.4447,2.6327,2.7852,2.934,3.0984,3.1442,3.2347,3.4001,3.3605,3.3456,3.3634,3.3143,3.1886,2.9894,2.9185,2.8001,2.6311,2.5754,2.5037,2.4056,2.4028,2.4205,2.0956,2.3472,2.5514,2.5226,2.5408,2.581,2.6217,2.577,2.5266,0.0,0.0,0.0,0.0,0.0,0.0,0.0,0.0,0.0,0.0,0.0,0.0,0.0,0.0,0.0,0.0,0.0,0.0,0.0,0.0,0.0,0.0,0.0,3.0329,2.9896,2.957,0.0,2.8785,2.839,2.7621,2.6359,2.4872,2.3921,2.3472,2.2683,2.2343,2.223,2.1911,2.1324,2.0456,2.0026,1.8744,1.7001,1.6394,1.5758,1.4998,1.4497,1.4235,1.4077,1.4027,1.3468,1.2581,1.2358,1.1233,0.9818,0.9095,0.807,0.7122,0.6718,0.6099,0.5623,0.5722,0.558,0.5426,0.5277,0.5325,0.5562,0.6022,0.6438,0.6919,0.765,0.9361,1.0844,1.1434,1.3035,1.4634,1.5953,1.7114,1.8582,2.0602,2.2615,2.4683,2.6689,2.9047,3.0663,3.1434,3.3107,3.4327,3.4788,3.4759,3.4636,3.4415,3.3284,3.2431,3.1661,3.0227,2.8552,2.6734,2.6161,2.5553,2.4874,2.4568,2.4946,2.0789,2.1756,2.2604,2.351,2.3902,2.4114,2.4417,2.438,2.4179,0.0,0.0,0.0,0.0,0.0,0.0,0.0,0.0,0.0,0.0,0.0,0.0,0.0,0.0,0.0,0.0,0.0,0.0,0.0,0.0,0.0,0.0,2.9456,2.9177,2.8628,2.8564,0.0,2.7511,2.7419,2.6664,2.5388,2.4334,2.3694,2.3386,2.2497,2.1938,2.1811,2.1182,2.0515,1.9894,1.9069,1.8019,1.6685,1.5708,1.4799,1.4049,1.3504,1.309,1.2686,1.2829,1.2266,1.142,1.1086,1.0144,0.9005,0.8206,0.7291,0.6456,0.5922,0.5332,0.4948,0.5237,0.5157,0.5147,0.5298,0.5495,0.5784,0.6315,0.6496,0.7024,0.8247,0.9459,1.0682,1.1736,1.2858,1.4225,1.5878,1.7041,1.8479,2.0566,2.2573,2.4557,2.6504,2.8605,3.0438,3.1758,3.2824,3.4074,3.5714,3.5443,3.5349,3.5448,3.4692,3.3732,3.2511,3.1078,2.9665,2.8402,2.8079,2.7549,2.6704,2.649,2.6706,2.1024,2.0594,2.0532,2.2354,2.2579,2.2391,2.2745,0.0,2.2781,0.0,0.0,0.0,0.0,0.0,0.0,0.0,0.0,0.0,0.0,0.0,0.0,0.0,0.0,0.0,0.0,0.0,0.0,0.0,0.0,0.0,2.8592,2.841,2.8113,2.7602,2.7573,2.7206,2.6336,2.6118,2.5537,2.462,2.3911,2.3513,2.3124,2.2167,2.1649,2.1338,2.0624,1.9979,1.9346,1.8288,1.7259,1.6163,1.4863,1.387,1.3119,1.2396,1.1747,1.1315,1.1431,1.0887,0.9999,0.9818,0.9015,0.7987,0.7214,0.6341,0.5542,0.493,0.4473,0.423,0.4411,0.4603,0.4798,0.5074,0.5456,0.5921,0.6605,0.692,0.7461,0.8648,0.9582,1.058,1.1838,1.2845,1.4035,1.5861,1.7121,1.8647,2.0675,2.2604,2.4603,2.6605,2.8495,3.0344,3.2208,3.2958,3.4215,3.6394,3.628,3.6274,3.6552,3.6143,3.5194,3.3722,3.2526,3.1227,2.9914,2.9571,2.9013,2.8202,2.7896,2.7952,2.1794,2.1443,2.1414,2.2378,2.1673,2.0887,0.0,0.0,0.0,0.0,0.0,0.0,0.0,0.0,0.0,0.0,0.0,0.0,0.0,0.0,0.0,0.0,0.0,0.0,0.0,0.0,0.0,0.0,0.0,0.0,2.8078,2.8137,2.7937,2.7384,2.7187,2.6663,2.5789,2.4923,2.4479,2.4462,2.3431,2.2938,2.2905,2.1698,2.0941,2.0651,2.0632,1.9857,1.8541,1.8003,1.6698,1.5025,1.3761,1.283,1.1993,1.0865,1.0191,0.9872,0.9925,0.9231,0.8408,0.8846,0.7925,0.6539,0.6222,0.5205,0.4046,0.3561,0.3153,0.2923,0.3079,0.3493,0.3929,0.4181,0.4731,0.5538,0.6912,0.793,0.8699,0.8955,1.0029,1.1244,1.2123,1.3259,1.4545,1.5906,1.7317,1.8924,2.0671,2.2839,2.5092,2.7406,2.9353,3.1262,3.3017,3.4531,3.5895,3.6879,3.7552,3.7782,3.7647,3.7099,3.6482,3.5856,3.5102,3.3273,3.0378,2.9574,2.8938,2.8409,2.7999,2.8077,2.1842,2.086,1.9816,2.0607,2.043,1.9935,1.9611,1.9552,0.0,0.0,0.0,0.0,0.0,0.0,0.0,0.0,0.0,0.0,0.0,0.0,0.0,0.0,0.0,0.0,0.0,0.0,0.0,0.0,0.0,0.0,2.6149,2.6435,2.636,2.5829,2.61,2.5679,2.4556,2.3904,2.3359,2.3116,2.2895,2.2593,2.2245,2.1464,2.0816,2.0357,1.9731,1.8949,1.8023,1.7315,1.6292,1.4952,1.3481,1.245,1.1522,1.0162,0.9285,0.8718,0.8645,0.804,0.7333,0.7503,0.6749,0.56,0.5055,0.4025,0.2993,0.2653,0.2277,0.216,0.2806,0.3198,0.3638,0.4631,0.5519,0.6336,0.7368,0.8154,0.889,0.9607,1.0592,1.1572,1.2382,1.3411,1.4655,1.6148,1.7746,1.9507,2.1627,2.3928,2.608,2.7928,3.0186,3.2097,3.3732,3.4877,3.63,3.7986,3.8219,3.8202,3.8102,3.7783,3.711,3.6244,3.5593,3.4287,3.2318,3.1663,3.097,3.0367,2.9986,2.998,2.2594,2.1057,1.9184,1.9972,1.9627,1.8934,1.8288,0.0,0.0,0.0,0.0,0.0,0.0,0.0,0.0,0.0,0.0,0.0,0.0,0.0,0.0,0.0,0.0,0.0,0.0,0.0,0.0,0.0,0.0,0.0,2.4364,2.4861,2.5058,2.4683,2.4735,2.4356,2.3328,2.2893,2.2445,2.1973,2.2112,2.1938,2.1693,2.0813,2.0401,2.0033,1.8743,1.801,1.757,1.6759,1.5792,1.4734,1.3258,1.2015,1.0867,0.9558,0.8497,0.7684,0.7384,0.6848,0.6124,0.6082,0.5359,0.4452,0.3665,0.2681,0.1809,0.1478,0.1243,0.1256,0.2052,0.2729,0.354,0.4962,0.6007,0.6921,0.7979,0.8505,0.9097,1.01,1.1004,1.1964,1.2936,1.3992,1.5248,1.6907,1.8651,2.0454,2.2484,2.465,2.6683,2.8327,3.0741,3.2756,3.4068,3.5536,3.7089,3.8711,3.8952,3.9003,3.8963,3.868,3.8043,3.7026,3.6515,3.5536,3.4325,3.3382,3.2588,3.1863,3.1496,3.1584,0.0,0.0,0.0,2.0606,0.0,0.0,1.7777,0.0,0.0,0.0,0.0,0.0,0.0,0.0,0.0,0.0,0.0,0.0,0.0,0.0,0.0,0.0,0.0,0.0,0.0,0.0,0.0,0.0,0.0,2.29,2.2763,2.3612,2.4086,2.3843,2.3299,2.2698,2.2146,2.2033,2.1789,2.1203,2.1107,2.107,2.1056,1.9845,1.9449,1.9604,1.7816,1.7114,1.6959,1.6155,1.5285,1.4155,1.2892,1.1546,1.0229,0.8913,0.7755,0.6643,0.6294,0.5603,0.4821,0.455,0.3791,0.2903,0.211,0.1142,0.0288,-0.0054,-0.0109,0.0112,0.0698,0.2101,0.3742,0.5081,0.6063,0.714,0.8662,0.9055,0.9367,1.0357,1.1246,1.2363,1.3981,1.5116,1.6412,1.8062,1.9922,2.1642,2.3076,2.503,2.691,2.8633,3.1014,3.3005,3.4153,3.6633,3.8422,3.9009,3.9886,4.0252,4.0041,3.9798,3.9337,3.853,3.7929,3.711,3.6136,3.4503,3.3432,3.2751,3.2378,3.2479,2.2741,0.0,0.0,0.0,0.0,0.0,0.0,0.0,0.0,0.0,0.0,0.0,0.0,0.0,0.0,0.0,0.0,0.0,0.0,0.0,0.0,0.0,0.0,0.0,0.0,0.0,0.0,0.0,0.0,2.1003,2.1451,2.2019,2.2481,2.2925,2.2112,2.1608,2.1758,2.1522,2.1417,2.1166,2.0971,2.0945,2.1162,1.9946,1.9453,1.9382,1.7606,1.6593,1.613,1.5338,1.4527,1.3674,1.2433,1.0976,0.9525,0.8477,0.7191,0.5955,0.542,0.4635,0.3851,0.347,0.2662,0.166,0.1011,-0.0054,-0.1053,-0.106,-0.1015,-0.0545,0.1041,0.2653,0.4076,0.5102,0.6404,0.7756,0.9064,1.0136,1.0925,1.1514,1.2457,1.3515,1.4462,1.6174,1.7664,1.8803,2.0779,2.2739,2.4256,2.643,2.8344,2.9753,3.201,3.399,3.5414,3.7271,3.9,4.0334,4.097,4.1195,4.0954,4.0462,3.9785,3.8973,3.8638,3.8196,3.7636,3.5558,3.4471,3.4336,3.4281,3.4237,2.1425,2.0099,1.8406,0.0,0.0,0.0,1.5704,1.5475,0.0,0.0,0.0,0.0,0.0,0.0,0.0,0.0,0.0,0.0,0.0,0.0,0.0,0.0,0.0,0.0,0.0,0.0,0.0,0.0,1.813,1.9279,2.0301,2.055,2.0984,2.1469,2.0997,2.0699,2.0832,2.0939,2.0832,2.0591,2.053,2.0614,2.0836,1.9555,1.914,1.9071,1.7118,1.6143,1.5693,1.4264,1.3535,1.3127,1.199,1.0593,0.9061,0.7895,0.6605,0.5387,0.4703,0.3853,0.302,0.2553,0.1623,0.048,-0.0262,-0.1333,-0.2359,-0.2321,-0.1893,-0.105,0.0667,0.2279,0.3831,0.522,0.6913,0.8527,0.9995,1.1501,1.2598,1.2708,1.3637,1.4729,1.614,1.7819,1.9401,2.068,2.2536,2.4303,2.5625,2.7436,2.9195,3.0375,3.2483,3.4473,3.6108,3.7796,3.937,4.0905,4.1445,4.1579,4.1511,4.1009,4.0427,3.9847,3.9518,3.9068,3.846,3.701,3.6117,3.5805,3.5661,3.5571,2.0101,1.9409,1.8478,0.0,0.0,0.0,1.5818,1.534,1.5049,0.0,0.0,0.0,0.0,0.0,0.0,0.0,0.0,0.0,0.0,0.0,0.0,0.0,0.0,0.0,0.0,0.0,0.0,1.4498,1.6147,1.7745,1.9287,1.9325,1.945,1.9949,1.9949,1.9833,1.9723,2.0321,2.0321,1.9846,2.012,2.0315,2.0287,1.9018,1.8574,1.8687,1.6484,1.5407,1.5202,1.3168,1.2394,1.2542,1.1496,1.0125,0.8592,0.7295,0.6034,0.4833,0.4082,0.3244,0.243,0.1786,0.0667,-0.0644,-0.1568,-0.2642,-0.3636,-0.3711,-0.2762,-0.1412,-0.0157,0.1487,0.3346,0.5456,0.7454,0.9448,1.1238,1.3044,1.4362,1.4482,1.5129,1.6296,1.8497,1.998,2.1485,2.3221,2.4786,2.6093,2.7083,2.8462,2.9761,3.0922,3.2877,3.4809,3.6466,3.8268,3.9867,4.1163,4.1667,4.1896,4.1851,4.173,4.1364,4.086,4.0508,3.9986,3.9283,3.8644,3.7888,3.7144,3.6674,3.6661,0.0,0.0,0.0,0.0,0.0,0.0,1.5939,1.5216,1.4531,0.0,0.0,0.0,0.0,0.0,0.0,0.0,0.0,0.0,0.0,0.0,0.0,0.0,0.0,0.0,0.0,0.0,1.1959,1.2346,1.4441,1.6231,1.7418,1.7569,1.7953,1.8836,1.9115,1.9345,1.9676,2.0558,2.081,2.0433,2.0279,2.0388,2.0588,1.8871,1.8123,1.7833,1.5774,1.4517,1.3637,1.2383,1.1671,1.1341,1.0349,0.9059,0.756,0.6921,0.5796,0.4504,0.4058,0.313,0.1975,0.118,-0.0145,-0.1612,-0.2456,-0.3691,-0.4736,-0.4675,-0.3633,-0.2251,-0.0807,0.125,0.3462,0.5584,0.8025,1.0409,1.2423,1.4452,1.6536,1.8498,1.8471,1.8592,2.0127,2.2114,2.3806,2.4527,2.6166,2.7586,2.8457,2.9601,3.1105,3.3113,3.4397,3.5844,3.7973,3.9648,4.1219,4.2685,4.3573,4.3671,4.3,4.3289,4.2812,4.1568,4.1753,4.1853,4.184,4.0134,3.9027,3.8497,3.8527,3.8594,0.0,0.0,0.0,1.7143,0.0,0.0,0.0,1.5458,1.4788,1.4119,0.0,0.0,0.0,0.0,0.0,0.0,0.0,0.0,0.0,0.0,0.0,0.0,0.0,0.0,0.0,0.0,0.9703,1.1102,1.3021,1.4619,1.557,1.6095,1.6897,1.7565,1.8342,1.8876,1.9265,2.031,2.0695,2.0554,2.0341,2.0227,2.0429,1.8783,1.7864,1.743,1.5306,1.3866,1.2732,1.1497,1.0429,0.9663,0.9426,0.847,0.7067,0.6473,0.5514,0.4442,0.3849,0.2903,0.1835,0.0808,-0.0613,-0.2177,-0.3172,-0.454,-0.5676,-0.562,-0.456,-0.3132,-0.1523,0.0748,0.3239,0.5819,0.8484,1.1149,1.3477,1.5911,1.8294,2.061,2.165,2.2413,2.3104,2.4619,2.6022,2.7144,2.8357,2.9457,3.0439,3.1344,3.264,3.4569,3.5481,3.6744,3.8863,4.0068,4.139,4.2681,4.3488,4.3831,4.3578,4.3789,4.3588,4.2889,4.2882,4.2938,4.2927,4.1965,4.1121,4.0187,4.0118,4.0014,0.0,0.0,0.0,0.0,0.0,1.6875,0.0,0.0,0.0,1.4357,0.0,0.0,0.0,0.0,0.0,0.0,0.0,0.0,0.0,0.0,0.0,0.0,0.0,0.0,0.0,0.0,0.7487,1.0022,1.1396,1.2532,1.3536,1.4818,1.5692,1.6368,1.747,1.8284,1.8897,1.9887,2.0396,2.0383,2.0159,2.0079,1.9866,1.859,1.7541,1.6725,1.4648,1.3109,1.1919,1.0525,0.9269,0.8217,0.8644,0.8006,0.6828,0.6043,0.5293,0.4481,0.3671,0.2726,0.1706,0.0607,-0.1087,-0.2968,-0.4234,-0.5504,-0.6486,-0.6507,-0.5454,-0.3893,-0.2171,0.0259,0.3049,0.6048,0.8931,1.1815,1.4551,1.7262,1.9836,2.225,2.4494,2.605,2.6235,2.7138,2.8294,2.9715,3.0627,3.1483,3.2394,3.3217,3.4274,3.578,3.6673,3.7926,3.9641,4.0599,4.1571,4.2795,4.3223,4.356,4.3861,4.4036,4.4211,4.4443,4.4354,4.4177,4.3913,4.4089,4.3398,4.1828,4.1524,4.13,0.0,0.0,0.0,0.0,1.7523,0.0,0.0,0.0,1.4454,1.3626,0.0,0.0,0.0,0.0,0.0,0.0,0.0,0.0,0.0,0.0,0.0,0.0,0.0,0.0,0.0,0.0,0.0,0.7749,0.8349,0.9484,1.1483,1.2751,1.3992,1.5091,1.6476,1.7556,1.834,1.9448,2.0005,1.9993,1.9799,1.949,1.8967,1.7828,1.6592,1.5338,1.3502,1.2099,1.1059,0.9545,0.8593,0.8134,0.7972,0.7394,0.6566,0.5964,0.5344,0.471,0.382,0.2605,0.1311,0.036,-0.1919,-0.4592,-0.6392,-0.7047,-0.7205,-0.7268,-0.5983,-0.4281,-0.2656,0.0164,0.3288,0.6211,0.9305,1.2466,1.5704,1.8451,2.1284,2.4539,2.6491,2.7632,2.7998,2.9628,3.0979,3.1158,3.2251,3.3146,3.3482,3.4405,3.555,3.7197,3.8497,3.9826,4.1301,4.2351,4.3382,4.4303,4.4331,4.4165,4.3892,4.4329,4.5103,4.6166,4.6497,4.6497,4.6166,4.6518,4.5355,4.2925,4.274,4.2642,0.0,0.0,0.0,0.0,0.0,0.0,1.6207,0.0,1.4575,0.0,0.0,0.0,0.0,0.0,0.0,0.0,0.0,0.0,0.0,0.0,0.0,0.0,0.0,0.0,0.0,0.0,0.0,0.0,0.0,0.7316,0.9341,1.1138,1.2735,1.406,1.5838,1.7231,1.8189,1.9299,1.9903,2.0005,1.9661,1.9146,1.8685,1.7489,1.623,1.4903,1.3247,1.1692,1.0211,0.9201,0.8326,0.7583,0.7334,0.692,0.6401,0.5747,0.5281,0.4743,0.3612,0.2458,0.1122,-0.1225,-0.3202,-0.4955,-0.6519,-0.7016,-0.6995,-0.6993,-0.5905,-0.4318,-0.2338,0.0381,0.3428,0.6667,1.0004,1.3381,1.6847,1.981,2.285,2.6335,2.8387,3.0082,3.1685,3.1994,3.2309,3.3479,3.4265,3.5132,3.5893,3.7067,3.8252,3.9436,4.0426,4.1503,4.2341,4.3012,4.3557,4.413,4.4194,4.4386,4.4761,4.4909,4.5619,4.6747,4.7071,4.7166,4.7001,4.6821,4.6281,4.5383,4.48,4.4104,1.7528,0.0,0.0,0.0,0.0,0.0,0.0,0.0,0.0,0.0,0.0,0.0,0.0,0.0,0.0,0.0,0.0,0.0,0.0,0.0,0.0,0.0,0.0,0.0,0.0,0.0,0.0,0.0,0.3265,0.0,0.7351,0.9531,1.1434,1.2982,1.4947,1.6477,1.7517,1.8507,1.917,1.9492,1.9125,1.8684,1.8056,1.7006,1.5846,1.443,1.2723,1.1199,0.9769,0.8834,0.8001,0.7242,0.6874,0.6554,0.6249,0.5611,0.5132,0.4636,0.3461,0.2076,0.0394,-0.2517,-0.4134,-0.5209,-0.6545,-0.6896,-0.6808,-0.674,-0.5626,-0.397,-0.1836,0.0805,0.3771,0.7166,1.0595,1.4089,1.7835,2.0983,2.4157,2.7843,3.0105,3.2273,3.4873,3.4363,3.4099,3.5618,3.6547,3.7312,3.814,3.9599,4.0844,4.1305,4.2577,4.3362,4.3441,4.3966,4.4201,4.409,4.4037,4.432,4.4892,4.5136,4.5774,4.6928,4.7463,4.7837,4.7825,4.7565,4.7507,4.7499,4.6167,4.5185,0.0,0.0,0.0,1.6722,0.0,0.0,0.0,0.0,1.4022,0.0,0.0,0.0,0.0,0.0,0.0,0.6936,0.0,0.0,0.0,0.0,0.0,0.0,0.0,0.0,0.0,0.0,0.0,0.0,0.0461,0.0,0.6004,0.7612,0.9475,1.1579,1.3167,1.4647,1.5857,1.6732,1.7464,1.8045,1.8167,1.7865,1.708,1.6381,1.5163,1.3568,1.1662,1.0562,0.9834,0.8223,0.7529,0.7391,0.667,0.6258,0.5973,0.5553,0.5059,0.4448,0.3428,0.1321,-0.1209,-0.3016,-0.4395,-0.5628,-0.6991,-0.716,-0.6868,-0.6808,-0.5275,-0.3184,-0.1236,0.1443,0.4485,0.7726,1.0931,1.4433,1.8581,2.1795,2.5037,2.9047,3.1604,3.3965,3.6515,3.6739,3.6836,3.7419,3.8656,3.9594,3.9594,4.1568,4.2942,4.2594,4.489,4.5902,4.4756,4.5715,4.5902,4.4783,4.4117,4.3734,4.3769,4.4611,4.5635,4.6736,4.8125,4.8931,4.9062,4.9677,4.945,4.8496,4.6201,4.5267,0.0,0.0,1.7296,1.6574,0.0,0.0,0.0,0.0,0.0,0.0,0.0,0.0,0.0,0.0,0.0,0.6015,0.0,0.0,0.0,0.0,0.0,0.0,0.0,0.0,0.0,0.0,0.0,-0.2778,-0.1298,0.0741,0.0,0.6275,0.8484,1.0572,1.2322,1.3882,1.5399,1.6333,1.6942,1.7249,1.7406,1.7171,1.6464,1.5958,1.4941,1.3505,1.1854,1.0559,0.9548,0.8389,0.7735,0.7424,0.6715,0.6191,0.5828,0.5162,0.4667,0.4081,0.2371,0.0399,-0.1536,-0.2807,-0.3911,-0.4935,-0.5913,-0.613,-0.6019,-0.5956,-0.4624,-0.2749,-0.075,0.1907,0.4935,0.8288,1.1696,1.543,1.9745,2.3137,2.644,3.027,3.3225,3.5929,3.8622,3.98,4.0271,4.0063,4.065,4.1372,4.2131,4.3729,4.4811,4.4911,4.6089,4.6733,4.6542,4.6058,4.555,4.4756,4.4077,4.3922,4.4238,4.4929,4.5928,4.7234,4.8579,4.9386,4.9735,4.9721,4.9493,4.9144,4.7545,4.6683,1.8914,1.8195,0.0,0.0,1.6401,0.0,1.4649,0.0,0.0,0.0,0.0,0.0,0.0,0.0,0.0,0.5229,0.3395,0.0,0.0,-0.5538,0.0,0.0,0.0,0.0,0.0,0.0,-0.7155,-0.4749,-0.2992,-0.0628,0.0,0.0,0.7276,0.9171,1.0938,1.2489,1.3961,1.4871,1.5546,1.5854,1.6226,1.6138,1.5609,1.5302,1.4447,1.316,1.1786,1.0525,0.9433,0.8355,0.7744,0.7494,0.6643,0.6081,0.5615,0.4864,0.4184,0.3395,0.1799,0.0169,-0.1366,-0.2526,-0.3587,-0.4611,-0.5563,-0.5672,-0.5495,-0.5445,-0.3984,-0.195,0.0138,0.2718,0.5651,0.9038,1.2435,1.6146,2.0696,2.421,2.7605,3.1649,3.4869,3.7776,4.0529,4.2167,4.2932,4.2552,4.2764,4.3472,4.4537,4.6005,4.6946,4.7264,4.7916,4.8105,4.7608,4.6428,4.5512,4.5105,4.4457,4.43,4.471,4.5425,4.6322,4.7498,4.8747,4.9795,5.0471,5.0218,5.0199,5.0355,4.9073,4.8358]}]]